[[{"header":{"parameterUnit":"m.s-1","parameterCategory":1,"la1":30.6,"la2":28.766,"lo1":-90.7593,"lo2":-88.6598,"dy":0.0162,"dx":0.0183,"nx":116,"ny":114,"refTime":"2023-08-07T12:00:00:Z","depth":0,"parameterNumber":2,"parameterNumberName":"U-component_of_WINDS"},"data":[0.0,0.0,0.0,0.0,0.0,0.0,0.0,0.0,0.0,0.0,0.0,0.0,0.0,0.0,0.0,0.0,0.0,0.0,0.0,0.0,0.0,0.0,0.0,0.0,0.0,0.0,0.0,0.0,0.0,0.0,0.0,0.0,0.0,0.0,0.0,0.0,0.0,0.0,0.0,0.0,0.0,0.0,0.0,0.0,0.0,0.0,0.0,0.0,0.0,0.0,0.0,0.0,0.0,0.0,0.0,0.0,0.0,0.0,0.0,0.0,0.0,0.0,0.0,0.0,0.0,0.0,0.0,0.0,0.0,0.0,0.0,0.0,0.0,0.0,0.0,0.0,0.0,0.0,0.0,0.0,0.0,0.0,0.0,0.0,0.0,0.0,0.0,0.0,0.0,0.0,0.0,0.0,0.0,0.0,0.0,0.0,0.0,0.0,0.0,0.0,0.0,0.0,0.0,0.0,0.0,0.0,0.0,0.0,0.0,0.0,0.0,0.0,0.0,0.0,0.0,0.0,0.0,0.0,0.0,0.0,0.0,0.0,0.0,0.0,0.0,0.0,0.0,0.0,0.0,0.0,0.0,0.0,0.0,0.0,0.0,0.0,0.0,0.0,0.0,0.0,0.0,0.0,0.0,0.0,0.0,0.0,0.0,0.0,0.0,0.0,0.0,0.0,0.0,0.0,0.0,0.0,0.0,0.0,0.0,0.0,0.0,0.0,0.0,0.0,0.0,0.0,0.0,0.0,0.0,0.0,0.0,0.0,0.0,0.0,0.0,0.0,0.0,0.0,0.0,0.0,0.0,0.0,0.0,0.0,0.0,0.0,0.0,0.0,0.0,0.0,0.0,0.0,0.0,0.0,0.0,0.0,0.0,0.0,0.0,0.0,0.0,0.0,0.0,0.0,0.0,0.0,0.0,0.0,0.0,0.0,0.0,0.0,0.0,0.0,0.0,0.0,0.0,0.0,0.0,0.0,0.0,0.0,0.0,0.0,0.0,0.0,0.0,0.0,0.0,0.0,0.0,0.0,0.0,0.0,0.0,0.0,0.0,0.0,0.0,0.0,0.0,0.0,0.0,0.0,0.0,0.0,0.0,0.0,0.0,0.0,0.0,0.0,0.0,0.0,0.0,0.0,0.0,0.0,0.0,0.0,0.0,0.0,0.0,0.0,0.0,0.0,0.0,0.0,0.0,0.0,0.0,0.0,0.0,0.0,0.0,0.0,0.0,0.0,0.0,0.0,0.0,0.0,0.0,0.0,0.0,0.0,0.0,0.0,0.0,0.0,0.0,0.0,0.0,0.0,0.0,0.0,0.0,0.0,0.0,0.0,0.0,0.0,0.0,0.0,0.0,0.0,0.0,0.0,0.0,0.0,0.0,0.0,0.0,0.0,0.0,0.0,0.0,0.0,0.0,0.0,0.0,0.0,0.0,0.0,0.0,0.0,0.0,0.0,0.0,0.0,0.0,0.0,0.0,0.0,0.0,0.0,0.0,0.0,0.0,0.0,0.0,0.0,0.0,0.0,0.0,0.0,0.0,0.0,0.0,0.0,0.0,0.0,0.0,0.0,0.0,0.0,0.0,0.0,0.0,0.0,0.0,0.0,0.0,0.0,0.0,0.0,0.0,0.0,0.0,0.0,0.0,0.0,0.0,0.0,0.0,0.0,0.0,0.0,0.0,0.0,0.0,0.0,0.0,0.0,0.0,0.0,0.0,0.0,0.0,0.0,0.0,0.0,0.0,0.0,0.0,0.0,0.0,0.0,0.0,0.0,0.0,0.0,0.0,0.0,0.0,0.0,0.0,0.0,0.0,0.0,0.0,0.0,0.0,0.0,0.0,0.0,0.0,0.0,0.0,0.0,0.0,0.0,0.0,0.0,0.0,0.0,0.0,0.0,0.0,0.0,0.0,0.0,0.0,0.0,0.0,0.0,0.0,0.0,0.0,0.0,0.0,0.0,0.0,0.0,0.0,0.0,0.0,0.0,0.0,0.0,0.0,0.0,0.0,0.0,0.0,0.0,0.0,0.0,0.0,0.0,0.0,0.0,0.0,0.0,0.0,0.0,0.0,0.0,0.0,0.0,0.0,0.0,0.0,0.0,0.0,0.0,0.0,0.0,0.0,0.0,0.0,0.0,0.0,0.0,0.0,0.0,0.0,0.0,0.0,0.0,0.0,0.0,0.0,0.0,0.0,0.0,0.0,0.0,0.0,0.0,0.0,0.0,0.0,0.0,0.0,0.0,0.0,0.0,0.0,0.0,0.0,0.0,0.0,0.0,0.0,0.0,0.0,0.0,0.0,0.0,0.0,0.0,0.0,0.0,0.0,0.0,0.0,0.0,0.0,0.0,0.0,0.0,0.0,0.0,0.0,0.0,0.0,0.0,0.0,0.0,0.0,0.0,0.0,0.0,0.0,0.0,0.0,0.0,0.0,0.0,0.0,0.0,0.0,0.0,0.0,0.0,0.0,0.0,0.0,0.0,0.0,0.0,0.0,0.0,0.0,0.0,0.0,0.0,0.0,0.0,0.0,0.0,0.0,0.0,0.0,0.0,0.0,0.0,0.0,0.0,0.0,0.0,0.0,0.0,0.0,0.0,0.0,0.0,0.0,0.0,0.0,0.0,0.0,0.0,0.0,0.0,0.0,0.0,0.0,0.0,0.0,0.0,0.0,0.0,0.0,0.0,0.0,0.0,0.0,0.0,0.0,0.0,0.0,0.0,0.0,0.0,0.0,0.0,0.0,0.0,0.0,0.0,0.0,0.0,0.0,0.0,0.0,0.0,0.0,0.0,0.0,0.0,0.0,0.0,0.0,0.0,0.0,0.0,0.0,0.0,0.0,0.0,0.0,0.0,0.0,0.0,0.0,0.0,0.0,0.0,0.0,0.0,0.0,0.0,0.0,0.0,0.0,0.0,0.0,0.0,0.0,0.0,0.0,0.0,0.0,0.0,0.0,0.0,0.0,0.0,0.0,0.0,0.0,0.0,0.0,0.0,0.0,0.0,0.0,0.0,0.0,0.0,0.0,0.0,0.0,0.0,0.0,0.0,0.0,0.0,0.0,0.0,0.0,0.0,0.0,0.0,0.0,0.0,0.0,0.0,0.0,0.0,0.0,0.0,0.0,0.0,0.0,0.0,0.0,0.0,0.0,0.0,0.0,0.0,0.0,0.0,0.0,0.0,0.0,0.0,0.0,0.0,0.0,0.0,0.0,0.0,0.0,0.0,0.0,0.0,0.0,0.0,0.0,0.0,0.0,0.0,0.0,0.0,0.0,0.0,0.0,0.0,0.0,0.0,0.0,0.0,0.0,0.0,0.0,0.0,0.0,0.0,0.0,0.0,0.0,0.0,0.0,0.0,0.0,0.0,0.0,0.0,0.0,0.0,0.0,0.0,0.0,0.0,0.0,0.0,0.0,0.0,0.0,0.0,0.0,0.0,0.0,0.0,0.0,0.0,0.0,0.0,0.0,0.0,0.0,0.0,0.0,0.0,0.0,0.0,0.0,0.0,0.0,0.0,0.0,0.0,0.0,0.0,0.0,0.0,0.0,0.0,0.0,0.0,0.0,0.0,0.0,0.0,0.0,0.0,0.0,0.0,0.0,0.0,0.0,0.0,0.0,0.0,0.0,0.0,0.0,0.0,0.0,0.0,0.0,0.0,0.0,0.0,0.0,0.0,0.0,0.0,0.0,0.0,0.0,0.0,0.0,0.0,0.0,0.0,0.0,0.0,0.0,0.0,0.0,0.0,0.0,0.0,0.0,0.0,0.0,0.0,0.0,0.0,0.0,0.0,0.0,0.0,0.0,0.0,0.0,0.0,0.0,0.0,0.0,0.0,0.0,0.0,0.0,0.0,0.0,0.0,0.0,0.0,0.0,0.0,0.0,0.0,0.0,0.0,0.0,0.0,0.0,0.0,0.0,0.0,0.0,0.0,0.0,0.0,0.0,0.0,0.0,0.0,0.0,0.0,0.0,0.0,0.0,0.0,0.0,0.0,0.0,0.0,0.0,0.0,0.0,0.0,0.0,0.0,0.0,0.0,0.0,0.0,0.0,0.0,0.0,0.0,0.0,0.0,0.0,0.0,0.0,0.0,0.0,0.0,0.0,0.0,0.0,0.0,0.0,0.0,0.0,0.0,0.0,0.0,0.0,0.0,0.0,0.0,0.0,0.0,0.0,0.0,0.0,0.0,0.0,0.0,0.0,0.0,0.0,0.0,0.0,0.0,0.0,0.0,0.0,0.0,0.0,0.0,0.0,0.0,0.0,0.0,0.0,0.0,0.0,0.0,0.0,0.0,0.0,0.0,0.0,0.0,0.0,0.0,0.0,0.0,0.0,0.0,0.0,0.0,0.0,0.0,0.0,0.0,0.0,0.0,0.0,0.0,0.0,0.0,0.0,0.0,0.0,0.0,0.0,0.0,0.0,0.0,0.0,0.0,0.0,0.0,0.0,0.0,0.0,0.0,0.0,0.0,0.0,0.0,0.0,0.0,0.0,0.0,0.0,0.0,0.0,0.0,0.0,0.0,0.0,0.0,0.0,0.0,0.0,0.0,0.0,0.0,0.0,0.0,0.0,0.0,0.0,0.0,0.0,0.0,0.0,0.0,0.0,0.0,0.0,0.0,0.0,0.0,0.0,0.0,0.0,0.0,0.0,0.0,0.0,0.0,0.0,0.0,0.0,0.0,0.0,0.0,0.0,0.0,0.0,0.0,0.0,0.0,0.0,0.0,0.0,0.0,0.0,0.0,0.0,0.0,0.0,0.0,0.0,0.0,0.0,0.0,0.0,0.0,0.0,0.0,0.0,0.0,0.0,0.0,0.0,0.0,0.0,0.0,0.0,0.0,0.0,0.0,0.0,0.0,0.0,0.0,0.0,0.0,0.0,0.0,0.0,0.0,0.0,0.0,0.0,0.0,0.0,0.0,0.0,0.0,0.0,0.0,0.0,0.0,0.0,0.0,0.0,0.0,0.0,0.0,0.0,0.0,0.0,0.0,0.0,0.0,0.0,0.0,0.0,0.0,0.0,0.0,0.0,0.0,0.0,0.0,0.0,0.0,0.0,0.0,0.0,0.0,0.0,0.0,0.0,0.0,0.0,0.0,0.0,0.0,0.0,0.0,0.0,0.0,0.0,0.0,0.0,0.0,0.0,0.0,0.0,0.0,0.0,0.0,0.0,0.0,0.0,0.0,0.0,0.0,0.0,0.0,0.0,0.0,0.0,0.0,0.0,0.0,0.0,0.0,0.0,0.0,0.0,0.0,0.0,0.0,0.0,0.0,0.0,0.0,0.0,0.0,0.0,0.0,0.0,0.0,0.0,0.0,0.0,0.0,0.0,0.0,0.0,0.0,0.0,0.0,0.0,0.0,0.0,0.0,0.0,0.0,0.0,0.0,0.0,0.0,0.0,0.0,0.0,0.0,0.0,0.0,0.0,0.0,0.0,0.0,0.0,0.0,0.0,0.0,0.0,0.0,0.0,0.0,0.0,0.0,0.0,0.0,0.0,0.0,0.0,0.0,0.0,0.0,0.0,0.0,0.0,0.0,0.0,0.0,0.0,0.0,0.0,0.0,0.0,0.0,0.0,0.0,0.0,0.0,0.0,0.0,0.0,0.0,0.0,0.0,0.0,0.0,0.0,0.0,0.0,0.0,0.0,0.0,0.0,0.0,0.0,0.0,0.0,0.0,0.0,0.0,0.0,0.0,0.0,0.0,0.0,0.0,0.0,0.0,0.0,0.0,0.0,0.0,0.0,0.0,0.0,0.0,0.0,0.0,0.0,0.0,0.0,0.0,0.0,0.0,0.0,0.0,0.0,0.0,0.0,0.0,0.0,0.0,0.0,0.0,0.0,0.0,0.0,0.0,0.0,0.0,0.0,0.0,0.0,0.0,0.0,0.0,0.0,0.0,0.0,0.0,0.0,0.0,0.0,0.0,0.0,0.0,0.0,0.0,0.0,0.0,0.0,0.0,0.0,0.0,0.0,0.0,0.0,0.0,0.0,0.0,0.0,0.0,0.0,0.0,0.0,0.0,0.0,0.0,0.0,0.0,0.0,0.0,0.0,0.0,0.0,0.0,0.0,0.0,0.0,0.0,0.0,0.0,0.0,0.0,-4.6048,0.0,0.0,0.0,0.0,0.0,0.0,0.0,0.0,0.0,0.0,0.0,0.0,0.0,0.0,0.0,0.0,0.0,0.0,0.0,0.0,0.0,0.0,0.0,0.0,0.0,0.0,0.0,0.0,0.0,0.0,0.0,0.0,0.0,0.0,0.0,0.0,0.0,0.0,0.0,0.0,0.0,0.0,0.0,0.0,0.0,0.0,0.0,0.0,0.0,0.0,0.0,0.0,0.0,0.0,0.0,0.0,0.0,0.0,0.0,0.0,0.0,0.0,0.0,0.0,0.0,0.0,0.0,0.0,0.0,0.0,0.0,0.0,0.0,0.0,0.0,0.0,0.0,0.0,0.0,0.0,0.0,0.0,0.0,0.0,0.0,0.0,0.0,0.0,0.0,0.0,0.0,0.0,0.0,0.0,0.0,0.0,0.0,0.0,0.0,0.0,0.0,0.0,0.0,0.0,0.0,0.0,0.0,0.0,0.0,0.0,0.0,0.0,0.0,0.0,0.0,0.0,-4.5922,0.0,0.0,0.0,0.0,0.0,0.0,0.0,0.0,0.0,0.0,0.0,0.0,0.0,0.0,0.0,0.0,0.0,0.0,0.0,0.0,0.0,0.0,0.0,0.0,0.0,0.0,0.0,0.0,0.0,0.0,0.0,0.0,0.0,0.0,0.0,0.0,0.0,0.0,0.0,0.0,0.0,0.0,0.0,0.0,0.0,0.0,0.0,0.0,0.0,0.0,0.0,0.0,0.0,0.0,0.0,0.0,0.0,0.0,0.0,0.0,0.0,0.0,0.0,0.0,0.0,0.0,0.0,0.0,0.0,0.0,0.0,0.0,0.0,0.0,0.0,0.0,0.0,0.0,0.0,0.0,0.0,0.0,0.0,0.0,0.0,0.0,0.0,0.0,0.0,0.0,0.0,0.0,0.0,0.0,0.0,0.0,0.0,0.0,0.0,0.0,0.0,0.0,0.0,0.0,0.0,0.0,0.0,0.0,-4.6196,-4.6196,-4.6196,-4.6196,-4.6196,-4.6196,-4.6073,-4.6023,-4.5972,-4.5736,0.0,0.0,0.0,0.0,0.0,0.0,0.0,0.0,0.0,0.0,0.0,0.0,0.0,0.0,0.0,0.0,0.0,0.0,0.0,0.0,0.0,0.0,0.0,0.0,0.0,0.0,0.0,0.0,0.0,0.0,0.0,0.0,0.0,0.0,0.0,0.0,0.0,0.0,-4.5592,-4.5692,-4.5344,-4.4723,-4.6114,0.0,0.0,0.0,0.0,0.0,0.0,0.0,0.0,0.0,0.0,0.0,0.0,0.0,0.0,0.0,0.0,0.0,0.0,0.0,0.0,0.0,0.0,0.0,0.0,0.0,0.0,0.0,0.0,0.0,0.0,0.0,0.0,0.0,0.0,0.0,0.0,0.0,0.0,0.0,0.0,0.0,0.0,0.0,-4.6196,-4.6196,0.0,0.0,0.0,0.0,0.0,0.0,0.0,0.0,0.0,0.0,0.0,0.0,0.0,-4.6196,-4.6196,-4.6196,-4.6196,-4.6196,-4.6196,-4.6196,-4.6196,-4.6196,-4.6196,-4.6196,-4.6172,0.0,-4.5998,-4.5821,0.0,0.0,0.0,0.0,0.0,0.0,0.0,0.0,0.0,0.0,0.0,0.0,0.0,0.0,0.0,0.0,0.0,0.0,0.0,0.0,0.0,0.0,0.0,0.0,0.0,0.0,0.0,0.0,0.0,0.0,0.0,0.0,0.0,0.0,0.0,0.0,-4.4092,-4.4731,-4.5168,-4.5168,-4.5003,-4.4752,-4.5862,-4.5908,-4.5165,-4.5873,0.0,0.0,0.0,0.0,0.0,0.0,0.0,0.0,0.0,0.0,0.0,0.0,0.0,0.0,0.0,0.0,0.0,0.0,0.0,0.0,0.0,0.0,0.0,0.0,0.0,0.0,0.0,0.0,0.0,0.0,0.0,0.0,0.0,0.0,0.0,0.0,0.0,0.0,0.0,-4.6196,-4.6196,-4.6196,-4.6048,-4.6023,0.0,0.0,0.0,0.0,0.0,0.0,0.0,0.0,0.0,-4.6196,-4.6196,-4.6196,-4.6196,-4.6196,-4.6196,-4.6196,-4.6196,-4.6196,-4.6196,-4.6196,-4.6196,-4.6196,-4.6196,-4.6172,-4.6097,-4.5972,-4.5871,-4.5795,0.0,0.0,0.0,0.0,-4.5397,-4.5397,0.0,0.0,0.0,0.0,0.0,0.0,0.0,0.0,0.0,0.0,0.0,0.0,0.0,0.0,0.0,-4.172,0.0,0.0,0.0,0.0,0.0,0.0,0.0,0.0,0.0,0.0,0.0,0.0,-4.4929,-4.497,-4.497,-4.497,-4.4962,-4.4886,-4.5452,-4.5142,-4.4235,-4.5117,-4.549,0.0,0.0,0.0,0.0,0.0,0.0,0.0,0.0,0.0,0.0,0.0,0.0,0.0,0.0,0.0,0.0,0.0,0.0,0.0,0.0,0.0,0.0,0.0,0.0,0.0,0.0,0.0,0.0,0.0,0.0,0.0,0.0,0.0,0.0,0.0,0.0,0.0,0.0,-4.6196,-4.6196,-4.6196,-4.6122,-4.6097,0.0,0.0,0.0,0.0,0.0,0.0,-4.6196,-4.6196,-4.6196,-4.6196,-4.6196,-4.6196,-4.6196,-4.6196,-4.6196,-4.6196,-4.6196,-4.6196,-4.6196,-4.6196,-4.6196,-4.6196,-4.6196,-4.6196,-4.6189,-4.6023,-4.5947,-4.5922,-4.5641,-4.5554,-4.5528,-4.5423,-4.5397,-4.5397,0.0,0.0,0.0,0.0,0.0,0.0,0.0,0.0,0.0,0.0,0.0,0.0,0.0,0.0,-4.2077,-4.2077,-4.2381,-4.2428,0.0,0.0,0.0,0.0,0.0,0.0,0.0,0.0,0.0,-4.6743,-4.6079,-4.5732,-4.5732,-4.5732,-4.5613,-4.5379,-4.5396,-4.5527,-4.5744,-4.6692,-4.7096,-4.7153,0.0,0.0,0.0,0.0,0.0,0.0,0.0,0.0,0.0,0.0,0.0,0.0,0.0,0.0,0.0,0.0,0.0,0.0,0.0,0.0,0.0,0.0,0.0,0.0,0.0,0.0,0.0,0.0,0.0,0.0,0.0,0.0,0.0,0.0,0.0,0.0,0.0,0.0,0.0,-4.6196,-4.5854,0.0,0.0,0.0,0.0,-4.6172,-4.6196,-4.6196,-4.6196,-4.6196,-4.6196,-4.6196,-4.6196,-4.6196,-4.6196,-4.6196,-4.6196,-4.6196,-4.6196,-4.6196,-4.6196,-4.6196,-4.6196,-4.6196,-4.6196,-4.6196,-4.6172,-4.5922,-4.5795,-4.577,-4.5528,-4.5397,-4.5397,-4.5397,-4.5397,-4.5397,0.0,0.0,0.0,0.0,0.0,0.0,0.0,0.0,0.0,0.0,0.0,0.0,0.0,-4.172,-4.1785,-4.1785,-4.2061,-4.2126,-4.1785,0.0,0.0,0.0,0.0,0.0,0.0,0.0,-4.5897,-4.6179,-4.5433,-4.5086,-4.5069,-4.4605,-4.4348,-4.4247,-4.4569,-4.4762,-4.488,-4.5802,-4.6155,-4.6209,-4.6699,-4.6712,0.0,0.0,0.0,0.0,0.0,0.0,0.0,0.0,0.0,0.0,0.0,0.0,0.0,0.0,0.0,0.0,0.0,0.0,0.0,0.0,0.0,0.0,0.0,0.0,0.0,0.0,0.0,0.0,0.0,0.0,0.0,0.0,0.0,0.0,0.0,0.0,0.0,-4.6196,-4.6073,0.0,-4.6189,-4.6073,-4.6048,-4.6196,-4.6196,-4.6196,-4.6196,-4.6196,-4.6196,-4.6196,-4.6196,-4.6196,-4.6196,-4.6196,-4.6196,-4.6196,-4.6196,-4.6147,-4.6073,-4.6073,-4.6023,-4.5947,-4.5947,-4.5947,-4.5922,-4.5761,-4.577,-4.5897,-4.5615,-4.5528,-4.5528,-4.5423,-4.5397,-4.5397,0.0,0.0,0.0,0.0,0.0,0.0,0.0,0.0,0.0,0.0,0.0,-4.1588,-4.1588,-4.1687,-4.1785,-4.1785,-4.2061,-4.2142,-4.1785,0.0,0.0,0.0,0.0,0.0,0.0,-4.5832,-4.601,-4.5417,-4.492,-4.4556,-4.4324,-4.3992,-4.3906,-4.4047,-4.453,-4.4807,-4.4971,-4.5555,-4.5709,-4.5632,-4.5947,-4.6048,-4.5998,0.0,0.0,0.0,0.0,0.0,0.0,0.0,0.0,0.0,0.0,0.0,0.0,0.0,0.0,0.0,0.0,0.0,0.0,0.0,0.0,0.0,0.0,0.0,0.0,0.0,0.0,0.0,0.0,0.0,0.0,0.0,0.0,0.0,0.0,0.0,-4.6196,-4.6196,-4.6196,-4.6196,-4.6196,-4.6196,-4.6196,-4.6196,-4.6196,-4.6196,-4.6196,-4.6196,-4.6196,-4.6196,-4.6196,-4.6196,-4.6196,-4.6196,-4.6196,-4.6196,-4.6196,-4.6147,-4.6073,-4.6073,-4.5998,-4.5871,-4.5871,-4.5846,-4.5795,-4.5658,-4.5693,-4.5846,-4.5632,-4.5528,-4.5528,-4.5423,-4.5397,-4.5397,0.0,0.0,0.0,0.0,0.0,0.0,0.0,0.0,0.0,0.0,-4.1588,-4.1588,-4.1588,-4.1883,-4.2077,-4.2077,-4.2381,-4.2428,-4.2109,-4.2077,0.0,0.0,0.0,0.0,-4.5308,-4.5947,-4.5747,-4.4688,-4.4671,-4.4307,-4.3628,-4.408,-4.4502,-4.491,-4.5354,-4.5803,-4.6172,-4.6196,-4.5998,-4.5658,-4.6048,-4.6122,-4.5998,0.0,0.0,0.0,0.0,0.0,0.0,0.0,0.0,0.0,0.0,0.0,0.0,0.0,0.0,0.0,0.0,0.0,0.0,0.0,0.0,0.0,0.0,0.0,0.0,0.0,0.0,0.0,0.0,0.0,0.0,0.0,0.0,0.0,-4.6172,-4.6196,-4.6196,-4.6196,-4.6196,-4.6196,-4.6196,-4.6196,-4.6196,-4.6196,-4.6196,-4.6196,-4.6196,-4.6196,-4.6196,-4.6196,-4.6214,-4.6249,-4.6249,-4.6267,-4.6267,-4.6284,-4.6284,-4.6242,-4.6242,-4.6242,-4.6167,-4.6042,-4.6042,-4.5966,-4.5804,-4.5676,-4.5624,-4.5581,-4.545,-4.5397,-4.5397,-4.5397,-4.5397,-4.5397,0.0,0.0,0.0,0.0,0.0,0.0,0.0,0.0,0.0,0.0,-4.1588,-4.1588,-4.1588,-4.1687,-4.1753,-4.1753,-4.1802,-4.1851,-4.1753,0.0,0.0,0.0,0.0,0.0,-4.5291,-4.5728,-4.5522,-4.4688,-4.4175,-4.378,-4.3598,-4.373,-4.4035,-4.4474,-4.4882,-4.5354,-4.576,-4.6073,-4.6147,-4.603,-4.6147,-4.6172,-4.6122,0.0,0.0,0.0,0.0,0.0,0.0,0.0,0.0,0.0,0.0,0.0,0.0,0.0,0.0,0.0,0.0,0.0,0.0,0.0,0.0,0.0,0.0,0.0,0.0,0.0,0.0,0.0,0.0,0.0,0.0,0.0,0.0,-4.5821,-4.6147,-4.6196,-4.6196,-4.6196,-4.6196,-4.6196,-4.6196,-4.6196,-4.6196,-4.6196,-4.6196,-4.6196,-4.6196,-4.6196,-4.6196,-4.6196,-4.6783,-4.7064,-4.7064,-4.7661,-4.7873,-4.7735,-4.7735,-4.7605,-4.7429,-4.7429,-4.7376,-4.7242,-4.7242,-4.6903,-4.6393,-4.6339,-4.5994,-4.545,-4.5423,-4.5397,-4.5397,-4.5397,-4.5397,-4.5397,0.0,0.0,0.0,0.0,0.0,0.0,0.0,0.0,0.0,0.0,-4.1588,-4.1588,-4.1588,-4.1588,-4.1588,-4.1588,-4.1588,-4.1588,-4.1588,0.0,0.0,0.0,0.0,-4.5372,-4.4595,-4.539,-4.5284,-4.4241,-4.3797,-4.3598,-4.3598,-4.3789,-4.4121,-4.4586,-4.5008,-4.5433,-4.5879,-4.6097,-4.6196,-4.6196,-4.6196,-4.6196,-4.6196,-4.6122,-4.6048,-4.5998,-4.5897,-4.5846,-4.5795,-4.5693,0.0,0.0,0.0,0.0,0.0,0.0,0.0,0.0,0.0,0.0,0.0,0.0,0.0,0.0,0.0,0.0,0.0,0.0,0.0,0.0,0.0,0.0,0.0,0.0,-4.5641,-4.5693,-4.5998,-4.6073,-4.6122,-4.6196,-4.6196,-4.6196,-4.6196,-4.6196,-4.6196,-4.6196,-4.6196,-4.6354,-4.667,-4.6688,-4.6846,-4.7179,-4.7643,-4.7871,-4.7871,-4.8328,-4.8504,-4.8391,-4.8408,-4.8304,-4.8064,-4.8064,-4.7974,-4.7782,-4.7782,-4.7531,-4.7079,-4.7079,-4.6803,0.0,0.0,0.0,0.0,0.0,-4.5397,-4.5397,0.0,0.0,0.0,0.0,0.0,0.0,0.0,0.0,0.0,0.0,0.0,-4.1588,-4.1588,-4.1588,-4.1588,-4.1588,-4.1588,-4.1621,0.0,0.0,0.0,-4.3099,-4.5127,-4.5402,-4.3648,-4.5052,-4.5086,-4.3598,-4.3598,-4.3598,-4.3628,-4.4023,-4.4474,-4.491,-4.5328,-4.576,-4.6196,-4.6196,-4.6196,-4.6196,-4.6196,-4.6196,-4.6196,-4.6196,-4.6122,-4.6023,-4.6023,-4.5947,-4.5846,-4.5821,0.0,0.0,0.0,0.0,0.0,0.0,0.0,0.0,0.0,0.0,0.0,0.0,0.0,0.0,0.0,0.0,0.0,0.0,0.0,0.0,0.0,0.0,0.0,0.0,-4.5581,-4.5615,-4.5744,-4.5871,-4.5998,-4.6147,-4.6172,-4.6172,-4.6172,-4.6196,-4.6249,-4.6319,-4.6337,-4.667,-4.7485,0.0,0.0,0.0,0.0,-4.8635,-4.8635,-4.8749,-4.8758,-4.8758,-4.8793,-4.8715,-4.8522,-4.8522,-4.8379,-4.8142,-4.8142,-4.8035,-4.781,-4.781,-4.7758,-4.7551,-4.619,-4.5604,-4.5535,-4.5535,-4.5483,-4.5397,0.0,0.0,0.0,0.0,0.0,0.0,0.0,0.0,0.0,-4.1588,-4.1588,-4.1588,-4.1588,-4.1588,-4.1588,-4.1588,-4.1588,-4.172,0.0,0.0,-4.3106,-4.3113,-4.4919,-4.5189,-4.3631,-4.5052,-4.5086,-4.3598,-4.3598,-4.3598,-4.3598,-4.3671,-4.4162,-4.4892,-4.4991,-4.5459,-4.6196,-4.6196,-4.6196,-4.6196,-4.6196,-4.6196,-4.6196,-4.6196,-4.6172,-4.6147,-4.6147,-4.6147,-4.6097,-4.5998,-4.5947,-4.5947,-4.5821,0.0,0.0,0.0,0.0,0.0,0.0,0.0,0.0,0.0,0.0,0.0,0.0,0.0,0.0,0.0,0.0,0.0,0.0,0.0,0.0,-4.5423,-4.545,-4.5476,-4.5632,-4.5641,-4.5736,-4.5846,-4.5972,-4.6048,-4.6048,-4.6122,-4.646,-4.7116,-4.7169,-4.7503,-4.8257,-4.8345,-4.8415,-4.8512,-4.9135,-4.9451,-4.9451,-5.0101,-5.0345,-5.0202,0.0,0.0,-4.9823,-4.9823,-4.9756,-4.9591,-4.9591,-4.92,-4.8586,-4.8586,-4.8224,-4.7655,-4.7362,-4.6879,-4.6372,-4.6372,-4.5949,-4.5397,0.0,0.0,0.0,0.0,0.0,0.0,0.0,0.0,0.0,0.0,-4.1588,-4.1588,-4.1588,-4.1588,-4.1588,-4.1588,-4.1753,0.0,0.0,-4.2943,-4.3279,-4.3667,-4.5033,-4.5225,-4.3969,-4.54,-4.5434,-4.3964,-4.3964,-4.3818,-4.3598,-4.3848,-4.4276,-4.491,-4.5169,-4.5606,-4.6196,-4.6196,-4.6196,-4.6196,-4.6196,-4.6196,-4.6196,-4.6196,-4.6196,-4.6196,-4.6196,-4.6196,-4.6196,-4.6122,-4.6097,-4.6097,-4.6023,-4.5947,-4.5871,0.0,0.0,0.0,0.0,0.0,0.0,0.0,0.0,0.0,0.0,0.0,0.0,0.0,0.0,-4.5397,0.0,0.0,-4.5397,-4.5397,-4.5397,-4.5423,-4.5502,-4.5502,-4.5563,-4.5787,-4.5846,-4.6079,-4.6539,-4.665,-4.7058,-4.7906,-4.7959,-4.8293,-4.9065,-4.9118,-4.9311,-4.9697,-5.0083,-5.0294,-5.0294,-5.0697,-5.0846,-5.0747,-5.0747,-5.062,-5.0397,-5.0313,-5.0217,-5.0109,-5.0022,-4.9786,-4.9407,-4.9407,-4.92,-4.8855,-4.8855,-4.8165,-4.7165,-4.7165,-4.6879,-4.6535,0.0,0.0,0.0,0.0,0.0,0.0,0.0,0.0,0.0,0.0,0.0,-4.1588,-4.1588,-4.1588,-4.1588,0.0,0.0,0.0,0.0,-4.3323,-4.3608,-4.4265,-4.5203,-4.5227,-4.4184,-4.5547,-4.5639,-4.431,-4.4378,-4.4236,-4.386,-4.4236,-4.4642,-4.5045,-4.5433,-4.5829,-4.6196,-4.6196,-4.6196,-4.6196,-4.6196,-4.6196,-4.6196,-4.6196,-4.6196,-4.6196,-4.6196,-4.6196,-4.6196,-4.6196,-4.6196,-4.6214,-4.6172,-4.6097,-4.5998,-4.5838,-4.5693,0.0,0.0,0.0,0.0,0.0,0.0,0.0,0.0,0.0,-4.5397,-4.5397,-4.5397,-4.5397,-4.5397,-4.5397,-4.5397,-4.5397,-4.5397,-4.5397,-4.5397,-4.5397,-4.5528,-4.5918,-4.5987,-4.6282,-4.7064,-4.7282,-4.7736,-4.8592,-4.8671,-4.903,-4.9828,-4.9908,-5.0224,-5.0873,-5.1031,-5.1101,-5.1101,-5.1259,-5.1259,-5.1101,-5.1101,-5.0914,-5.0585,-5.0453,-5.0331,-5.0189,-5.0051,-5.0011,-5.0011,-5.0011,-5.0011,-5.0011,-5.0011,-4.9252,-4.8148,-4.7965,-4.781,-4.7689,0.0,0.0,0.0,0.0,0.0,0.0,0.0,0.0,0.0,0.0,0.0,0.0,0.0,0.0,0.0,0.0,0.0,0.0,0.0,-4.3844,-4.4207,-4.431,-4.5043,-4.4888,-4.3687,-4.4884,-4.5105,-4.431,-4.4652,-4.4801,-4.4746,-4.4801,-4.5072,-4.5529,-4.558,-4.5829,-4.6196,-4.6196,-4.6196,-4.6196,-4.6196,-4.6196,-4.6196,-4.6196,-4.6196,-4.6196,-4.6196,-4.6196,-4.6196,-4.6196,-4.6196,-4.6172,-4.6048,-4.6097,-4.6097,-4.5718,0.0,-4.5718,-4.5476,-4.5397,-4.5397,-4.5397,-4.5397,-4.5397,0.0,0.0,-4.5397,-4.5397,-4.5397,-4.5397,-4.5397,-4.5397,-4.5397,-4.5397,-4.5397,-4.5397,-4.5397,-4.5397,-4.5682,-4.6416,-4.6636,-4.6733,-4.682,-4.7533,-4.8327,-4.9147,-4.9325,-4.972,-5.0455,-5.0678,-5.0803,-5.0891,-5.154,-5.1891,-5.1891,-5.2576,-5.2576,-5.1891,-5.1891,-5.1423,-5.0585,-5.0453,-5.0331,-5.0189,-5.0051,-5.0011,-5.0011,-5.0011,-5.0011,-5.0011,-5.0011,-4.9907,-4.9666,-4.893,-4.8258,-4.7689,0.0,0.0,0.0,0.0,0.0,0.0,0.0,0.0,0.0,0.0,0.0,0.0,0.0,0.0,0.0,0.0,0.0,0.0,-4.3276,-4.4157,-4.4652,-4.4652,-4.5354,-4.5433,-4.478,-4.5695,-4.5795,-4.5052,-4.5239,-4.5169,-4.491,-4.5178,-4.5407,-4.5606,-4.5854,-4.6048,-4.6196,-4.6196,-4.6196,-4.6196,-4.6196,-4.6196,-4.6196,-4.6196,-4.6196,-4.6196,-4.6097,-4.6073,0.0,0.0,-4.6023,-4.6073,-4.6023,-4.6048,-4.6023,-4.5795,-4.5693,0.0,-4.545,-4.5397,0.0,0.0,-4.5397,-4.5397,-4.5397,-4.5397,-4.5397,-4.5397,-4.5397,-4.5397,-4.5397,-4.5397,-4.5397,0.0,-4.5397,-4.5397,-4.5397,-4.5793,-4.6207,-4.6562,-4.74,-4.8,-4.8127,-4.8459,-4.9045,-4.9893,-5.0066,-5.048,-5.1249,-5.144,-5.1751,-5.2235,-5.2523,-5.2699,-5.2699,-5.3015,-5.3015,-5.2699,-5.2699,-5.225,-5.1395,-5.1273,-5.0832,-5.0189,-5.0051,-5.0011,-5.0011,-5.0011,-5.0011,-5.0011,-5.0011,-5.0011,-4.9959,-4.9631,-4.9304,-4.9045,0.0,0.0,0.0,0.0,0.0,0.0,0.0,0.0,0.0,0.0,0.0,0.0,0.0,0.0,0.0,0.0,0.0,0.0,0.0,-4.4395,-4.4865,-4.5072,-4.5603,0.0,-4.5398,-4.6056,-4.6135,-4.5606,-4.5727,-4.5606,-4.5258,-4.5606,-4.5778,-4.5778,-4.6073,-4.6196,-4.6196,-4.6196,-4.6196,-4.6196,-4.6196,-4.6196,-4.6196,-4.6196,-4.6172,-4.6122,-4.6023,-4.5998,0.0,0.0,-4.5871,-4.5947,-4.5897,-4.5922,-4.5897,-4.5744,-4.5632,-4.5528,-4.5423,0.0,0.0,-4.5397,-4.5397,-4.5397,-4.5397,-4.5397,-4.5397,-4.5397,-4.5397,-4.5397,-4.5397,-4.5397,0.0,-4.5397,-4.5397,-4.5397,-4.5397,-4.6086,-4.6682,-4.6889,-4.8017,-4.8935,-4.9318,-4.9336,-4.9617,-5.0239,-5.0617,-5.105,-5.1625,-5.2039,-5.2537,-5.3098,-5.3383,-5.3489,-5.3489,-5.3717,-5.3717,-5.3489,-5.3489,-5.3057,-5.2229,-5.185,-5.1117,-5.0149,-5.0051,-5.0011,-5.0011,-5.0011,-5.0011,-5.0011,-5.0011,-5.0011,-5.0011,-5.0011,-5.0011,-5.0011,0.0,0.0,0.0,0.0,0.0,0.0,0.0,0.0,0.0,0.0,0.0,0.0,0.0,0.0,0.0,0.0,0.0,0.0,0.0,-4.4574,-4.4739,-4.5555,-4.5598,-4.5415,-4.4937,-4.5372,-4.5624,-4.5606,-4.598,-4.6172,-4.6147,-4.6172,-4.6172,-4.6172,-4.6196,-4.6196,-4.6196,-4.6196,-4.6196,-4.6196,-4.6196,-4.6196,-4.6196,-4.6196,-4.6122,-4.5998,-4.5998,0.0,0.0,0.0,-4.5795,-4.577,-4.5641,-4.5693,0.0,-4.5502,-4.5397,0.0,0.0,0.0,-4.5397,-4.5397,-4.5397,-4.5397,-4.5397,-4.5397,-4.5397,-4.5397,-4.5397,-4.5397,-4.5397,-4.5397,-4.5397,-4.5397,-4.5397,-4.5397,-4.5397,-4.6086,-4.6872,-4.7569,-4.8327,-4.9103,0.0,-4.9976,-4.9976,-4.9993,-5.0807,-5.1309,-5.1327,-5.23,-5.2874,-5.2909,-5.3789,-5.4279,-5.4279,-5.5051,-5.5051,-5.4279,-5.4279,-5.3771,-5.2857,-5.1772,-5.0858,-5.0011,-5.0011,-5.0011,-5.0011,-5.0011,-5.0011,-5.0011,-5.0011,-5.0011,-5.0011,-5.0011,-5.0011,-5.0011,0.0,0.0,0.0,0.0,0.0,0.0,0.0,0.0,0.0,0.0,0.0,0.0,0.0,0.0,0.0,0.0,0.0,0.0,0.0,-4.5045,-4.5459,-4.5468,-4.5803,-4.593,-4.576,-4.593,-4.5998,-4.5998,-4.6122,-4.6196,-4.6196,-4.6196,-4.6196,-4.6196,-4.6196,-4.6196,-4.6196,-4.6196,-4.6196,-4.6196,-4.6196,-4.6196,-4.6196,-4.6097,-4.6048,-4.5972,0.0,0.0,0.0,0.0,0.0,0.0,-4.5615,-4.5632,0.0,-4.545,-4.5397,-4.5397,0.0,0.0,-4.5397,-4.5397,-4.5397,-4.5397,-4.5397,-4.5397,-4.5397,-4.5397,-4.5397,-4.5397,-4.5397,-4.5397,-4.5397,-4.5397,-4.5397,-4.5397,-4.5397,-4.65,-4.7414,-4.7655,-4.8838,0.0,0.0,0.0,0.0,-5.0011,-5.0812,-5.1523,-5.206,-5.2984,-5.3746,-5.4281,-5.5061,-5.5493,-5.5493,-5.5754,-5.5754,-5.5475,-5.3957,-5.3073,-5.2718,-5.1228,-5.0403,-5.012,-5.0051,-5.0011,-5.0011,-5.0011,-5.0011,-5.0011,-5.0011,-5.0011,-5.0011,-5.0011,-5.0011,-5.0011,0.0,0.0,0.0,0.0,0.0,0.0,0.0,0.0,0.0,0.0,0.0,0.0,0.0,0.0,0.0,0.0,0.0,0.0,0.0,0.0,-4.5546,-4.5546,-4.5922,-4.6122,-4.6122,-4.6172,-4.6196,-4.6196,-4.6196,-4.6196,-4.6196,-4.6196,-4.6196,-4.6196,-4.6196,-4.6196,-4.6196,-4.6196,-4.6347,-4.656,-4.656,-4.6693,-4.6887,-4.6785,-4.6559,0.0,0.0,0.0,0.0,0.0,0.0,0.0,0.0,-4.5528,-4.5502,-4.5423,-4.5397,-4.5397,0.0,-4.5397,-4.5397,-4.5397,-4.5397,-4.5397,-4.5397,-4.5397,-4.5397,-4.5397,-4.5397,-4.5397,-4.5397,-4.5397,-4.5397,-4.5397,-4.5397,-4.5397,-4.5397,-4.6724,-4.7689,-4.7689,-4.9062,0.0,0.0,0.0,0.0,-5.0373,-5.1168,-5.1971,-5.2766,-5.368,-5.4535,-5.5282,-5.5831,-5.6105,-5.6105,-5.6105,-5.5966,-5.5688,-5.3887,-5.2884,-5.2589,-5.1176,-5.0362,-5.012,-5.0022,-5.0011,-5.0011,-5.0011,-5.0011,-5.0011,-5.0011,-5.0011,-5.0011,-5.0011,-5.0011,-5.0011,0.0,0.0,0.0,0.0,0.0,0.0,0.0,0.0,0.0,0.0,0.0,0.0,0.0,0.0,0.0,0.0,0.0,0.0,0.0,0.0,0.0,-4.577,-4.5922,-4.5998,-4.5998,-4.6122,-4.6196,-4.6196,-4.6214,-4.6214,-4.6196,-4.6214,-4.6196,-4.6196,-4.6196,-4.6196,-4.6196,-4.6172,-4.6553,-4.7133,-4.7133,-4.7483,-4.8056,-4.8029,0.0,0.0,0.0,0.0,0.0,0.0,0.0,0.0,0.0,0.0,-4.5397,-4.5397,-4.5397,-4.5397,-4.5397,-4.5397,-4.5397,-4.5397,-4.5397,-4.5397,-4.5397,-4.5397,-4.5397,-4.5397,-4.5397,-4.5397,0.0,0.0,-4.5397,-4.5397,-4.5397,-4.5397,-4.5397,-4.6724,-4.7689,0.0,0.0,0.0,0.0,0.0,0.0,-5.1114,0.0,-5.2532,-5.3356,-5.4271,-5.5109,-5.5819,-5.598,-5.6074,-5.6074,-5.6074,-5.5692,-5.4892,-5.3975,-5.3151,-5.2406,-5.1467,-5.0666,-5.0011,-5.0011,-5.0011,-5.0011,-5.0011,-5.0011,-5.0011,-5.0011,-5.0011,-5.0011,-5.0011,-5.0011,-5.0011,0.0,0.0,0.0,0.0,0.0,0.0,0.0,0.0,0.0,0.0,0.0,0.0,0.0,0.0,0.0,0.0,0.0,0.0,0.0,0.0,0.0,0.0,0.0,0.0,0.0,0.0,0.0,0.0,0.0,-4.6147,-4.6048,-4.6147,-4.6196,-4.6214,-4.6097,-4.6048,-4.6048,-4.5947,-4.5993,-4.6159,0.0,-4.6604,-4.7273,0.0,0.0,0.0,0.0,0.0,0.0,0.0,0.0,0.0,0.0,0.0,-4.5397,-4.5397,0.0,-4.5397,-4.5397,-4.5397,-4.5397,-4.5397,-4.5397,-4.5397,-4.5397,-4.5397,-4.5397,-4.5397,-4.5397,-4.5397,0.0,0.0,0.0,-4.5397,-4.5397,0.0,-4.5397,-4.6724,0.0,0.0,0.0,-5.0011,-5.0011,-5.0011,0.0,0.0,-5.2084,-5.2532,-5.3356,-5.4146,-5.4661,-5.4851,-5.5418,-5.5744,-5.5744,-5.5744,-5.5087,-5.3791,-5.2952,-5.2175,-5.1432,-5.0631,-5.0183,-5.0011,-5.0011,-5.0011,-5.0011,-5.0011,-5.0011,-5.0011,-5.0011,-5.0011,-5.0011,-5.0011,-5.0011,-5.0011,0.0,0.0,0.0,0.0,0.0,0.0,0.0,0.0,0.0,0.0,0.0,0.0,0.0,0.0,0.0,0.0,0.0,0.0,0.0,0.0,0.0,0.0,0.0,0.0,0.0,0.0,0.0,0.0,0.0,0.0,0.0,-4.6023,-4.6023,-4.6023,-4.5947,-4.5897,-4.5897,0.0,0.0,0.0,0.0,0.0,0.0,0.0,0.0,0.0,0.0,0.0,0.0,0.0,0.0,-4.5397,-4.5397,-4.5397,-4.5397,-4.5397,0.0,-4.5397,-4.5397,-4.5397,-4.5397,-4.5397,-4.5397,-4.5397,-4.5397,-4.5397,-4.5397,-4.5397,-4.5397,0.0,0.0,0.0,0.0,0.0,0.0,0.0,-4.5397,-4.6724,-4.7689,0.0,-4.9062,0.0,-5.0011,-5.0011,-5.0493,0.0,-5.1998,-5.2701,-5.3822,-5.4287,-5.4667,-5.4977,-5.5391,-5.5615,-5.5615,-5.4977,-5.4236,-5.3391,-5.227,-5.1481,-5.108,-5.0338,-5.0011,-5.0011,0.0,-5.0011,-5.0011,-5.0011,-5.0011,-5.0011,-5.0011,-5.0011,-5.0011,-5.0011,-5.0011,-5.0011,0.0,0.0,0.0,0.0,0.0,0.0,0.0,0.0,0.0,0.0,0.0,0.0,0.0,0.0,0.0,0.0,0.0,0.0,0.0,0.0,0.0,0.0,0.0,0.0,0.0,0.0,0.0,0.0,0.0,0.0,0.0,0.0,0.0,0.0,0.0,0.0,0.0,0.0,0.0,0.0,0.0,0.0,0.0,0.0,0.0,0.0,0.0,0.0,0.0,0.0,-4.5397,-4.5397,-4.5397,-4.5397,-4.5397,-4.5397,-4.5397,-4.5397,-4.5397,-4.5397,-4.5397,-4.5397,-4.5397,-4.5397,-4.5397,-4.5397,-4.5397,-4.5397,0.0,0.0,-4.5397,0.0,-4.5397,-4.5397,0.0,-4.5397,-4.5397,-4.6724,-4.7689,-4.7689,-4.9062,-5.0011,-5.0011,-5.0011,-5.0321,-5.1045,-5.1701,-5.2735,-5.4287,-5.446,-5.4805,-5.5443,-5.546,-5.5426,-5.5322,-5.4046,-5.3304,-5.308,-5.1752,-5.1063,-5.0942,-5.0304,-5.0011,-5.0011,-5.0011,0.0,-5.0011,-5.0011,-5.0011,-5.0011,-5.0011,-5.0011,-5.0011,-5.0011,-5.0011,-5.0011,0.0,0.0,0.0,0.0,0.0,0.0,0.0,0.0,0.0,0.0,-4.1619,-4.2102,0.0,0.0,0.0,0.0,0.0,0.0,0.0,0.0,0.0,0.0,0.0,0.0,0.0,0.0,0.0,0.0,0.0,0.0,0.0,0.0,0.0,0.0,0.0,0.0,0.0,0.0,0.0,0.0,0.0,0.0,0.0,0.0,0.0,0.0,0.0,0.0,0.0,0.0,-4.5397,-4.5397,-4.5397,-4.5397,-4.5397,-4.5397,-4.5397,-4.5397,-4.5397,-4.5397,-4.5397,-4.5397,-4.5397,-4.5397,-4.5397,-4.5397,0.0,0.0,0.0,-4.5397,-4.5397,-4.5397,0.0,-4.5397,0.0,0.0,0.0,0.0,-4.7689,0.0,0.0,0.0,0.0,0.0,0.0,0.0,0.0,-5.1977,-5.3511,-5.4184,-5.4563,-5.4701,-5.4701,-5.4408,-5.3787,-5.3529,-5.277,-5.1511,-5.1235,-5.0787,-5.02,-5.0062,-5.0011,-5.0011,-5.0011,0.0,-5.0011,-5.0011,-5.0011,-5.0011,-5.0011,-5.0011,-5.0011,-5.0011,-5.0011,-5.0011,0.0,0.0,0.0,0.0,0.0,0.0,0.0,-4.0912,-4.0912,-4.0912,-4.1222,-4.1585,-4.1964,-4.2344,0.0,0.0,0.0,0.0,0.0,0.0,0.0,0.0,0.0,0.0,0.0,0.0,0.0,0.0,0.0,0.0,0.0,0.0,0.0,0.0,0.0,0.0,0.0,0.0,0.0,0.0,0.0,0.0,0.0,0.0,0.0,0.0,0.0,0.0,0.0,0.0,-4.5397,-4.5397,-4.5397,-4.5397,-4.5397,-4.5397,-4.5397,-4.5397,-4.5397,-4.5397,-4.5397,-4.5397,-4.5397,-4.5397,-4.5397,0.0,0.0,0.0,0.0,-4.5397,-4.5397,0.0,0.0,0.0,0.0,0.0,0.0,0.0,0.0,0.0,0.0,0.0,0.0,0.0,0.0,0.0,0.0,-5.1787,-5.3322,-5.4098,-5.4512,-5.4512,-5.4132,-5.377,-5.3408,-5.2597,-5.1839,-5.1114,-5.0718,-5.0355,-5.0011,-5.0011,-5.0011,-5.0011,-5.0011,0.0,-5.0011,-5.0011,-5.0011,-5.004,-5.0302,-5.0415,-5.0453,-5.0739,-5.083,-5.083,0.0,0.0,0.0,0.0,0.0,0.0,0.0,-4.0912,-4.0912,-4.0912,-4.0912,-4.1119,-4.1705,-4.1774,-4.2085,0.0,0.0,0.0,0.0,0.0,0.0,0.0,0.0,0.0,0.0,0.0,0.0,0.0,0.0,0.0,0.0,0.0,0.0,0.0,0.0,0.0,0.0,0.0,0.0,0.0,0.0,0.0,0.0,0.0,0.0,0.0,0.0,0.0,0.0,0.0,-4.5397,-4.5397,-4.5397,-4.5397,-4.5397,-4.5397,-4.5397,-4.5397,-4.5397,-4.5397,-4.5397,-4.5397,-4.5397,-4.5397,-4.5397,-4.5397,0.0,0.0,-4.5397,-4.5397,-4.5397,0.0,0.0,0.0,0.0,0.0,0.0,0.0,0.0,0.0,0.0,0.0,0.0,0.0,0.0,0.0,0.0,0.0,-5.308,-5.3701,-5.4011,-5.4011,-5.346,-5.308,-5.2908,-5.1718,-5.1028,-5.0873,-5.0287,-5.0011,-4.9993,-5.0138,-5.0178,-5.0178,-5.0274,0.0,0.0,-5.0331,-5.0331,-5.0369,-5.0803,-5.0973,-5.1026,-5.1424,-5.1601,-5.1601,0.0,0.0,0.0,0.0,0.0,0.0,0.0,-4.0912,-4.0912,-4.0912,-4.0912,-4.0929,-4.0998,-4.1015,-4.1309,0.0,0.0,0.0,0.0,0.0,0.0,0.0,0.0,0.0,0.0,0.0,0.0,0.0,0.0,0.0,0.0,0.0,0.0,0.0,0.0,0.0,0.0,0.0,0.0,0.0,0.0,0.0,0.0,0.0,0.0,0.0,0.0,0.0,0.0,0.0,0.0,-4.5397,-4.5397,-4.5397,-4.5397,-4.5397,0.0,0.0,-4.5397,-4.5397,-4.5397,-4.5397,-4.5397,-4.5397,-4.5397,0.0,0.0,0.0,-4.5397,-4.5397,-4.5397,-4.5397,-4.5397,0.0,0.0,0.0,0.0,0.0,0.0,0.0,0.0,0.0,0.0,0.0,0.0,0.0,0.0,0.0,-5.227,-5.236,-5.2394,-5.2394,-5.2356,-5.1981,-5.1321,-5.1183,-5.0769,-5.0097,-5.0045,-5.0011,-5.004,-5.0509,-5.0739,-5.0749,-5.1236,0.0,0.0,-5.1449,-5.1449,-5.1467,-5.1518,-5.1543,-5.1525,-5.1576,-5.1601,-5.1601,0.0,0.0,0.0,0.0,0.0,0.0,-4.0825,-4.0912,-4.0912,-4.0912,-4.0912,-4.0912,-4.0912,-4.0912,-4.1015,0.0,0.0,0.0,0.0,0.0,0.0,0.0,0.0,0.0,0.0,0.0,0.0,0.0,0.0,0.0,0.0,0.0,0.0,0.0,0.0,0.0,0.0,0.0,0.0,0.0,0.0,0.0,0.0,0.0,0.0,0.0,0.0,0.0,0.0,0.0,0.0,0.0,-4.5397,-4.5397,0.0,0.0,-4.5397,-4.5397,-4.5397,-4.5397,-4.5397,-4.5397,-4.5397,-4.5397,-4.5397,0.0,0.0,-4.5397,-4.5397,-4.5397,-4.5397,-4.5397,-4.5397,0.0,0.0,0.0,0.0,0.0,0.0,0.0,0.0,0.0,0.0,0.0,0.0,0.0,0.0,0.0,-5.1817,-5.2697,-5.3162,-5.3162,-5.2722,-5.2363,-5.2064,-5.1633,-5.1246,-5.0946,-5.0946,-5.0946,-5.0964,-5.1184,-5.1288,-5.1314,-5.154,0.0,0.0,-5.164,-5.1658,-5.1626,-5.1964,-5.2084,-5.2108,-5.2431,-5.2563,-5.2586,0.0,0.0,0.0,0.0,0.0,-3.9888,-4.0463,-4.0756,-4.0912,-4.0912,-4.0912,-4.0912,-4.0912,-4.0912,-4.0912,-4.0912,0.0,0.0,0.0,0.0,0.0,0.0,0.0,0.0,0.0,0.0,-4.3448,-4.3966,0.0,0.0,0.0,0.0,0.0,0.0,0.0,0.0,0.0,0.0,0.0,0.0,0.0,0.0,0.0,0.0,0.0,0.0,0.0,0.0,0.0,0.0,0.0,0.0,0.0,0.0,0.0,0.0,-4.5397,-4.5397,-4.5397,-4.5397,-4.5397,-4.5397,-4.5397,-4.5397,0.0,0.0,-4.5397,-4.5397,-4.5397,-4.5397,-4.5397,-4.5397,-4.5397,0.0,0.0,0.0,0.0,0.0,0.0,0.0,0.0,0.0,0.0,0.0,0.0,0.0,0.0,0.0,0.0,-5.3061,-5.348,-5.3173,-5.2638,-5.2353,-5.2353,-5.1861,-5.1601,-5.1601,-5.1601,-5.1601,-5.1619,-5.1782,-5.1873,-5.1848,-5.206,0.0,0.0,-5.2125,-5.2119,-5.2108,-5.2495,-5.2654,-5.2702,-5.3085,-5.3251,-5.3293,0.0,0.0,0.0,0.0,0.0,0.0,-3.9715,-4.0394,-4.0912,-4.0912,-4.0912,-4.0912,-4.0912,-4.0912,-4.0912,-4.0912,0.0,0.0,0.0,0.0,0.0,0.0,0.0,0.0,0.0,0.0,-4.3189,-4.3207,-4.3207,-4.3586,0.0,0.0,0.0,0.0,0.0,0.0,0.0,0.0,0.0,0.0,0.0,0.0,0.0,0.0,0.0,0.0,0.0,0.0,0.0,0.0,0.0,0.0,0.0,0.0,0.0,0.0,-4.5397,-4.5397,-4.5397,-4.5397,-4.5397,-4.5397,-4.5397,-4.5397,0.0,0.0,-4.5397,-4.5397,-4.5397,-4.5397,-4.5397,-4.5397,-4.5397,-4.5397,0.0,0.0,0.0,0.0,0.0,0.0,0.0,0.0,0.0,0.0,0.0,0.0,0.0,0.0,0.0,-5.3203,-5.2712,-5.1662,-5.1637,-5.1619,-5.1619,-5.1601,-5.1601,-5.1601,-5.1601,-5.1601,-5.1601,-5.2219,-5.2445,0.0,0.0,0.0,0.0,-5.3185,-5.3185,-5.3185,-5.3185,-5.323,-5.3279,-5.3297,-5.338,-5.3499,0.0,0.0,0.0,0.0,0.0,0.0,0.0,-3.9577,-4.0077,-4.0077,-4.0567,-4.0912,-4.0912,-4.0912,-4.0912,-4.0912,0.0,0.0,0.0,0.0,0.0,0.0,0.0,0.0,0.0,0.0,-4.1878,-4.2378,-4.2378,-4.2792,-4.3552,-4.3692,-4.4247,0.0,0.0,0.0,0.0,0.0,0.0,0.0,0.0,0.0,0.0,0.0,0.0,0.0,0.0,0.0,0.0,0.0,0.0,0.0,0.0,0.0,0.0,0.0,0.0,0.0,-4.5397,-4.5397,-4.5397,-4.5397,-4.5397,-4.5397,-4.5397,-4.5397,-4.5397,-4.5397,-4.5397,-4.5397,-4.5397,-4.5397,-4.5397,-4.5397,0.0,0.0,0.0,0.0,0.0,0.0,0.0,0.0,0.0,0.0,0.0,0.0,0.0,0.0,0.0,-5.3185,-5.3039,-5.2717,-5.2676,-5.2676,-5.2676,-5.2676,-5.2676,-5.2676,-5.2676,-5.2676,-5.2717,-5.2893,0.0,0.0,0.0,0.0,0.0,-5.3355,-5.3357,-5.3274,-5.3357,-5.3418,-5.344,-5.344,-5.3461,-5.3519,0.0,0.0,0.0,0.0,0.0,0.0,0.0,-3.8801,-3.937,-3.9664,-4.0129,-4.0567,-4.0877,-4.0912,-4.0912,-4.0912,0.0,0.0,0.0,0.0,0.0,0.0,0.0,0.0,-4.0912,-4.0912,-4.1119,-4.1585,-4.1585,-4.1981,-4.2741,-4.292,-4.3471,-4.4349,-4.4994,0.0,0.0,0.0,0.0,0.0,0.0,0.0,-4.5693,0.0,0.0,0.0,0.0,0.0,0.0,0.0,0.0,0.0,0.0,0.0,0.0,0.0,-4.5397,0.0,0.0,-4.5397,-4.5397,-4.5397,-4.5397,0.0,0.0,-4.5563,-4.5641,-4.545,-4.5563,-4.5641,-4.545,-4.5397,-4.5397,-4.5397,0.0,0.0,0.0,0.0,0.0,0.0,0.0,0.0,0.0,0.0,0.0,0.0,0.0,0.0,0.0,-5.3185,-5.3185,-5.3185,-5.3185,-5.3185,-5.3185,-5.3185,-5.3185,-5.3185,-5.3185,-5.3185,-5.3185,-5.323,0.0,0.0,0.0,0.0,0.0,-5.3359,-5.34,-5.338,-5.3479,-5.3519,-5.3578,-5.3578,-5.3579,-5.3638,0.0,0.0,0.0,0.0,0.0,0.0,0.0,-3.8025,-3.8767,-3.9439,-3.9629,-3.9974,-4.0739,-4.0877,-4.0912,-4.0912,0.0,0.0,0.0,0.0,0.0,0.0,0.0,0.0,-4.0912,-4.0912,-4.0912,-4.0912,-4.0912,-4.1257,-4.193,-4.2376,-4.2771,-4.322,-4.4839,-4.5147,-4.4483,-4.513,-4.5693,-4.6087,-4.5589,-4.5693,0.0,0.0,0.0,0.0,0.0,0.0,0.0,0.0,0.0,0.0,0.0,0.0,0.0,0.0,0.0,0.0,0.0,0.0,0.0,0.0,0.0,0.0,0.0,-4.5803,0.0,-4.5563,-4.5879,-4.6087,-4.5589,-4.5528,-4.5502,-4.5476,0.0,0.0,0.0,0.0,0.0,0.0,0.0,0.0,0.0,0.0,0.0,0.0,0.0,0.0,0.0,-5.3185,-5.3185,-5.3185,-5.3185,-5.3185,-5.3185,-5.3185,-5.3185,-5.3185,-5.3185,-5.3185,-5.3206,-5.3274,0.0,0.0,0.0,0.0,0.0,-5.332,-5.34,-5.3519,-5.3519,-5.3598,-5.3714,-5.3714,-5.3735,-5.3813,0.0,0.0,0.0,0.0,0.0,0.0,0.0,0.0,0.0,0.0,-3.8991,-3.9767,-3.9957,-4.0549,-4.0912,0.0,0.0,0.0,0.0,0.0,0.0,0.0,0.0,0.0,-4.0912,-4.0912,-4.0912,-4.0912,-4.0912,-4.0998,-4.117,-4.1254,-4.1864,-4.2859,-4.3879,-4.4853,-4.5743,-4.552,-4.5476,-4.5589,-4.545,-4.5476,0.0,0.0,0.0,0.0,-4.5854,-4.5752,0.0,0.0,0.0,0.0,0.0,0.0,0.0,0.0,-4.5397,-4.5397,-4.5397,0.0,-4.5397,-4.5397,-4.5397,-4.5397,0.0,-4.5803,-4.6161,0.0,0.0,0.0,-4.656,0.0,0.0,0.0,0.0,0.0,0.0,0.0,0.0,0.0,0.0,0.0,0.0,0.0,0.0,0.0,0.0,0.0,0.0,-5.3185,-5.3185,-5.3185,-5.3185,-5.3185,-5.3185,-5.3185,-5.3185,-5.3185,-5.3185,-5.3185,-5.3185,-5.3227,0.0,0.0,0.0,0.0,-5.3461,-5.3558,-5.3616,-5.3656,-5.3697,-5.3755,-5.3793,-5.3793,-5.3793,-5.3813,0.0,0.0,0.0,0.0,0.0,0.0,0.0,0.0,0.0,0.0,0.0,0.0,0.0,0.0,0.0,0.0,0.0,0.0,0.0,0.0,0.0,0.0,0.0,-4.0912,-4.0912,-4.0912,-4.0989,-4.1186,-4.1186,-4.1186,-4.1186,-4.1186,-4.1418,-4.1945,-4.3296,-4.4665,-4.5976,-4.583,-4.5752,-4.5744,-4.5502,0.0,0.0,0.0,0.0,0.0,-4.5727,-4.5641,0.0,-4.5693,-4.5589,-4.545,0.0,0.0,0.0,0.0,-4.5397,-4.5397,-4.5397,-4.5589,-4.5752,-4.5752,-4.5938,-4.602,-4.5829,0.0,0.0,0.0,0.0,0.0,0.0,0.0,0.0,0.0,0.0,0.0,0.0,0.0,0.0,0.0,0.0,0.0,0.0,0.0,0.0,0.0,0.0,0.0,0.0,-5.3185,-5.3185,-5.3185,-5.3185,-5.3185,-5.3185,-5.3185,-5.3185,-5.3185,-5.3185,-5.3185,-5.3206,-5.323,-5.3274,0.0,0.0,0.0,-5.3598,-5.3656,-5.3715,-5.3754,-5.3793,-5.3813,-5.3813,-5.3813,-5.3813,-5.3813,0.0,0.0,0.0,0.0,0.0,0.0,0.0,0.0,0.0,0.0,0.0,0.0,0.0,0.0,0.0,0.0,0.0,0.0,0.0,0.0,0.0,0.0,0.0,-4.0912,-4.0912,-4.0965,-4.1163,-4.1494,-4.1561,-4.1604,-4.1604,-4.1516,-4.138,-4.1237,-4.308,-4.4511,-4.5614,-4.6028,-4.6161,-4.6038,-4.5589,0.0,0.0,0.0,0.0,0.0,0.0,0.0,0.0,-4.593,-4.5778,-4.5476,-4.5912,0.0,0.0,0.0,0.0,0.0,-4.5537,-4.5963,-4.6387,-4.6235,-4.6537,-4.6794,-4.6387,0.0,0.0,0.0,0.0,0.0,0.0,0.0,0.0,0.0,0.0,0.0,0.0,0.0,0.0,0.0,0.0,0.0,0.0,0.0,0.0,0.0,0.0,0.0,0.0,-5.3185,-5.3185,-5.3185,-5.3185,-5.3185,-5.3185,-5.3185,-5.3185,-5.3185,-5.3206,-5.3227,-5.3227,-5.3295,-5.3339,-5.3359,0.0,0.0,-5.3715,-5.3715,-5.3735,-5.3813,-5.3813,-5.3813,-5.3813,-5.3813,-5.3813,-5.3813,0.0,0.0,0.0,0.0,0.0,0.0,0.0,0.0,0.0,0.0,0.0,0.0,0.0,0.0,0.0,0.0,0.0,0.0,0.0,0.0,0.0,-4.1987,-4.13,-4.0912,-4.0912,-4.1237,-4.1445,-4.1494,-4.1906,-4.2095,-4.2074,-4.1692,-4.1818,-4.2473,-4.3465,-4.432,-4.5058,-4.5877,-4.5955,-4.5528,-4.5423,0.0,0.0,0.0,0.0,0.0,0.0,0.0,0.0,-4.5502,-4.5476,-4.5423,-4.5502,0.0,0.0,0.0,0.0,0.0,-4.6186,-4.6707,-4.7186,-4.6411,-4.6537,-4.6886,-4.6817,0.0,0.0,0.0,0.0,0.0,0.0,0.0,0.0,0.0,0.0,0.0,0.0,0.0,0.0,0.0,0.0,0.0,0.0,0.0,0.0,0.0,0.0,0.0,0.0,-5.3185,-5.3185,-5.3185,-5.3185,-5.3185,-5.3185,-5.3185,-5.3185,-5.3185,-5.3254,-5.3277,-5.3277,-5.34,-5.3519,-5.3636,0.0,-5.3696,-5.3774,-5.3774,-5.3793,-5.3813,-5.3813,-5.3813,-5.3813,-5.3813,-5.3813,-5.3813,0.0,0.0,0.0,0.0,0.0,0.0,0.0,0.0,0.0,0.0,0.0,0.0,0.0,0.0,0.0,0.0,0.0,0.0,0.0,0.0,0.0,-4.2198,-4.1578,-4.1351,-4.16,-4.1534,-4.1778,-4.2304,-4.2539,-4.2637,-4.2617,-4.1864,-4.182,-4.2487,-4.3735,-4.4422,-4.4767,-4.6047,-4.6291,-4.5829,0.0,0.0,0.0,0.0,0.0,0.0,0.0,0.0,0.0,0.0,-4.602,-4.5879,-4.6119,0.0,0.0,0.0,0.0,0.0,-4.6631,-4.7093,-4.7506,-4.7053,-4.7313,-4.7588,-4.7335,0.0,0.0,0.0,0.0,0.0,0.0,0.0,0.0,0.0,0.0,0.0,0.0,0.0,0.0,0.0,0.0,0.0,0.0,0.0,0.0,0.0,0.0,0.0,0.0,0.0,-5.3375,-5.3375,-5.3375,-5.3375,-5.3375,-5.2931,-5.2911,-5.3254,-5.3359,-5.34,-5.34,-5.3558,-5.3636,-5.3714,0.0,-5.3755,-5.3813,-5.3813,-5.3813,-5.3813,-5.3813,-5.3813,-5.3813,-5.3813,-5.3813,-5.3813,0.0,0.0,0.0,0.0,0.0,0.0,0.0,0.0,0.0,0.0,0.0,0.0,0.0,0.0,0.0,0.0,0.0,0.0,0.0,0.0,-4.2769,-4.2519,-4.1969,-4.1821,-4.2177,-4.1842,-4.2098,-4.2977,-4.3069,-4.3069,-4.2958,-4.218,-4.2118,-4.2718,-4.4118,-4.4835,-4.5047,-4.6458,-4.6794,-4.6363,0.0,0.0,0.0,0.0,0.0,0.0,0.0,0.0,0.0,0.0,0.0,0.0,0.0,0.0,0.0,-4.6235,-4.6701,-4.7204,-4.7093,-4.7399,-4.7775,-4.7775,0.0,-4.8209,-4.7836,0.0,0.0,0.0,0.0,0.0,0.0,0.0,0.0,0.0,0.0,0.0,0.0,0.0,0.0,0.0,0.0,0.0,0.0,0.0,0.0,0.0,0.0,0.0,0.0,0.0,-5.3407,-5.3222,-5.3222,-5.313,-5.2927,-5.2337,-5.239,-5.3064,-5.2981,-5.2966,-5.2966,-5.3101,-5.3159,-5.3159,-5.3217,-5.3237,-5.3237,-5.3237,-5.3237,-5.3237,-5.3237,-5.3237,-5.3237,-5.3237,-5.3237,-5.3237,0.0,0.0,0.0,0.0,0.0,0.0,0.0,0.0,0.0,0.0,0.0,0.0,0.0,0.0,0.0,0.0,0.0,0.0,0.0,0.0,-4.305,-4.3392,-4.2598,-4.2157,-4.2198,-4.2157,-4.2398,-4.2901,-4.3286,-4.3268,-4.2901,-4.2844,-4.3223,-4.4002,-4.4854,-4.5633,-4.6316,-4.7187,-4.727,-4.684,-4.684,0.0,0.0,0.0,0.0,0.0,0.0,0.0,0.0,0.0,0.0,0.0,0.0,0.0,-4.6771,-4.6332,-4.7138,-4.8094,-4.7653,-4.7877,-4.8248,-4.8248,-4.8287,0.0,-4.8267,-4.8892,0.0,-4.9461,0.0,0.0,0.0,0.0,0.0,0.0,0.0,0.0,0.0,0.0,0.0,0.0,0.0,0.0,0.0,0.0,0.0,0.0,0.0,0.0,0.0,0.0,0.0,-5.241,-5.2391,-5.2022,-5.1283,-5.1267,-5.1656,-5.2373,-5.1693,-5.1361,-5.1379,-5.151,-5.1565,-5.1565,-5.1565,-5.1565,-5.1565,-5.1565,-5.1565,-5.1565,-5.1565,-5.1565,-5.1565,-5.1565,-5.1565,-5.1565,0.0,0.0,0.0,0.0,0.0,0.0,0.0,0.0,0.0,0.0,0.0,0.0,0.0,0.0,0.0,0.0,0.0,0.0,0.0,-4.3268,-4.3339,-4.3479,-4.2939,-4.2751,-4.2995,-4.2769,-4.2902,-4.3463,-4.3618,-4.3618,-4.3445,-4.3087,-4.3449,-4.4492,-4.5048,-4.5709,-4.6447,-4.7265,-4.7335,-4.6931,-4.7226,-4.7226,0.0,0.0,0.0,0.0,0.0,0.0,0.0,0.0,-4.7026,-4.6649,0.0,-4.6747,-4.6863,-4.6678,-4.7439,-4.8267,-4.8075,-4.8556,-4.9095,-4.9095,-4.9481,0.0,0.0,-4.9738,-5.0343,-5.0343,0.0,0.0,0.0,0.0,0.0,0.0,0.0,0.0,0.0,0.0,0.0,0.0,0.0,0.0,0.0,0.0,0.0,0.0,0.0,0.0,0.0,0.0,0.0,-5.1751,-5.1732,-5.1584,-5.1287,-5.0787,-5.0657,-5.0954,-5.1213,-5.1324,-5.1343,-5.138,-5.1398,-5.1398,-5.1398,-5.1398,-5.1398,-5.1398,-5.1398,-5.1398,-5.1398,-5.1398,-5.1398,-5.1398,-5.1398,-5.1398,0.0,0.0,0.0,0.0,0.0,0.0,0.0,0.0,0.0,0.0,0.0,0.0,0.0,0.0,0.0,0.0,0.0,0.0,-4.3479,-4.3515,-4.3515,-4.3515,-4.325,-4.3232,-4.3479,-4.3232,-4.3286,-4.3703,-4.3703,-4.3703,-4.3703,-4.3286,-4.3798,-4.5095,-4.5367,-4.6053,-4.7052,-4.7579,-4.765,-4.7356,-4.7692,-4.7715,0.0,0.0,0.0,0.0,0.0,0.0,0.0,0.0,0.0,0.0,0.0,0.0,0.0,0.0,-4.7692,-4.8361,-4.8636,-4.9132,-4.9665,0.0,0.0,0.0,-5.0492,0.0,0.0,0.0,0.0,0.0,0.0,0.0,0.0,0.0,0.0,0.0,0.0,0.0,0.0,0.0,0.0,0.0,0.0,0.0,0.0,0.0,0.0,0.0,0.0,0.0,0.0,0.0,-5.1008,-5.0878,-5.0618,-5.0023,-4.9726,-4.9745,-5.0339,-5.0618,-5.0618,-5.0618,-5.0618,-5.0618,-5.0618,-5.0618,-5.0618,-5.0618,-5.0618,-5.0618,-5.0618,-5.0618,-5.0618,-5.0618,-5.0618,-5.0618,0.0,0.0,0.0,0.0,0.0,0.0,0.0,0.0,0.0,0.0,0.0,0.0,0.0,0.0,0.0,0.0,0.0,0.0,-4.3515,-4.3515,-4.3515,-4.3515,-4.3515,-4.3515,-4.3515,-4.3515,-4.3515,-4.3515,-4.3515,-4.3515,-4.3515,-4.3515,-4.436,-4.5902,-4.5902,-4.6801,-4.8306,-4.8306,-4.8306,-4.8306,-4.8306,-4.8015,-4.7653,0.0,0.0,0.0,0.0,0.0,0.0,0.0,-4.7995,0.0,0.0,0.0,0.0,0.0,-4.7917,-4.8489,-4.9353,-4.9592,0.0,0.0,0.0,0.0,0.0,0.0,0.0,0.0,0.0,0.0,0.0,0.0,0.0,0.0,0.0,0.0,0.0,0.0,0.0,0.0,0.0,0.0,0.0,0.0,0.0,0.0,0.0,0.0,0.0,0.0,0.0,0.0,-5.0116,-4.9707,-4.8909,-4.8909,-4.8909,-4.8909,-4.8909,-4.8909,-4.8909,-4.8909,-4.8909,-4.8909,-4.8909,-4.8909,-4.8909,-4.8909,-4.8909,-4.8909,-4.8909,-4.8909,-4.8909,-4.8909,-4.8909,-4.8909,0.0,0.0,0.0,0.0,0.0,0.0,0.0,0.0,0.0,0.0,0.0,0.0,0.0,0.0,0.0,0.0,0.0,0.0,-4.3515,-4.3515,-4.3515,-4.3515,-4.3515,-4.3515,-4.3515,-4.3566,-4.3565,-4.3565,-4.3565,-4.3565,-4.3583,-4.4102,-4.4911,-4.592,-4.6489,-4.7314,-4.8306,-4.8306,-4.8306,-4.8306,-4.8306,-4.8229,-4.8075,0.0,0.0,0.0,0.0,0.0,0.0,0.0,0.0,0.0,0.0,0.0,0.0,-4.7611,-4.7917,-4.8361,-4.8618,-4.9132,0.0,0.0,0.0,0.0,0.0,0.0,0.0,0.0,0.0,0.0,0.0,0.0,0.0,0.0,0.0,0.0,0.0,0.0,0.0,0.0,0.0,0.0,0.0,0.0,0.0,0.0,0.0,0.0,0.0,0.0,0.0,0.0,-4.928,-4.915,-4.8909,-4.8909,-4.8909,-4.8909,-4.8909,-4.8909,-4.8909,-4.8909,-4.8909,-4.8909,-4.8909,-4.8909,-4.8909,-4.8909,-4.8909,-4.8909,-4.8909,-4.8909,-4.8909,-4.8909,-4.8909,-4.8909,0.0,0.0,0.0,0.0,0.0,0.0,0.0,0.0,0.0,0.0,0.0,0.0,0.0,0.0,0.0,0.0,0.0,0.0,0.0,-4.3515,-4.3515,-4.3515,-4.3515,-4.3496,-4.3531,-4.3634,-4.3667,-4.3667,-4.3634,-4.3599,-4.3617,-4.4358,-4.5131,-4.5938,-4.6727,-4.7553,-4.8306,-4.8306,-4.8306,-4.8306,-4.8306,-4.8306,-4.8267,0.0,0.0,0.0,0.0,0.0,0.0,0.0,0.0,0.0,0.0,0.0,0.0,-4.7877,-4.8093,-4.8379,-4.8728,0.0,0.0,0.0,0.0,0.0,0.0,0.0,0.0,0.0,0.0,0.0,0.0,0.0,0.0,0.0,0.0,0.0,0.0,0.0,0.0,0.0,0.0,0.0,0.0,0.0,0.0,0.0,0.0,0.0,0.0,0.0,0.0,0.0,-4.8909,-4.8909,-4.8909,-4.8909,-4.8909,-4.8909,-4.8909,-4.8909,-4.8909,-4.8909,-4.8909,-4.8909,-4.8909,-4.8909,-4.8909,-4.8909,-4.8909,-4.8909,-4.8909,-4.8909,-4.8909,-4.8909,-4.8909,-4.8909,0.0,0.0,0.0,0.0,0.0,0.0,0.0,0.0,0.0,0.0,0.0,0.0,0.0,0.0,0.0,0.0,0.0,0.0,0.0,0.0,-4.3515,-4.3515,-4.3515,-4.3566,-4.3615,-4.3753,-4.382,-4.382,-4.3667,-4.3635,-4.3727,-4.4469,-4.5241,-4.6049,-4.6837,-4.7608,-4.8306,-4.8306,-4.8306,-4.8306,-4.8306,-4.8306,-4.8306,-4.8306,0.0,0.0,0.0,0.0,0.0,0.0,0.0,0.0,0.0,0.0,-4.8306,-4.8306,-4.8306,-4.8471,0.0,0.0,0.0,0.0,0.0,0.0,0.0,0.0,0.0,0.0,0.0,0.0,0.0,0.0,0.0,0.0,0.0,0.0,0.0,0.0,0.0,0.0,0.0,0.0,0.0,0.0,0.0,0.0,0.0,0.0,0.0,0.0,0.0,-4.8909,-4.8909,-4.8909,-4.8909,-4.8909,-4.8909,-4.8909,-4.8909,-4.8909,-4.8909,-4.8909,-4.8909,-4.8909,-4.8909,-4.8909,-4.8909,-4.8909,-4.8909,-4.8909,-4.8909,-4.8909,-4.8909,-4.8909,-4.8909,-4.8909,0.0,0.0,0.0,0.0,0.0,0.0,0.0,0.0,0.0,0.0,0.0,0.0,0.0,0.0,0.0,0.0,0.0,0.0,0.0,0.0,-4.3515,-4.3515,-4.3548,-4.3667,-4.3832,-4.3849,-4.3897,-4.3961,-4.3716,-4.393,-4.4556,-4.5295,-4.6085,-4.6874,-4.7681,-4.8141,-4.8306,-4.8306,-4.8306,-4.8306,-4.8306,-4.8306,-4.8306,-4.8306,-4.8306,0.0,0.0,0.0,0.0,0.0,0.0,0.0,-4.8306,-4.8306,-4.8306,-4.8306,-4.8306,-4.8343,0.0,0.0,0.0,0.0,0.0,0.0,0.0,0.0,0.0,0.0,0.0,0.0,0.0,0.0,0.0,0.0,0.0,0.0,0.0,0.0,0.0,0.0,0.0,0.0,0.0,0.0,0.0,0.0,0.0,0.0,0.0,0.0,0.0,-4.8909,-4.8909,-4.8909,-4.8909,-4.8909,-4.8909,0.0,-4.8909,-4.8909,-4.8909,-4.8909,-4.8909,-4.8909,-4.8909,-4.8909,-4.8909,-4.8909,-4.8909,-4.8909,-4.8909,-4.8909,-4.8909,-4.8909,-4.8909,-4.8909,0.0,0.0,0.0,0.0,0.0,0.0,0.0,0.0,0.0,0.0,0.0,0.0,0.0,0.0,0.0,0.0,0.0,0.0,0.0,0.0,-4.3496,-4.3566,-4.3634,-4.3751,-4.3915,-4.3929,-4.3958,-4.4005,-4.4188,-4.4477,-4.4901,-4.5642,-4.6379,-4.7131,-4.7938,-4.8306,-4.8306,-4.8306,-4.8306,-4.8306,-4.8306,-4.8306,-4.8306,-4.8306,-4.8306,-4.8306,-4.8306,0.0,0.0,0.0,0.0,0.0,0.0,0.0,-4.8306,-4.8306,-4.8306,-4.8306,0.0,0.0,0.0,0.0,0.0,0.0,0.0,0.0,0.0,0.0,0.0,0.0,0.0,0.0,0.0,0.0,0.0,0.0,0.0,0.0,0.0,0.0,0.0,0.0,0.0,0.0,0.0,0.0,0.0,0.0,0.0,-4.9466,-4.9299,-4.8909,-4.8909,-4.8909,-4.8909,-4.9061,-4.9144,-4.9144,-4.9283,-4.9343,-4.9327,-4.9025,-4.8909,-4.8909,-4.8909,-4.8909,-4.8909,-4.8909,-4.8909,-4.8909,-4.8909,-4.8909,-4.8909,-4.8909,-4.8909,-4.8909,0.0,0.0,0.0,0.0,0.0,0.0,0.0,0.0,0.0,0.0,0.0,0.0,0.0,0.0,0.0,0.0,0.0,0.0,0.0,0.0,0.0,-4.3634,-4.3753,-4.3851,-4.3913,-4.3974,-4.4005,-4.4005,-4.4566,-4.4964,0.0,-4.5952,-4.6636,-4.7333,-4.8012,-4.8306,-4.8306,-4.8306,-4.8306,-4.8306,-4.8306,-4.8306,-4.8306,-4.8306,-4.8306,-4.8306,-4.8306,-4.8306,-4.8306,-4.8306,0.0,0.0,0.0,0.0,-4.8306,-4.8306,-4.8306,-4.8306,0.0,0.0,0.0,0.0,0.0,0.0,0.0,0.0,0.0,0.0,0.0,0.0,0.0,0.0,0.0,0.0,0.0,0.0,0.0,0.0,0.0,0.0,0.0,0.0,0.0,0.0,0.0,0.0,0.0,0.0,-5.0358,-5.032,-5.0059,-4.944,-4.9421,-4.9437,-4.9486,-4.9762,-4.9845,-4.9695,-4.9769,-4.9803,-4.9771,-4.928,-4.9059,-4.9059,-4.9059,-4.9059,-4.9059,-4.9059,-4.9059,-4.9059,-4.9059,-4.9059,-4.9059,-4.9059,-4.9059,-4.9059,0.0,0.0,0.0,0.0,0.0,0.0,0.0,0.0,0.0,0.0,0.0,0.0,0.0,0.0,0.0,0.0,0.0,0.0,0.0,0.0,0.0,-4.3771,-4.3851,-4.3913,-4.3989,-4.4005,-4.4005,-4.4005,-4.4085,0.0,0.0,0.0,0.0,-4.8141,-4.8251,-4.8306,-4.8306,-4.8306,-4.8306,-4.8306,-4.8306,-4.8306,-4.8306,-4.8306,-4.8306,-4.8306,-4.8306,-4.8306,-4.8306,-4.8306,-4.8306,0.0,0.0,0.0,-4.8306,-4.8306,-4.8306,0.0,0.0,0.0,0.0,0.0,0.0,0.0,0.0,0.0,0.0,0.0,0.0,0.0,0.0,0.0,0.0,0.0,0.0,0.0,0.0,0.0,0.0,0.0,0.0,0.0,0.0,0.0,0.0,0.0,0.0,0.0,-5.1231,-5.1231,-5.1317,-5.149,-5.1506,-5.1613,-5.184,-5.1888,-5.1557,-5.0856,-5.0144,-4.9803,-4.9803,-4.9721,-4.9693,-4.9693,-4.9693,-4.9693,-4.9693,-4.9693,-4.9693,-4.9693,-4.9693,-4.9693,-4.9693,-4.9693,-4.9693,-4.9693,0.0,0.0,0.0,0.0,0.0,0.0,0.0,0.0,0.0,0.0,0.0,0.0,0.0,0.0,0.0,-4.3515,0.0,0.0,0.0,0.0,0.0,-4.3788,-4.3837,-4.3881,-4.4005,-4.4151,-4.4151,-4.4005,0.0,0.0,0.0,-4.6265,-4.7224,0.0,0.0,0.0,-4.8306,0.0,0.0,-4.8306,-4.8306,-4.8306,-4.8306,-4.8306,-4.8306,-4.8306,-4.8306,-4.8306,-4.8306,-4.8306,-4.8306,-4.8306,-4.8306,0.0,0.0,0.0,-4.8306,0.0,0.0,0.0,0.0,0.0,0.0,0.0,0.0,0.0,0.0,0.0,0.0,0.0,0.0,0.0,0.0,0.0,0.0,0.0,0.0,0.0,0.0,0.0,0.0,0.0,0.0,0.0,0.0,0.0,0.0,-5.1193,-5.0711,-5.0849,-5.0811,-5.0504,-5.0651,-5.0775,-5.0897,-5.1058,-5.1255,-5.1545,-5.1151,-5.1228,-5.1717,-5.1717,-5.1008,-4.9803,-4.9803,-4.9803,-4.9803,-4.9803,-4.9803,-4.9803,-4.9803,-4.9803,-4.9803,-4.9803,-4.9803,-4.9803,0.0,0.0,0.0,0.0,0.0,0.0,0.0,0.0,0.0,0.0,0.0,0.0,0.0,0.0,0.0,0.0,-4.3515,0.0,0.0,0.0,0.0,-4.3788,-4.3818,-4.3915,-4.4005,-4.4246,-4.4279,-4.4005,0.0,0.0,-4.5038,-4.5683,-4.6614,0.0,-4.807,-4.8217,0.0,0.0,0.0,0.0,-4.8306,-4.8306,-4.8306,-4.8343,-4.8363,-4.8363,-4.8363,-4.8363,-4.8343,-4.8306,-4.8306,-4.8306,-4.8306,-4.8306,0.0,0.0,0.0,0.0,0.0,0.0,0.0,0.0,0.0,0.0,0.0,0.0,0.0,0.0,0.0,0.0,0.0,0.0,0.0,0.0,0.0,0.0,0.0,0.0,0.0,0.0,0.0,0.0,0.0,0.0,0.0,0.0,0.0,-5.1119,-5.0469,-5.0658,-5.056,-5.0053,-5.0293,-5.047,-5.055,-5.061,-5.1056,-5.1904,-5.1692,-5.1952,-5.2568,-5.2568,-5.1639,-5.0044,-5.0253,-5.0234,-5.0025,-5.0025,-5.0025,-5.0025,-5.0025,-5.0025,-5.0025,-5.0025,-5.0025,-5.0025,0.0,0.0,0.0,0.0,0.0,0.0,0.0,0.0,0.0,0.0,0.0,0.0,-4.3515,-4.3515,-4.3515,-4.3515,-4.3515,-4.3515,-4.3515,-4.3686,0.0,-4.3804,-4.3929,0.0,-4.4005,-4.4246,-4.4279,0.0,0.0,0.0,-4.5084,-4.5275,-4.5658,-4.6248,-4.7022,-4.7702,-4.8306,0.0,0.0,0.0,0.0,-4.8306,-4.8306,-4.8438,-4.8494,-4.8494,-4.8494,-4.8494,-4.8457,-4.8325,-4.8306,-4.8306,-4.8306,-4.8306,-4.8306,0.0,0.0,0.0,0.0,0.0,0.0,0.0,0.0,0.0,0.0,0.0,0.0,0.0,0.0,0.0,0.0,0.0,0.0,0.0,0.0,0.0,0.0,0.0,0.0,0.0,0.0,0.0,0.0,0.0,0.0,0.0,0.0,-5.1379,-5.1323,-5.1342,-5.1483,-5.1759,-5.2027,-5.2325,-5.2633,-5.2097,-5.1836,-5.1885,-5.1125,-5.0789,-5.0827,-5.0827,-5.0769,-5.0692,-5.1451,-5.1365,-5.0653,-5.0653,-5.0653,-5.0653,-5.0653,-5.0653,-5.0653,-5.0653,-5.0653,-5.0653,0.0,0.0,0.0,0.0,0.0,0.0,0.0,0.0,0.0,0.0,0.0,0.0,0.0,-4.3515,-4.3515,-4.3515,-4.3515,-4.3515,-4.3515,-4.3777,0.0,-4.4048,-4.4308,-4.4471,-4.4506,-4.4776,0.0,0.0,0.0,-4.4801,-4.4595,-4.4871,-4.5133,-4.5451,-4.6761,-4.7427,-4.7553,-4.8067,0.0,0.0,0.0,0.0,0.0,0.0,0.0,0.0,0.0,0.0,0.0,-4.8438,-4.8363,-4.8306,-4.8306,-4.8306,-4.8214,-4.7681,-4.6581,0.0,0.0,0.0,0.0,0.0,0.0,0.0,0.0,0.0,0.0,0.0,0.0,0.0,0.0,0.0,0.0,0.0,0.0,0.0,0.0,0.0,0.0,0.0,0.0,0.0,0.0,0.0,0.0,0.0,0.0,0.0,-5.0365,-5.0539,-5.0675,-5.0802,-5.1119,-5.133,-5.1455,-5.1249,-5.1395,-5.1904,-5.1606,-5.176,-5.2299,-5.2299,-5.201,-5.1491,-5.1769,-5.1433,-5.0712,-5.0712,-5.0991,-5.1414,-5.0894,-5.101,-5.1414,-5.0894,-5.0712,-5.0712,0.0,0.0,0.0,0.0,0.0,0.0,0.0,0.0,0.0,-4.1156,0.0,0.0,0.0,0.0,-4.3566,-4.3649,-4.3666,-4.3714,-4.3823,-4.4065,-4.4237,-4.436,-4.4599,-4.4751,-4.4788,0.0,0.0,0.0,0.0,0.0,0.0,-4.4688,-4.478,-4.4811,-4.6133,-4.6887,0.0,0.0,0.0,-4.8306,0.0,0.0,-4.8457,0.0,0.0,0.0,0.0,0.0,0.0,0.0,-4.8292,-4.8052,-4.829,-4.816,-4.7681,-4.6599,-4.5535,0.0,0.0,0.0,0.0,0.0,0.0,0.0,0.0,0.0,0.0,0.0,0.0,0.0,0.0,0.0,0.0,0.0,0.0,0.0,0.0,0.0,0.0,0.0,0.0,0.0,0.0,0.0,0.0,0.0,0.0,0.0,-4.9349,-4.9537,-4.9806,-5.0195,-5.0421,-5.0594,-5.0712,-5.0712,-5.0971,-5.151,-5.151,-5.1798,-5.2356,-5.2356,-5.2049,-5.151,-5.151,-5.1183,-5.0712,-5.0712,-5.101,-5.1433,-5.0914,-5.1029,-5.1433,-5.0894,-5.0712,-5.0712,0.0,0.0,0.0,0.0,0.0,0.0,0.0,0.0,-4.0886,-4.1438,0.0,0.0,0.0,0.0,0.0,-4.3989,-4.4002,-4.4151,-4.4479,-4.4572,-4.4637,-4.4701,0.0,0.0,0.0,0.0,0.0,0.0,0.0,0.0,0.0,0.0,-4.4637,-4.4327,-4.5058,-4.6064,-4.7224,0.0,-4.7553,-4.8269,0.0,-4.842,-4.8344,0.0,0.0,0.0,-4.8605,-4.8587,0.0,-4.8568,0.0,0.0,0.0,0.0,-4.6727,-4.515,0.0,0.0,0.0,0.0,0.0,0.0,0.0,0.0,0.0,0.0,0.0,0.0,0.0,0.0,0.0,0.0,0.0,0.0,0.0,0.0,0.0,0.0,0.0,0.0,0.0,0.0,0.0,0.0,0.0,0.0,0.0,-4.7668,-4.8458,-4.8496,-4.9005,-5.0111,-5.0149,-5.0331,-5.0664,-5.0693,-5.0712,-5.0712,-5.0712,-5.0712,-5.0712,-5.0712,-5.0712,-5.0712,-5.0712,-5.0712,-5.0712,-5.0712,-5.0712,-5.0731,-5.0712,-5.0712,-5.0731,-5.0712,-5.0712,-5.0712,0.0,0.0,0.0,0.0,0.0,0.0,-3.9785,-3.9981,-4.0531,0.0,0.0,0.0,-4.3994,-4.4158,-4.4217,-4.436,-4.4374,-4.4411,-4.4553,-4.4812,-4.4973,-4.4996,-4.5232,-4.539,0.0,0.0,0.0,0.0,0.0,0.0,0.0,0.0,0.0,0.0,-4.4737,-4.5167,-4.571,-4.6673,0.0,0.0,-4.8255,-4.8695,0.0,0.0,0.0,0.0,0.0,-4.8621,-4.7881,0.0,-4.7661,-4.7442,0.0,0.0,0.0,0.0,0.0,0.0,-4.3552,0.0,0.0,0.0,0.0,0.0,0.0,0.0,0.0,0.0,0.0,0.0,0.0,0.0,0.0,0.0,0.0,0.0,0.0,0.0,0.0,0.0,0.0,0.0,0.0,0.0,0.0,0.0,-4.7767,-4.7977,-4.8207,-4.8207,-4.8353,-4.8663,-4.9287,-4.9663,-4.976,-5.0385,-5.0712,-5.0712,-5.0712,-5.0712,-5.0712,-5.0712,-5.0712,-5.0712,-5.0712,-5.0712,-5.0712,-5.0712,-5.1029,-5.151,-5.0933,-5.1048,-5.151,-5.0914,-5.0712,-5.0712,0.0,0.0,0.0,0.0,0.0,0.0,-4.0099,-4.0099,-4.0598,0.0,0.0,0.0,-4.4237,-4.4438,-4.4519,-4.4701,-4.4714,-4.4769,-4.4966,-4.515,-4.5292,-4.5312,-4.5495,-4.5594,-4.5594,0.0,0.0,0.0,0.0,0.0,0.0,0.0,0.0,0.0,0.0,0.0,0.0,0.0,0.0,0.0,-4.7456,0.0,0.0,-4.8322,-4.8415,0.0,0.0,0.0,-4.7884,-4.7579,-4.729,0.0,0.0,0.0,0.0,0.0,0.0,0.0,0.0,0.0,0.0,0.0,0.0,0.0,0.0,-4.4332,0.0,0.0,0.0,0.0,0.0,0.0,0.0,0.0,0.0,0.0,0.0,0.0,0.0,0.0,0.0,0.0,0.0,0.0,0.0,-4.6827,-4.6964,-4.7221,-4.7586,-4.7932,-4.8105,-4.8105,-4.8586,-4.8856,-4.8856,-4.9721,-5.0164,-5.0164,-5.0539,-5.0712,-5.0712,-5.0712,-5.0712,-5.0712,-5.0712,-5.0712,-5.0712,-5.0712,-5.0971,-5.1356,-5.0875,-5.0991,-5.1337,-5.0856,-5.0712,-5.0712,0.0,0.0,0.0,0.0,0.0,0.0,-4.0379,-4.0407,-4.0854,0.0,-4.2457,-4.3099,-4.4416,-4.4567,-4.4707,-4.503,-4.5052,-4.5191,-4.5495,-4.5513,-4.555,-4.5594,-4.5594,-4.5594,-4.5594,-4.4836,0.0,0.0,0.0,0.0,0.0,0.0,0.0,0.0,0.0,0.0,0.0,0.0,0.0,-4.5804,-4.6371,-4.6554,0.0,0.0,-4.7133,0.0,-4.7146,-4.7575,-4.8029,-4.7369,-4.6817,0.0,0.0,0.0,0.0,0.0,-4.3515,0.0,0.0,0.0,0.0,0.0,0.0,0.0,-4.4355,-4.4493,-4.4644,0.0,0.0,0.0,0.0,0.0,0.0,0.0,0.0,0.0,0.0,0.0,0.0,0.0,0.0,0.0,0.0,-4.5594,-4.5594,-4.5594,-4.5594,-4.5932,-4.6721,-4.7432,-4.7817,-4.7817,-4.7913,-4.7971,-4.7971,-4.8817,-4.926,-4.926,-5.0144,-5.0558,-5.0558,-5.0654,-5.0712,-5.0712,-5.0712,-5.0712,-5.0712,-5.0712,-5.0712,-5.0712,-5.0712,-5.0712,-5.0712,-5.0712,-5.0712,-5.0712,-4.0482,0.0,0.0,0.0,0.0,0.0,0.0,-4.0407,-4.0736,-4.1648,-4.2938,-4.406,-4.4824,-4.5096,-4.5263,-4.54,-4.541,-4.5448,-4.5577,-4.5577,-4.5586,-4.5594,-4.5594,-4.5594,-4.5594,-4.5441,-4.5441,0.0,0.0,0.0,0.0,0.0,0.0,0.0,0.0,0.0,0.0,0.0,0.0,-4.4951,-4.6139,0.0,-4.7084,-4.7452,-4.7571,-4.756,-4.7571,-4.7098,-4.6455,0.0,-4.5728,-4.5092,0.0,0.0,0.0,0.0,0.0,0.0,0.0,0.0,0.0,0.0,0.0,0.0,-4.4383,-4.4411,-4.4533,0.0,0.0,0.0,0.0,0.0,0.0,0.0,0.0,0.0,0.0,0.0,0.0,0.0,0.0,0.0,0.0,-4.5594,-4.5594,-4.5594,-4.5594,-4.5671,-4.5845,-4.5998,-4.6095,-4.6095,-4.6778,-4.7135,-4.7135,-4.7952,-4.8355,-4.8355,-4.924,-4.9644,-4.9683,-5.0385,-5.0712,-5.0712,-5.0712,-5.0712,-5.0712,-5.0712,-5.0712,-5.0712,-5.0712,-5.0712,-5.0712,-5.0712,-5.0712,-5.0712,-4.0491,0.0,0.0,0.0,0.0,0.0,0.0,-4.0444,-4.0735,-4.1547,-4.311,-4.4441,-4.5176,-4.5362,-4.5485,-4.5531,-4.5559,-4.5568,-4.5594,-4.5594,-4.5594,-4.5594,-4.5594,-4.5594,-4.5594,-4.5594,-4.5594,0.0,0.0,0.0,0.0,0.0,0.0,0.0,0.0,0.0,0.0,0.0,-4.4896,-4.496,-4.559,0.0,-4.6193,-4.6534,-4.6656,-4.6656,-4.6656,-4.6278,-4.5878,-4.6298,-4.5757,0.0,0.0,-4.4898,-4.4341,0.0,-4.4053,-4.4069,0.0,0.0,0.0,-4.4374,0.0,0.0,0.0,-4.465,0.0,0.0,0.0,0.0,0.0,0.0,0.0,0.0,0.0,0.0,0.0,0.0,0.0,0.0,0.0,0.0,0.0,-4.5594,-4.5594,-4.5594,-4.5594,-4.5594,-4.5594,-4.5594,-4.5594,-4.5594,-4.6009,-4.624,-4.624,-4.7086,-4.7509,-4.7509,-4.8355,-4.8759,-4.8779,-4.9644,-5.0048,-5.0067,-5.0519,-5.0712,-5.0712,-5.0712,-5.0712,-5.0712,-5.0712,-5.0712,-5.0712,-5.0712,-5.0712,-5.0712,-4.0507,0.0,0.0,0.0,0.0,0.0,0.0,0.0,-4.0846,-4.1835,-4.3136,-4.4364,-4.5417,-4.5513,-4.5531,-4.5605,-4.5594,-4.5594,-4.5594,-4.5594,-4.5594,-4.5594,-4.5594,-4.5594,-4.5594,-4.5594,-4.5594,-4.5594,0.0,0.0,0.0,0.0,0.0,0.0,0.0,0.0,0.0,0.0,0.0,-4.5263,0.0,-4.5169,-4.514,-4.5485,-4.5594,-4.5594,-4.5594,-4.5594,-4.571,-4.6413,0.0,-4.518,-4.5129,-4.4919,0.0,0.0,0.0,0.0,0.0,0.0,0.0,0.0,0.0,-4.4637,0.0,0.0,0.0,0.0,0.0,0.0,0.0,0.0,0.0,0.0,0.0,0.0,0.0,0.0,0.0,0.0,0.0,0.0,0.0,-4.5594,-4.5594,-4.5594,-4.5594,-4.5594,-4.5594,-4.5594,-4.5594,-4.5594,-4.5594,-4.5594,-4.5594,-4.6297,-4.6644,-4.6663,-4.749,-4.7875,-4.7894,-4.8759,-4.924,-4.9433,-5.0144,-5.0539,-5.0693,-5.0702,-5.0702,-5.0702,-5.0693,-5.0712,-5.0712,-5.0712,-5.0712,-5.0712,-4.0508,-4.0508,0.0,0.0,0.0,0.0,0.0,0.0,-4.1085,-4.2731,-4.3062,-4.3765,-4.5404,-4.5586,-4.5586,-4.5594,-4.5594,0.0,-4.5594,0.0,-4.5594,-4.5594,-4.5594,-4.5594,-4.5594,-4.5594,-4.5594,-4.5594,0.0,0.0,0.0,0.0,0.0,0.0,-4.5594,0.0,0.0,0.0,-4.5559,0.0,-4.555,-4.541,0.0,-4.5495,-4.5594,-4.5594,-4.5594,-4.5594,-4.5614,0.0,-4.5618,-4.5419,0.0,-4.5118,0.0,0.0,0.0,0.0,0.0,0.0,0.0,0.0,-4.5203,0.0,0.0,0.0,0.0,0.0,0.0,0.0,0.0,0.0,0.0,0.0,0.0,0.0,0.0,0.0,0.0,0.0,0.0,0.0,0.0,0.0,-4.5594,-4.5594,-4.5594,-4.5594,-4.5594,-4.5594,-4.5594,-4.5594,-4.5594,-4.5594,-4.5594,-4.571,-4.5748,-4.5768,-4.6624,-4.7038,-4.7058,-4.7875,-4.8663,-4.9413,-4.949,-4.999,-5.0693,-5.0692,-5.0692,-5.0711,-5.0702,-5.0712,-5.0712,-5.0712,-5.0712,-5.0712,-4.0496,-4.0496,0.0,0.0,0.0,0.0,0.0,0.0,-4.17,-4.2931,-4.3472,-4.4222,0.0,0.0,0.0,0.0,0.0,-4.5594,0.0,0.0,-4.5594,-4.5594,0.0,0.0,-4.5594,-4.5594,-4.5594,-4.5594,-4.5594,0.0,0.0,0.0,0.0,0.0,-4.5594,0.0,-4.5594,0.0,0.0,0.0,0.0,0.0,0.0,-4.5559,-4.5594,-4.5594,-4.5594,-4.5594,-4.5594,0.0,-4.5577,0.0,0.0,0.0,0.0,0.0,0.0,0.0,0.0,0.0,0.0,0.0,0.0,0.0,-4.5348,0.0,-4.5307,0.0,0.0,0.0,0.0,0.0,0.0,0.0,0.0,0.0,0.0,0.0,0.0,0.0,0.0,0.0,0.0,0.0,0.0,0.0,0.0,-4.5594,-4.5594,-4.5594,-4.5594,-4.5594,-4.5594,-4.5594,-4.5594,-4.5594,-4.5594,-4.5594,-4.597,-4.6144,-4.6163,-4.7028,-4.7595,-4.8007,-4.9008,-4.9662,-5.0036,-5.0545,-5.0766,-5.0766,-5.0767,-5.0758,-5.0758,-5.0758,-5.0758,-5.0758,-4.0496,0.0,0.0,0.0,0.0,0.0,0.0,0.0,0.0,0.0,0.0,0.0,-4.5537,-4.6018,0.0,0.0,-4.5825,-4.5855,0.0,0.0,-4.5594,0.0,0.0,0.0,0.0,0.0,-4.5594,-4.5594,0.0,0.0,0.0,0.0,0.0,0.0,0.0,-4.5594,-4.5594,0.0,0.0,-4.5594,-4.5594,-4.5594,-4.5594,-4.5594,-4.5594,-4.5594,-4.5594,-4.5594,-4.5594,-4.5594,-4.5586,0.0,-4.5586,0.0,0.0,0.0,0.0,0.0,-4.5438,0.0,0.0,0.0,0.0,0.0,0.0,0.0,0.0,0.0,0.0,0.0,0.0,0.0,0.0,0.0,0.0,0.0,0.0,0.0,0.0,0.0,0.0,0.0,0.0,0.0,0.0,-4.5229,-4.5248,-4.5344,-4.5594,-4.5594,-4.5594,-4.5594,-4.5594,-4.5594,-4.5594,-4.5594,-4.5594,-4.5594,-4.5594,-4.5622,-4.565,-4.6277,-4.6707,-4.6992,-4.8272,-4.908,-4.9549,-5.0192,-5.0606,-5.0838,-5.0827,-5.0836,-5.0827,-5.081,-5.0801,-5.0801,-4.0496,-4.0496,0.0,0.0,0.0,0.0,0.0,0.0,0.0,0.0,0.0,0.0,0.0,0.0,0.0,0.0,0.0,-4.6509,-4.5671,0.0,-4.5594,0.0,0.0,-4.5594,0.0,0.0,0.0,0.0,0.0,0.0,0.0,0.0,0.0,0.0,0.0,-4.5594,-4.5594,-4.5594,-4.5594,-4.5594,-4.5594,-4.5594,-4.5594,0.0,-4.5594,-4.5594,-4.5594,0.0,0.0,-4.5594,-4.5559,0.0,0.0,0.0,0.0,0.0,0.0,0.0,0.0,0.0,0.0,-4.5399,0.0,0.0,0.0,0.0,-4.5307,0.0,0.0,0.0,0.0,0.0,-4.5244,-4.4462,-4.5047,0.0,0.0,0.0,0.0,0.0,0.0,0.0,0.0,0.0,0.0,-4.4278,-4.4335,-4.4701,-4.5556,-4.5594,-4.5594,-4.5594,-4.5594,-4.5594,-4.5594,-4.5594,-4.5594,-4.5594,-4.5594,-4.564,-4.5701,-4.574,-4.6199,-4.7003,-4.7061,-4.8006,-4.9511,-4.96,-5.0146,-5.0899,-5.0901,-5.0898,-5.089,-5.0827,-5.0801,-5.0801,0.0,0.0,0.0,0.0,0.0,0.0,0.0,-4.2739,0.0,0.0,0.0,0.0,0.0,0.0,-4.6229,0.0,0.0,-4.5913,-4.5614,-4.5594,0.0,0.0,0.0,-4.5622,0.0,0.0,0.0,0.0,0.0,0.0,0.0,0.0,0.0,0.0,0.0,-4.5594,0.0,0.0,0.0,0.0,0.0,-4.5594,-4.5594,0.0,0.0,-4.5594,-4.5594,-4.5594,0.0,-4.5594,-4.5586,-4.5568,-4.5586,-4.5586,-4.5568,-4.5586,-4.5577,0.0,0.0,0.0,-4.5522,-4.5523,0.0,0.0,0.0,0.0,0.0,0.0,0.0,0.0,0.0,0.0,-4.5417,-4.5201,-4.4913,-4.4528,0.0,0.0,0.0,0.0,0.0,0.0,0.0,0.0,0.0,-4.3489,-4.3989,-4.4432,0.0,-4.5287,-4.5594,-4.5594,-4.5594,-4.5594,-4.5594,-4.564,-4.5676,-4.5676,-4.5671,-4.5668,-4.5703,-4.5703,-4.5901,-4.6241,-4.682,-4.7395,-4.7998,-4.9173,-4.9838,-5.0167,-5.0685,-5.0898,-5.0898,-5.0874,-5.0858,-5.0858,-4.0616,0.0,0.0,0.0,0.0,0.0,0.0,0.0,0.0,0.0,-4.5509,0.0,-4.5633,0.0,-4.624,0.0,-4.5874,-4.5932,-4.5614,-4.5631,0.0,-4.5701,-4.5665,0.0,0.0,0.0,0.0,0.0,0.0,-4.5594,0.0,0.0,0.0,0.0,0.0,0.0,0.0,0.0,-4.5594,0.0,0.0,-4.5594,0.0,0.0,-4.5594,-4.5594,0.0,-4.5594,-4.5594,-4.5594,-4.5594,-4.5594,-4.5594,-4.5594,-4.5594,-4.5594,-4.5594,-4.5594,-4.5594,-4.5594,0.0,-4.5568,-4.5522,0.0,-4.5476,0.0,0.0,0.0,0.0,0.0,0.0,0.0,-4.5559,-4.5631,-4.4891,-4.4085,0.0,-4.222,0.0,0.0,0.0,0.0,0.0,0.0,-4.2297,-4.2604,-4.3124,-4.3662,0.0,0.0,-4.5287,-4.5594,-4.5594,-4.5603,-4.564,-4.5684,-4.5709,-4.5706,-4.5692,-4.5727,-4.5773,-4.5773,-4.5822,-4.5937,-4.6499,-4.6918,-4.728,-4.8715,-4.9491,-4.986,-5.0675,-5.1005,-5.0992,-5.0925,-5.0898,-5.0898,0.0,0.0,0.0,0.0,-4.1538,0.0,0.0,0.0,-4.4662,0.0,-4.6317,-4.6528,-4.5691,-4.7037,-4.7345,-4.5738,-4.6364,0.0,-4.5661,-4.5657,0.0,0.0,-4.5703,-4.5708,-4.5708,0.0,0.0,0.0,0.0,0.0,0.0,0.0,0.0,0.0,-4.5594,0.0,-4.5594,-4.5594,-4.5594,-4.5594,-4.5594,-4.5603,-4.5603,-4.5603,-4.5603,-4.5594,-4.5594,-4.5594,-4.5594,-4.5594,-4.5594,-4.5594,-4.5594,-4.5594,-4.5594,-4.5594,-4.5594,-4.5603,-4.5603,-4.5603,-4.5586,-4.5522,0.0,0.0,0.0,0.0,-4.5438,0.0,0.0,0.0,0.0,0.0,0.0,-4.5693,-4.4889,-4.3662,-4.2019,0.0,0.0,0.0,0.0,0.0,0.0,-4.0496,-4.0835,-4.1673,-4.1769,0.0,0.0,0.0,-4.469,-4.5518,-4.5575,-4.5648,-4.5698,-4.5717,-4.5703,-4.5712,-4.5719,-4.5794,-4.5911,-4.5911,-4.5979,-4.6098,-4.6098,-4.6527,-4.7299,-4.8179,-4.9056,-4.9929,-5.079,-5.1164,-5.1183,-5.0998,-5.0902,-5.0902,-4.1779,-4.2556,-4.3319,0.0,-4.3788,-4.3975,0.0,0.0,0.0,0.0,-4.5877,-4.5924,-4.5706,-4.6053,-4.613,-4.5714,-4.588,0.0,0.0,0.0,0.0,-4.5777,-4.5735,-4.5723,-4.5773,-4.5735,0.0,-4.5701,0.0,0.0,-4.5594,0.0,0.0,0.0,0.0,0.0,-4.5594,-4.5594,-4.5631,-4.5665,-4.5679,-4.5676,0.0,0.0,-4.5676,-4.5668,-4.562,-4.5594,-4.5614,-4.5648,-4.564,-4.5622,-4.5657,-4.5665,-4.5665,-4.5665,-4.5671,-4.5676,-4.5676,-4.5676,-4.5668,-4.566,-4.566,-4.5632,0.0,0.0,0.0,0.0,0.0,0.0,0.0,0.0,0.0,-4.5631,-4.4382,-4.3028,0.0,0.0,0.0,-4.0496,0.0,0.0,0.0,-4.0496,-4.0593,-4.0823,-4.1431,0.0,0.0,0.0,0.0,-4.4702,-4.5351,-4.5719,-4.5764,-4.5809,-4.5877,-4.5911,-4.5969,-4.6016,-4.6041,-4.6041,-4.6076,-4.6098,-4.6098,-4.6215,-4.6468,-4.7283,-4.814,-4.9017,-4.9894,-5.0634,-5.1195,-5.1147,-5.1128,-5.1128,-4.2797,0.0,0.0,-4.5302,0.0,0.0,-4.5086,0.0,0.0,-4.5693,-4.5701,0.0,-4.5695,-4.5692,-4.5708,-4.5708,-4.5708,0.0,0.0,0.0,0.0,-4.5807,-4.5761,-4.5749,-4.5791,-4.5754,0.0,-4.5738,0.0,0.0,-4.564,0.0,0.0,0.0,0.0,-4.5594,0.0,-4.5631,-4.5676,-4.5701,-4.5711,0.0,0.0,-4.5708,-4.5708,-4.57,-4.5651,-4.5635,-4.5654,-4.5679,-4.5671,-4.5654,-4.5679,-4.5706,-4.5706,-4.5706,-4.5703,-4.5708,-4.5708,-4.5708,-4.5708,-4.5708,-4.5708,-4.5708,-4.5708,-4.5708,-4.5708,0.0,0.0,0.0,0.0,0.0,0.0,0.0,0.0,0.0,0.0,0.0,0.0,0.0,0.0,0.0,0.0,0.0,0.0,0.0,0.0,0.0,0.0,0.0,0.0,-4.4481,-4.5295,-4.579,-4.589,-4.5897,-4.5939,-4.6045,-4.6075,-4.6115,-4.6142,-4.6142,-4.6155,-4.6195,-4.6195,-4.6195,-4.6253,-4.709,-4.793,-4.8849,-5.0076,-5.0859,-5.1288,-5.1288,-5.1258,-5.1203,0.0,0.0,0.0,0.0,0.0,0.0,0.0,-4.5723,0.0,-4.569,0.0,-4.5872,-4.588,-4.5989,-4.6051,-4.6051,0.0,-4.6051,-4.6051,-4.6101,-4.6085,-4.5989,-4.596,-4.5923,-4.5807,-4.5791,0.0,0.0,0.0,0.0,0.0,0.0,0.0,0.0,0.0,0.0,0.0,-4.5673,-4.5709,0.0,-4.5708,-4.5704,-4.5704,-4.5704,-4.5704,-4.5704,-4.5704,-4.5715,-4.5708,-4.5715,-4.5708,-4.5708,-4.5715,-4.5715,-4.5715,-4.5715,-4.5715,-4.5704,-4.5704,-4.5704,-4.5704,-4.5704,-4.5704,-4.5704,-4.5704,-4.5704,-4.5731,-4.5788,-4.5746,-4.5719,0.0,0.0,0.0,0.0,0.0,0.0,0.0,0.0,0.0,0.0,0.0,0.0,0.0,0.0,0.0,0.0,0.0,0.0,0.0,0.0,0.0,-4.4442,-4.5359,-4.591,-4.6014,0.0,-4.6007,-4.6115,-4.6122,-4.6153,-4.6209,-4.6209,-4.6242,-4.6308,-4.6308,-4.6308,-4.6367,-4.7129,-4.8008,-4.9062,-5.0742,-5.1406,-5.1406,-5.1406,-5.133,-5.1232,0.0,0.0,0.0,0.0,0.0,-4.6095,-4.6131,-4.5883,-4.5719,-4.5758,-4.6403,-4.6862,-4.6854,-4.7499,-4.7924,-4.7924,-4.7924,0.0,0.0,0.0,0.0,-4.6895,-4.6864,-4.6542,-4.5826,-4.58,-4.5798,0.0,0.0,0.0,0.0,0.0,0.0,0.0,0.0,0.0,-4.5673,-4.5695,0.0,-4.5792,-4.5791,-4.5786,-4.5786,-4.5786,-4.5786,-4.5786,-4.5786,-4.5742,-4.5708,-4.5765,-4.575,-4.5715,-4.5765,-4.5773,-4.5773,-4.5773,-4.5783,-4.5786,-4.5786,-4.5786,-4.5786,-4.5786,-4.5786,-4.5786,-4.5786,-4.5786,-4.5786,-4.5793,-4.5793,-4.5798,-4.5803,0.0,0.0,0.0,0.0,0.0,0.0,0.0,0.0,0.0,0.0,0.0,0.0,0.0,0.0,0.0,0.0,0.0,0.0,0.0,0.0,0.0,-4.5223,0.0,0.0,0.0,-4.6162,-4.6173,-4.624,-4.6267,-4.6288,-4.6288,-4.6289,-4.6308,-4.6308,-4.6308,-4.6308,-4.6465,-4.7461,-4.9062,-5.0742,-5.1406,-5.1406,-5.1406,-5.1386,-5.1363,0.0,0.0,0.0,0.0,0.0,0.0,0.0,-4.731,0.0,-4.6577,-4.7224,-4.772,-4.7724,-4.8125,-4.8392,-4.8392,-4.8392,-4.8392,-4.8392,-4.8392,-4.8217,-4.7792,-4.7773,0.0,-4.6484,-4.6464,-4.6257,-4.5798,0.0,0.0,-4.5758,0.0,0.0,0.0,0.0,-4.5695,0.0,0.0,0.0,-4.5788,-4.5812,-4.5807,-4.5807,-4.5807,-4.5807,-4.5807,-4.5807,-4.5778,-4.5749,-4.5791,-4.5783,-4.5749,-4.5791,-4.5798,-4.5798,-4.5798,-4.5793,-4.5807,-4.5807,-4.5807,-4.5807,-4.5807,-4.5807,-4.5807,-4.5807,-4.5807,-4.5807,-4.5807,-4.5807,-4.5793,-4.5795,-4.575,0.0,0.0,0.0,0.0,0.0,0.0,0.0,0.0,0.0,0.0,0.0,0.0,0.0,0.0,0.0,0.0,0.0,0.0,0.0,0.0,0.0,0.0,0.0,0.0,0.0,-4.6244,-4.6288,-4.6308,-4.6308,-4.6308,-4.6308,-4.6308,-4.6308,-4.6308,-4.6367,-4.7285,-4.8144,-4.9062,-5.0742,-5.1406,-5.1406,-5.1406,-5.1406,-5.1406,0.0,-4.7285,0.0,0.0,-4.8393,0.0,-4.8811,-4.8815,-4.8497,-4.7586,-4.8132,-4.8597,-4.8597,-4.8802,-4.8933,-4.8933,-4.8933,-4.8933,-4.8933,-4.8933,-4.8856,-4.8682,-4.8682,-4.8271,-4.7423,-4.7222,-4.6797,0.0,0.0,0.0,0.0,0.0,0.0,0.0,0.0,0.0,0.0,0.0,-4.5795,-4.5803,-4.5793,-4.5807,-4.5807,-4.5807,-4.5807,-4.5807,-4.5807,-4.5807,-4.5807,-4.5807,-4.5807,-4.5807,-4.5807,-4.5807,-4.5807,-4.5807,-4.5807,-4.5807,-4.5807,-4.5807,-4.5807,-4.5807,-4.5807,-4.5807,-4.5807,-4.5807,-4.5807,-4.5807,-4.5807,-4.5793,-4.5795,-4.5765,0.0,0.0,0.0,0.0,0.0,0.0,0.0,0.0,0.0,0.0,0.0,0.0,0.0,0.0,0.0,0.0,0.0,0.0,0.0,0.0,0.0,-4.6037,-4.6264,0.0,-4.624,-4.6288,-4.6289,-4.6308,-4.6308,-4.6308,-4.6308,-4.6308,-4.6308,-4.6308,-4.6445,-4.8183,-4.8906,-4.9062,-5.0742,-5.1406,-5.1406,-5.1406,-5.1406,-5.1406,0.0,0.0,0.0,0.0,0.0,0.0,-4.8886,-4.9437,-4.949,-4.8515,-4.9064,-4.9564,-4.9564,-5.0221,-5.0666,-5.0666,-5.0666,-5.0666,-5.0666,-5.0666,-5.0337,-4.961,-4.9591,-4.9192,-4.8394,-4.7592,-4.7218,0.0,0.0,0.0,0.0,0.0,0.0,0.0,0.0,0.0,0.0,-4.5826,-4.581,-4.58,-4.5807,-4.5807,-4.5807,-4.5807,-4.5807,-4.5807,-4.5807,-4.5807,-4.5807,-4.5807,-4.5807,-4.5807,-4.5807,-4.5807,-4.5807,-4.5807,-4.5807,-4.5807,-4.5807,-4.5807,-4.5807,-4.5807,-4.5807,-4.5807,-4.5807,-4.5807,-4.5807,-4.5807,-4.5807,-4.5793,-4.5795,-4.5791,-4.5771,0.0,0.0,0.0,0.0,0.0,0.0,0.0,0.0,0.0,0.0,0.0,0.0,0.0,0.0,0.0,0.0,0.0,0.0,-4.3564,0.0,-4.5371,-4.6102,-4.6238,-4.6265,-4.6207,-4.6267,-4.6308,-4.6308,-4.6308,-4.6308,-4.6308,-4.6308,-4.6308,-4.6445,-4.8183,-4.8906,-4.9062,-5.0742,-5.1406,-5.1406,-5.1406,-5.1406,-5.1406,0.0,0.0,0.0,0.0,0.0,0.0,0.0,-5.0614,-5.064,-5.0225,-5.0432,-5.0595,-5.0595,-5.0886,-5.1081,-5.1081,-5.1081,-5.1081,-5.1081,-5.1081,-5.0945,-5.0614,-5.0595,-5.0194,-4.9365,-4.8996,-4.8584,0.0,0.0,0.0,0.0,0.0,0.0,0.0,0.0,-4.5987,-4.6016,-4.5993,-4.5983,-4.5974,-4.5974,-4.5974,-4.5974,-4.5974,-4.5974,-4.5974,-4.5974,-4.5974,-4.5964,-4.5933,-4.5874,-4.5807,-4.5807,-4.5807,-4.5807,-4.5807,-4.5807,-4.5807,-4.5807,-4.5807,-4.5807,-4.5807,-4.5807,-4.5807,-4.5807,-4.5807,-4.5807,-4.5807,-4.5807,-4.58,-4.5805,-4.5828,-4.586,0.0,0.0,0.0,0.0,0.0,0.0,0.0,0.0,0.0,0.0,0.0,0.0,0.0,0.0,0.0,0.0,0.0,0.0,-4.3587,0.0,-4.5891,-4.6213,-4.6268,-4.6289,-4.6265,-4.6289,-4.6308,-4.6308,-4.6308,-4.6308,-4.6308,-4.6308,-4.6601,-4.7168,-4.8398,-4.9219,-4.9785,-5.0957,-5.1406,-5.1406,-5.1406,-5.1406,-5.1406,-4.9277,0.0,-5.0547,0.0,-5.1016,-5.1406,-5.1406,-5.1362,-5.1331,-5.1331,-5.1288,-5.1232,-5.1207,-5.1203,-5.1203,-5.1203,-5.1203,-5.1203,-5.1203,-5.1203,-5.1203,-5.1203,-5.1203,0.0,-5.0326,-5.005,-4.9653,-4.9069,-4.8248,0.0,0.0,0.0,0.0,0.0,-4.6139,-4.6131,-4.6128,-4.6109,-4.6098,-4.6098,-4.6098,-4.6098,-4.6098,-4.6098,-4.6098,-4.6098,-4.6098,-4.6098,-4.6091,-4.605,-4.5977,-4.5879,-4.5861,-4.5867,-4.5867,-4.5867,-4.5867,-4.5867,-4.5867,-4.588,-4.5885,-4.5885,-4.5885,-4.5885,-4.5885,-4.5885,-4.5885,-4.5885,-4.5885,-4.5885,-4.5885,-4.5922,-4.5964,-4.5993,0.0,0.0,0.0,0.0,0.0,0.0,0.0,-4.3436,-4.2777,0.0,0.0,0.0,0.0,0.0,0.0,0.0,0.0,0.0,0.0,0.0,0.0,-4.6289,-4.6308,-4.6308,-4.6308,-4.6308,-4.6308,-4.6308,-4.6308,-4.6308,-4.6308,-4.6797,-4.7676,-4.8535,-4.9414,-5.0273,-5.1094,-5.1406,-5.1406,-5.1406,-5.1406,-5.1406,-5.0176,-5.082,-5.1387,-5.1387,-5.1387,-5.1406,-5.1406,-5.1406,-5.1406,-5.1406,-5.1406,-5.1358,-5.1218,-5.1203,-5.1203,-5.1203,-5.1203,-5.1203,-5.1203,-5.1203,-5.1203,0.0,0.0,-5.1239,-5.1275,-5.0436,-5.0062,-5.0176,0.0,0.0,-4.7479,0.0,-4.6221,-4.6289,-4.6235,-4.6202,-4.6199,-4.6128,-4.6098,-4.6098,-4.6098,-4.6098,-4.6098,-4.6098,-4.6098,-4.6098,-4.6098,-4.6098,-4.6098,-4.6098,-4.6098,-4.6084,-4.6013,-4.5997,-4.5997,-4.5997,-4.5997,-4.5997,-4.5997,-4.6054,-4.6098,-4.6098,-4.6098,-4.6098,-4.6098,-4.6098,-4.6098,-4.6098,-4.6098,-4.6098,-4.6098,-4.6098,-4.6072,-4.6014,0.0,0.0,0.0,0.0,0.0,0.0,-4.4238,-4.3691,-4.3672,0.0,0.0,0.0,0.0,0.0,0.0,0.0,0.0,-4.4834,-4.4917,0.0,-4.6184,-4.6267,-4.6308,-4.6308,-4.6308,-4.6308,-4.6308,-4.6308,-4.6308,-4.6308,-4.6308,-4.6797,-4.7676,-4.8535,-4.9414,-5.0273,-5.1094,-5.1406,-5.1406,-5.1406,-5.1406,-5.1406,-5.1016,-5.1211,-5.1406,-5.1406,-5.1406,-5.1406,-5.1406,-5.1406,-5.1406,-5.1406,-5.1406,-5.1386,-5.1337,-5.1335,-5.1335,0.0,-5.1335,-5.1335,0.0,-5.1335,-5.1335,-5.1335,-5.1335,-5.1358,-5.1364,-5.1091,-5.0975,-5.1016,0.0,0.0,0.0,-4.8162,-4.8046,-4.8066,-4.8045,-4.8044,-4.8044,-4.8019,-4.8017,-4.8017,-4.8017,-4.8017,-4.8017,-4.8017,-4.8017,-4.8017,-4.8017,-4.8017,-4.7916,-4.7268,-4.7081,-4.7015,-4.6331,-4.6105,-4.606,-4.606,-4.606,-4.606,-4.606,-4.608,-4.6098,-4.6098,-4.6098,-4.6098,-4.6098,-4.6098,-4.6098,-4.6098,-4.6098,-4.6098,-4.6098,-4.6137,-4.6162,-4.6138,-4.6213,0.0,0.0,0.0,0.0,0.0,0.0,-4.5234,0.0,-4.4522,0.0,0.0,0.0,0.0,0.0,0.0,0.0,0.0,-4.552,0.0,-4.6267,-4.6289,-4.6308,-4.6308,-4.6308,-4.6308,-4.6308,-4.6308,-4.6308,-4.6328,-4.6933,-4.7676,-4.8555,-4.9433,-5.0273,-5.1035,-5.1308,-5.1406,-5.1406,-5.1406,-5.1405,-5.1405,-5.1406,-5.1406,-5.1406,-5.1406,-5.1406,-5.1406,-5.1406,-5.1406,-5.1406,-5.1406,-5.1406,-5.1406,-5.1406,-5.1406,0.0,-5.1406,-5.1406,-5.1406,-5.1406,-5.1406,-5.1406,-5.1406,-5.1406,-5.1406,-5.1406,-5.1406,0.0,-5.1406,-5.0898,-5.0215,-4.9394,-4.9394,-4.9219,-4.8906,-4.8906,-4.8906,-4.8906,-4.8906,-4.8906,-4.8906,-4.8906,-4.8906,-4.8906,-4.8906,-4.8906,-4.8906,-4.8906,-4.8906,-4.8808,-4.8216,-4.8043,-4.7988,-4.7396,-4.697,-4.6594,-4.6242,-4.6137,-4.6137,-4.6137,-4.6153,-4.6186,-4.6186,-4.6186,-4.6186,-4.6186,-4.6186,-4.6186,-4.6186,-4.6186,-4.6186,-4.6186,-4.6207,-4.6239,-4.6239,-4.6267,-4.6308,-4.6308,0.0,0.0,0.0,0.0,0.0,0.0,-4.5446,-4.5206,0.0,0.0,0.0,0.0,0.0,0.0,-4.5401,-4.5995,0.0,-4.6308,-4.6308,-4.6308,-4.6308,-4.6308,-4.6308,-4.6308,-4.6308,-4.6484,-4.6816,-4.7363,-4.8281,-4.9433,-4.998,-5.0664,-5.1406,-5.1405,-5.1405,-5.1405,-5.1404,-5.1403,-5.1402,-5.1406,-5.1406,0.0,0.0,-5.1406,0.0,-5.1406,-5.1406,-5.1406,-5.1406,-5.1406,-5.1406,-5.1406,-5.1406,-5.1406,-5.1406,0.0,0.0,0.0,-5.1406,-5.1406,-5.1406,-5.1406,-5.1406,-5.1406,-5.1406,-5.1406,-5.1406,-5.1406,-5.1016,-5.0273,-5.0273,-4.9844,-4.9062,-4.9062,-4.9062,-4.9062,-4.9062,-4.9062,-4.9062,-4.9062,-4.9062,-4.9062,-4.9062,-4.9062,-4.9062,-4.9062,-4.9062,-4.9062,-4.9004,-4.8984,-4.8984,-4.8926,-4.834,-4.7519,-4.6566,-4.6245,-4.6206,-4.6206,-4.6244,-4.6308,-4.6308,-4.6308,-4.6308,-4.6308,-4.6308,-4.6308,-4.6308,-4.6308,-4.6308,-4.6308,-4.6308,-4.6308,-4.6308,-4.6308,-4.6308,-4.6308,0.0,0.0,0.0,0.0,0.0,0.0,-4.6308,-4.6308,0.0,0.0,0.0,0.0,0.0,-4.5401,-4.6269,-4.6308,-4.6308,-4.6308,-4.6308,-4.6308,-4.6308,-4.6308,-4.6308,-4.6308,-4.6308,-4.6777,-4.7598,-4.7656,-4.8633,-5.0195,-5.0253,-5.0721,-5.1404,-5.14,-5.1398,-5.1398,-5.1398,-5.1397,-5.1397,0.0,0.0,-5.1406,-5.1406,-5.1406,-5.1406,-5.1406,-5.1406,-5.1406,-5.1406,-5.1406,-5.1406,-5.1406,-5.1406,-5.1406,-5.1406,-5.1406,-5.1406,-5.1406,-5.1406,-5.1406,-5.1406,-5.1406,-5.1406,-5.1406,-5.1406,-5.1406,-5.1406,-5.1406,-5.1308,-5.1113,-5.1113,-5.1016,-5.0801,-5.0801,-5.0801,-5.0801,-5.0801,-5.0801,-5.0801,-5.0801,-5.0801,-5.0801,-5.0801,-5.0801,-5.0801,-5.0801,-5.0801,-5.0703,-5.0098,-4.9883,-4.9785,-4.9101,-4.8769,-4.8418,-4.7538,-4.6795,-4.6287,-4.6287,-4.6289,-4.6308,-4.6308,-4.6308,-4.6308,-4.6308,-4.6308,-4.6308,-4.6308,-4.6308,-4.6308,-4.6308,-4.6308,-4.6308,-4.6308,-4.6308,-4.6308,-4.6308,-4.6308,0.0,0.0,-4.6308,-4.6308,-4.6308,-4.6308,-4.6308,0.0,0.0,0.0,0.0,-4.6094,-4.6073,-4.6289,-4.6308,-4.6308,-4.6308,-4.6308,-4.6308,-4.6308,-4.6308,-4.6308,-4.6308,-4.6308,-4.6777,-4.7636,-4.83,-4.9178,-5.0171,-5.0834,-5.1224,-5.14,-5.1399,-5.1398,-5.1398,-5.1394,-5.1393,-5.1391,-5.1406,-5.1406,-5.1406,-5.1406,-5.1406,-5.1406,-5.1406,-5.1406,-5.1406,-5.1406,-5.1406,-5.1406,-5.1406,-5.1406,-5.1406,-5.1406,-5.1406,-5.1406,-5.1406,-5.1406,-5.1406,-5.1406,-5.1406,-5.1406,-5.1406,-5.1406,-5.1406,-5.1406,-5.1406,-5.1406,-5.1406,-5.1406,-5.1406,-5.1406,-5.1406,-5.1406,-5.1406,-5.1406,-5.1406,-5.1406,-5.1406,-5.1406,-5.1406,-5.1406,-5.1406,-5.1406,-5.1406,-5.1406,-5.1328,-5.0898,-5.0742,-5.0664,-5.0195,-4.9785,-4.9394,-4.8926,-4.7891,-4.6894,-4.6894,-4.6601,-4.6308,-4.6308,-4.6308,-4.6308,-4.6308,-4.6308,-4.6308,-4.6308,-4.6308,-4.6308,-4.6308,-4.6308,-4.6308,-4.6308,-4.6308,-4.6308,-4.6308,-4.6308,0.0,-4.6308,-4.6308,-4.6308,-4.6308,-4.6308,-4.6308,-4.6307,-4.6307,0.0,-4.6305,-4.6307,-4.6308,-4.6307,-4.6308,-4.6308,-4.6308,-4.6308,-4.6308,-4.6307,-4.6307,-4.6307,-4.6307,-4.6717,-4.7361,-4.8238,-4.9078,-4.9917,-5.0734,-5.1201,-5.1395,-5.1394,-5.1391,-5.1409,-5.1408,-5.1405,-5.1403,-5.1402,-5.1406,-5.1406,-5.1406,-5.1406,-5.1406,-5.1406,-5.1406,-5.1406,-5.1406,-5.1406,-5.1406,-5.1406,-5.1406,-5.1406,-5.1406,-5.1406,-5.1406,-5.1406,-5.1406,-5.1406,-5.1406,-5.1406,-5.1406,-5.1406,-5.1406,-5.1406,-5.1406,-5.1406,-5.1406,-5.1406,-5.1406,-5.1406,-5.1406,-5.1406,-5.1406,-5.1406,-5.1406,-5.1406,-5.1406,-5.1406,-5.1406,-5.1406,-5.1406,-5.1406,-5.1406,-5.1406,-5.1406,-5.1406,-5.1406,-5.1406,-5.1406,-5.1406,-5.1406,-5.0937,-5.0371,-5.0371,-4.9258,-4.7949,-4.7676,-4.6953,-4.6308,-4.6308,-4.6308,-4.6308,-4.6308,-4.6308,-4.6308,-4.6308,-4.6308,-4.6308,-4.6308,-4.6308,-4.6308,-4.6308,-4.6308,-4.6308,-4.6308,0.0,-4.6308,-4.6308,-4.6308,-4.6308,-4.6307,-4.6307,-4.6306,-4.6304,-4.6303,-4.6302,-4.6301,-4.6305,-4.6305,-4.63,-4.6307,-4.6308,-4.6306,-4.6306,-4.6305,-4.6301,-4.6301,-4.638,-4.6516,-4.7257,-4.8135,-4.9112,-4.9795,-5.0596,-5.1395,-5.139,-5.1407,-5.1407,-5.1398,-5.1394,-5.1394,-5.1394,-5.1394,-5.1392,-5.1406,-5.1406,-5.1406,-5.1406,-5.1406,-5.1406,-5.1406,-5.1406,-5.1406,-5.1406,-5.1406,-5.1406,-5.1406,-5.1406,-5.1406,-5.1406,-5.1406,-5.1406,-5.1406,-5.1406,-5.1406,-5.1406,-5.1406,-5.1406,-5.1406,-5.1406,-5.1406,-5.1406,-5.1406,-5.1406,-5.1406,-5.1406,-5.1406,-5.1406,-5.1406,-5.1406,-5.1406,-5.1406,-5.1406,-5.1406,-5.1406,-5.1406,-5.1406,-5.1406,-5.1406,-5.1406,-5.1406,-5.1406,-5.1406,-5.1406,-5.1406,-5.1406,-5.1405,-5.1308,-5.1211,-5.121,-5.0546,-4.9473,-4.8008,-4.6953,-4.6308,-4.6308,-4.6308,-4.6308,-4.6308,-4.6308,-4.6308,-4.6308,-4.6308,-4.6308,-4.6308,-4.6308,-4.6308,-4.6308,-4.6308,-4.6308,-4.6308,0.0,-4.6308,-4.6308,-4.6308,-4.6308,-4.6308,-4.6308,-4.6308,-4.6308,-4.6307,-4.6305,-4.6301,-4.6302,-4.6299,-4.6305,-4.6302,-4.6306,-4.6302,-4.6302,-4.6302,-4.6301,-4.6301,-4.6692,-4.7394,-4.7531,-4.8447,-4.9926,-5.0043,-5.0587,-5.1398,-5.1398,-5.1396,-5.1396,-5.1394,-5.1394,-5.1394,-5.1394,-5.1394,-5.1388,-5.1404,-5.1404,-5.1404,-5.1404,-5.1404,-5.1404,-5.1404,-5.1404,-5.1404,-5.1404,-5.1404,-5.1404,-5.1404,-5.1404,-5.1404,-5.1404,-5.1404,-5.1404,-5.1404,-5.1405,-5.1406,-5.1406,-5.1406,-5.1406,-5.1406,-5.1406,-5.1406,-5.1406,-5.1405,-5.1404,-5.1404,-5.1404,-5.1404,-5.1404,-5.1404,-5.1404,-5.1404,-5.1404,-5.1404,-5.1404,-5.1404,-5.1404,-5.1404,-5.1405,-5.1405,-5.1404,-5.1405,-5.1405,-5.1404,-5.1404,-5.1404,-5.1404,-5.1402,-5.1403,-5.1404,-5.1402,-5.0839,-4.9824,-4.8066,-4.7305,-4.6894,-4.6426,-4.6308,-4.6308,-4.6308,-4.6308,-4.6308,-4.6308,-4.6308,-4.6308,-4.6308,-4.6308,-4.6308,-4.6308,-4.6307,0.0,0.0,-4.6306,-4.6306,-4.6306,-4.6306,-4.6306,-4.6304,-4.6304,-4.6303,-4.6301,-4.6299,-4.6295,-4.6293,-4.6295,-4.6293,-4.6302,-4.6295,-4.63,-4.6297,-4.6297,-4.6295,-4.6312,-4.6779,-4.7209,-4.7637,-4.8535,-4.9373,-5.0131,-5.0601,-5.1027,-5.1394,-5.1394,-5.136,-5.1294,-5.1294,-5.1248,-5.1172,-5.1172,-5.1172,-5.1187,-5.1398,-5.1398,-5.1398,-5.1398,-5.1398,-5.1398,-5.1398,-5.1398,-5.1398,-5.1398,-5.1398,-5.1398,-5.1398,-5.1398,-5.1398,-5.1398,-5.1398,-5.1398,-5.1398,-5.1401,-5.1403,-5.1404,-5.1404,-5.1405,-5.1406,-5.1405,-5.1404,-5.1404,-5.14,-5.1398,-5.1398,-5.1398,-5.1398,-5.1398,-5.1398,-5.1398,-5.1398,-5.1398,-5.1398,-5.1398,-5.1398,-5.1398,-5.1398,-5.1402,-5.1402,-5.1399,-5.1402,-5.1402,-5.1398,-5.1398,-5.1398,-5.1398,-5.1397,-5.1397,-5.1398,-5.1397,-5.0953,-5.0097,-4.8378,-4.7753,-4.7382,-4.6523,-4.6308,-4.6308,-4.6308,-4.6308,-4.6308,-4.6308,-4.6308,-4.6308,-4.6308,-4.6307,-4.6306,-4.6306,0.0,0.0,0.0,-4.6301,-4.6301,-4.6301,-4.6301,-4.6301,-4.6295,-4.6295,-4.6293,-4.6306,-4.6305,-4.6303,-4.6303,-4.6308,-4.6308,-4.63,-4.6306,-4.629,-4.629,-4.629,-4.6306,-4.63,-4.7178,-4.7703,-4.7938,-4.9421,-5.0202,-5.0436,-5.1102,-5.1394,-5.1394,-5.1362,-5.1294,-5.1199,-5.1178,-5.1084,-5.1002,-5.1002,-5.1002,-5.1002,-5.1398,-5.1398,-5.1398,-5.1398,-5.1398,-5.1398,-5.1398,-5.1398,-5.1398,-5.1398,-5.1398,-5.1398,-5.1398,-5.1398,-5.1398,-5.1398,-5.1398,-5.1398,-5.1398,-5.1394,-5.1394,-5.1398,-5.1399,-5.1399,-5.1399,-5.1399,-5.1399,-5.1399,-5.1398,-5.1398,-5.1398,-5.1398,-5.1398,-5.1398,-5.1398,-5.1398,-5.1398,-5.1398,-5.1398,-5.1398,-5.1398,-5.1398,-5.1398,-5.1398,-5.1398,-5.1398,-5.1398,-5.1398,-5.1398,-5.1398,-5.1398,-5.1397,-5.1393,-5.1394,-5.1397,-5.1393,-5.1356,-5.0931,-4.925,-4.8215,-4.7395,-4.6517,-4.6302,-4.6302,-4.6302,-4.6302,-4.6302,-4.6302,-4.6302,-4.6302,-4.6302,-4.6302,-4.6302,-4.6302,0.0,0.0,-4.6301,-4.6301,-4.6301,-4.6301,-4.6301,-4.6301,-4.6301,-4.6301,-4.6301,-4.6301,-4.6295,-4.6293,-4.6293,-4.6305,-4.6302,-4.63,-4.6302,-4.6302,-4.6302,-4.6302,-4.6302,-4.63,-4.7178,-4.7998,-4.874,-4.9675,-5.0534,-5.1316,-5.1375,-5.1394,-5.139,-5.1278,-5.1207,-5.1195,-5.1063,-5.1014,-5.1002,-5.1002,-5.1002,-5.099,-5.1405,-5.1405,-5.1405,-5.1405,-5.1405,-5.1405,-5.1405,-5.1405,-5.1405,-5.1405,-5.1405,-5.1405,-5.1405,-5.1405,-5.1405,-5.1405,-5.1405,-5.1405,-5.1405,-5.1402,-5.1405,-5.1393,-5.1394,-5.1395,-5.1398,-5.1395,-5.1394,-5.1394,-5.1408,-5.1405,-5.1405,-5.1405,-5.1405,-5.1405,-5.1405,-5.1405,-5.1405,-5.1405,-5.1405,-5.1405,-5.1405,-5.1405,-5.1405,-5.1391,-5.139,-5.1405,-5.1391,-5.139,-5.1405,-5.1405,-5.1405,-5.1405,-5.1402,-5.1403,-5.1405,-5.1402,-5.1403,-5.1132,-4.9959,-4.9048,-4.8195,-4.7316,-4.6692,-4.6301,-4.6301,-4.6301,-4.6301,-4.6301,-4.6301,-4.6301,-4.6301,-4.6299,-4.6296,-4.6296,0.0,-4.629,-4.629,-4.629,-4.629,-4.629,-4.629,-4.629,-4.629,-4.629,-4.629,-4.629,-4.6306,-4.6305,-4.6305,-4.6302,-4.63,-4.63,-4.63,-4.63,-4.63,-4.63,-4.6573,-4.712,-4.7959,-4.8745,-4.951,-5.0387,-5.0926,-5.115,-5.115,-5.115,-5.1146,-5.1108,-5.105,-5.1017,-5.0965,-5.0879,-5.0803,-5.0803,-5.0803,-5.0814,-5.1394,-5.1394,-5.1394,-5.1394,-5.1394,-5.1394,-5.1394,-5.1394,-5.1394,-5.1394,-5.1394,-5.1394,-5.1394,-5.1394,-5.1394,-5.1394,-5.1394,-5.1394,-5.1394,-5.1394,-5.1398,-5.1405,-5.1405,-5.1408,-5.1393,-5.1408,-5.1405,-5.1405,-5.1398,-5.1394,-5.1394,-5.1394,-5.1394,-5.1394,-5.1394,-5.1394,-5.1394,-5.1394,-5.1394,-5.1394,-5.1394,-5.1394,-5.1394,-5.1402,-5.14,-5.1394,-5.1403,-5.14,-5.1394,-5.1394,-5.1394,-5.1394,-5.1394,-5.1394,-5.1394,-5.1394,-5.1394,-5.1277,-5.067,-4.9918,-4.9009,-4.7877,-4.6941,-4.6296,-4.6296,-4.6296,-4.6296,-4.6296,-4.6296,-4.6296,-4.6296,-4.6293,-4.6309,-4.6309,-4.6305,-4.63,-4.63,-4.63,-4.63,-4.63,-4.63,-4.63,-4.63,-4.63,-4.63,-4.63,-4.63,-4.63,-4.63,-4.6269,-4.624,-4.624,-4.6457,-4.6582,-4.6582,-4.6621,-4.7077,-4.7955,-4.8736,-4.9383,-4.9891,-5.0748,-5.1079,-5.1002,-5.1002,-5.1002,-5.1002,-5.0979,-5.0951,-5.0906,-5.085,-5.0775,-5.0712,-5.0712,-5.0712,-5.0712,-5.1394,-5.1394,-5.1394,-5.1394,-5.1394,-5.1394,-5.1394,-5.1394,-5.1394,-5.1394,-5.1394,-5.1394,-5.1394,-5.1394,-5.1394,-5.1394,-5.1394,-5.1394,-5.1394,-5.1394,-5.1394,-5.1394,-5.1394,-5.1394,-5.1394,-5.1394,-5.1394,-5.1394,-5.1394,-5.1394,-5.1394,-5.1394,-5.1394,-5.1394,-5.1394,-5.1394,-5.1392,-5.1392,-5.1392,-5.1392,-5.1392,-5.1392,-5.1392,-5.1392,-5.1392,-5.1392,-5.1392,-5.1392,-5.1392,-5.1392,-5.1392,-5.1392,-5.1392,-5.1392,-5.1392,-5.1392,-5.1392,-5.1392,-5.1392,-5.0768,-4.9694,-4.8035,-4.6944,-4.63,-4.63,-4.63,-4.63,-4.63,-4.63,-4.63,-4.63,-4.63,-4.63,-4.63,-4.63,-4.63,-4.63,-4.63,-4.63,-4.63,-4.63,-4.63,-4.63,-4.63,-4.63,-4.63,-4.63,-4.63,-4.63,-4.6176,-4.6118,-4.6118,-4.682,-4.7204,-4.7223,-4.7352,-4.7844,-4.8721,-4.9444,-4.9798,-4.9837,-5.0633,-5.1002,-5.1002,-5.1002,-5.1002,-5.099,-5.0935,-5.0894,-5.0898,-5.0749,-5.0712,-5.0712,-5.0712,-5.0712,-5.0712,-5.1245,-5.1255,-5.1291,-5.1388,-5.1394,-5.1394,-5.1394,-5.1394,-5.1394,-5.1394,-5.1394,-5.1394,-5.1394,-5.1394,-5.1394,-5.1394,-5.1394,-5.1394,-5.1394,-5.1394,-5.1394,-5.1394,-5.1394,-5.1394,-5.1394,-5.1394,-5.1394,-5.1394,-5.1394,-5.1394,-5.1394,-5.1394,-5.1357,-5.1255,-5.1255,-5.1207,-5.1128,-5.1128,-5.1128,-5.1128,-5.1128,-5.1128,-5.1128,-5.1128,-5.1128,-5.1128,-5.1128,-5.1128,-5.1128,-5.1128,-5.1128,-5.1128,-5.1128,-5.1128,-5.1128,-5.1128,-5.1128,-5.1128,-5.1128,-5.052,-4.9655,-4.8684,-4.7822,-4.7042,-4.6436,-4.63,-4.63,-4.63,-4.63,-4.63,-4.63,-4.63,-4.63,-4.63,-4.63,-4.63,-4.63,-4.63,-4.63,-4.63,-4.63,-4.6269,-4.6173,-4.617,-4.6112,-4.6037,-4.6013,-4.6013,-4.6013,-4.6562,-4.6873,-4.6873,-4.7686,-4.8408,-4.9015,-4.8466,-4.8618,-4.9478,-4.9698,-5.006,-5.0574,-5.0826,-5.0883,-5.078,-5.078,-5.078,-5.0799,-5.0766,-5.0758,-5.0758,-5.0712,-5.0712,-5.0712,-5.0712,-5.0712,-5.0712,-5.1094,-5.1128,-5.1146,-5.1238,-5.1245,-5.1245,-5.1245,-5.1245,-5.1245,-5.1245,-5.1245,-5.1245,-5.1245,-5.1245,-5.1245,-5.1245,-5.1245,-5.1245,-5.1245,-5.1245,-5.1245,-5.1245,-5.1245,-5.1278,-5.1325,-5.1262,-5.1245,-5.1245,-5.1245,-5.1245,-5.1245,-5.1245,-5.1199,-5.1128,-5.1128,-5.1074,-5.1002,-5.1002,-5.1002,-5.1002,-5.1002,-5.1002,-5.1002,-5.1002,-5.1002,-5.1002,-5.1002,-5.1002,-5.1002,-5.1002,-5.1002,-5.1002,-5.1002,-5.1002,-5.1002,-5.1002,-5.1002,-5.1002,-5.1002,-5.0633,-5.0104,-4.9387,-4.8321,-4.7304,-4.6778,-4.6391,-4.6141,-4.6141,-4.6141,-4.6141,-4.6141,-4.6141,-4.6141,-4.6141,-4.6141,-4.6141,-4.6141,-4.6141,-4.6141,-4.6141,-4.6141,-4.6105,-4.6037,-4.6013,-4.5987,-4.5905,-4.623,-4.6419,-4.6419,-4.7183,-4.7637,-4.7637,-4.843,-4.9105,-4.9635,-4.9454,-4.9657,-5.0229,-5.0187,-5.0384,-5.0827,-5.0827,-5.0785,-5.0712,-5.0712,-5.0673,-5.0653,-5.0653,-5.0643,-5.0623,-5.0623,-5.0623,-5.0623,-5.0623,-5.0623,-5.0623,-5.0984,-5.099,-5.099,-5.1002,-5.1002,-5.1002,-5.1002,-5.1002,-5.1002,-5.1002,-5.1002,-5.1002,-5.1002,-5.1002,-5.1002,-5.1002,-5.1002,-5.1002,-5.1002,-5.1002,-5.1002,-5.1002,-5.0996,-5.1042,-5.1178,-5.1053,-5.1002,-5.1002,-5.1002,-5.1002,-5.1002,-5.1002,-5.0996,-5.099,-5.099,-5.0978,-5.0972,-5.0972,-5.0972,-5.0972,-5.0972,-5.0972,-5.0972,-5.0972,-5.0972,-5.0972,-5.0972,-5.0972,-5.0972,-5.0972,-5.0972,-5.0972,-5.0972,-5.0972,-5.0972,-5.0972,-5.0972,-5.0972,-5.0972,-5.0972,-5.0797,-5.0053,-4.8631,-4.7356,-4.7237,-4.6535,-4.5899,-4.5899,-4.5899,-4.5899,-4.5899,-4.5899,-4.5899,-4.5899,-4.5899,-4.5899,-4.5899,-4.5899,-4.5899,-4.5899,-4.5899,-4.5899,-4.5889,-4.5956,-4.5983,-4.5983,-4.6793,-4.7272,-4.7272,-4.7983,-4.8392,-4.8385,-4.913,-4.95,-4.95,-5.0288,-5.0758,-5.089,-5.0758,-5.0712,-5.0712,-5.0683,-5.0683,-5.0683,-5.0673,-5.0643,-5.0593,-5.0593,-5.0562,-5.05,-5.05,-5.05,-5.05,-5.05,-5.05,-5.05,-5.0898,-5.0928,-5.0944,-5.099,-5.1002,-5.1002,-5.1002,-5.1002,-5.1002,-5.1002,-5.1002,-5.1002,-5.1002,-5.1002,-5.1002,-5.1002,-5.1002,-5.1002,-5.1002,-5.1002,-5.1002,-5.1002,-5.0945,-5.0942,-5.0951,-5.0991,-5.1002,-5.1002,-5.1002,-5.1002,-5.1002,-5.1002,-5.0972,-5.0928,-5.0928,-5.0851,-5.0775,-5.0775,-5.0775,-5.0775,-5.0775,-5.0775,-5.0775,-5.0775,-5.0775,-5.0775,-5.0775,-5.0775,-5.0775,-5.0775,-5.0775,-5.0775,-5.0775,-5.0775,-5.0775,-5.0775,-5.0775,-5.0775,-5.0775,-5.0775,-5.0717,-5.0543,-4.9705,-4.8615,-4.7454,-4.6535,-4.5899,-4.5899,-4.5899,-4.5899,-4.5899,-4.5899,-4.5899,-4.5899,-4.5899,-4.5899,-4.5899,-4.5899,-4.5899,-4.5899,-4.5899,-4.5886,-4.5822,-4.6333,-4.6678,-4.6678,-4.745,-4.7893,-4.7893,-4.8707,-4.9143,-4.9077,-4.9903,-5.0315,-5.0255,-5.0446,-5.0614,-5.074,-5.0712,-5.0712,-5.0712,-5.0643,-5.0623,-5.0613,-5.0582,-5.0532,-5.0521,-5.0521,-5.0511,-5.05,-5.05,-5.05,-5.05,-5.05,-5.05,-5.05,-5.0784,-5.081,-5.0816,-5.0848,-5.0856,-5.0856,-5.0856,-5.0856,-5.0856,-5.0856,-5.084,-5.0805,-5.0805,-5.0789,-5.0761,-5.0805,-5.0789,-5.0789,-5.0805,-5.0789,-5.0761,-5.0761,-5.0726,-5.0729,-5.0766,-5.0784,-5.0813,-5.0856,-5.0856,-5.0856,-5.0856,-5.0856,-5.0835,-5.081,-5.081,-5.0767,-5.0712,-5.0712,-5.0712,-5.0712,-5.0712,-5.0712,-5.0712,-5.0712,-5.0712,-5.0712,-5.0712,-5.0712,-5.0712,-5.0712,-5.0712,-5.0712,-5.0712,-5.0712,-5.0712,-5.0712,-5.0712,-5.0712,-5.0712,-5.0712,-5.0712,-5.0712,-5.0029,-4.9094,-4.7909,-4.698,-4.6252,-4.5833,-4.5756,-4.5756,-4.5756,-4.5756,-4.5756,-4.5756,-4.5756,-4.5756,-4.5756,-4.5756,-4.5756,-4.5756,-4.5756,-4.5914,-4.6294,-4.6987,-4.7443,-4.7462,-4.8193,-4.8635,-4.8673,-4.9471,-4.9901,-4.9871,-5.0312,-5.0532,-5.05,-5.05,-5.0532,-5.0594,-5.0594,-5.0594,-5.0594,-5.0582,-5.0542,-5.0542,-5.0511,-5.0489,-5.0457,-5.0457,-5.0427,-5.0393,-5.0393,-5.0393,-5.0393,-5.0393,-5.0393,-5.0393,-5.0692,-5.0673,-5.0673,-5.0663,-5.0663,-5.0663,-5.0663,-5.0663,-5.0663,-5.0663,-5.0623,-5.0582,-5.0582,-5.0532,-5.0521,-5.0582,-5.0532,-5.0521,-5.0582,-5.0532,-5.05,-5.05,-5.05,-5.0521,-5.0582,-5.0582,-5.0623,-5.0712,-5.0712,-5.0683,-5.0673,-5.0673,-5.0692,-5.0663,-5.0663,-5.0663,-5.0663,-5.0663,-5.0663,-5.0663,-5.0663,-5.0663,-5.0663,-5.0663,-5.0663,-5.0663,-5.0663,-5.0663,-5.0663,-5.0673,-5.0692,-5.0663,-5.0663,-5.0663,-5.0663,-5.0663,-5.0663,-5.0663,-5.0663,-5.0663,-5.0663,-5.0663,-5.0125,-4.9365,-4.85,-4.7674,-4.6837,-4.5981,-4.5799,-4.5741,-4.5587,-4.5568,-4.5568,-4.5568,-4.5568,-4.5568,-4.5568,-4.5683,-4.5799,-4.5799,-4.5914,-4.629,-4.702,-4.777,-4.8222,-4.8279,-4.8988,-4.9437,-4.9497,-5.0138,-5.05,-5.0489,-5.0489,-5.0478,-5.0478,-5.0468,-5.0468,-5.0468,-5.0468,-5.0478,-5.05,-5.0489,-5.0489,-5.0489,-5.0478,-5.0427,-5.039,-5.039,-5.0348,-5.0302,-5.0302,-5.0302,-5.0302,-5.0302,-5.0302,-5.0283,-5.0623,-5.0613,-5.0603,-5.0532,-5.0532,-5.0532,-5.0532,-5.0532,-5.0532,-5.0532,-5.0521,-5.0511,-5.0511,-5.0511,-5.0511,-5.0511,-5.0511,-5.0511,-5.0511,-5.0511,-5.05,-5.05,-5.05,-5.0511,-5.0511,-5.0511,-5.0563,-5.0712,-5.0712,-5.0663,-5.0613,-5.0613,-5.0593,-5.0532,-5.0532,-5.0532,-5.0532,-5.0532,-5.0532,-5.0532,-5.0532,-5.0532,-5.0532,-5.0532,-5.0532,-5.0532,-5.0532,-5.0532,-5.0532,-5.0593,-5.0563,-5.0532,-5.0532,-5.0532,-5.0532,-5.0532,-5.0532,-5.0532,-5.0532,-5.0532,-5.0532,-5.0532,-5.0445,-5.0119,-4.9255,-4.8422,-4.7617,-4.681,-4.658,-4.6321,-4.5582,-4.5429,-4.5429,-4.5429,-4.5429,-4.5429,-4.5429,-4.6071,-4.6551,-4.6551,-4.7212,-4.7711,-4.7845,-4.8574,-4.9034,-4.9053,-4.984,-5.0327,-5.0338,-5.0453,-5.0478,-5.0424,-5.0412,-5.039,-5.0325,-5.0325,-5.0325,-5.0325,-5.0325,-5.0382,-5.05,-5.0446,-5.0412,-5.0412,-5.0348,-5.0325,-5.0314,-5.0314,-5.0302,-5.0302,-5.0302,-5.0302,-5.0302,-5.0302,-5.0302,-5.0206,-5.0542,-5.0542,-5.0532,-5.0511,-5.05,-5.05,-5.05,-5.05,-5.05,-5.05,-5.0468,-5.0446,-5.0446,-5.0404,-5.0393,-5.0446,-5.0424,-5.0393,-5.0446,-5.0424,-5.0382,-5.0382,-5.0382,-5.0412,-5.0446,-5.0446,-5.0489,-5.0603,-5.0603,-5.0563,-5.0542,-5.0542,-5.0521,-5.05,-5.05,-5.05,-5.05,-5.05,-5.05,-5.05,-5.05,-5.05,-5.05,-5.05,-5.05,-5.05,-5.05,-5.05,-5.0511,-5.0532,-5.0521,-5.05,-5.05,-5.05,-5.05,-5.05,-5.05,-5.05,-5.05,-5.05,-5.05,-5.05,-5.05,-5.0404,-5.0002,-4.9627,-4.8975,-4.7721,-4.7462,-4.7307,-4.6924,-4.6847,-4.6847,-4.6847,-4.6847,-4.6847,-4.6847,-4.7173,-4.7422,-4.7422,-4.8151,-4.8668,-4.8668,-4.9403,-4.9882,-4.9925,-5.0205,-5.0393,-5.0446,-5.0424,-5.0371,-5.0356,-5.0337,-5.0325,-5.0302,-5.0302,-5.0302,-5.0302,-5.0302,-5.0325,-5.0382,-5.0348,-5.0337,-5.0337,-5.0314,-5.0302,-5.0302,-5.0302,-5.0302,-5.0302,-5.0302,-5.0302,-5.0302,-5.0302,-5.0302,-5.0187]},{"header":{"parameterUnit":"m.s-1","parameterCategory":1,"la1":30.6,"la2":28.766,"lo1":-90.7593,"lo2":-88.6598,"dy":0.0162,"dx":0.0183,"nx":116,"ny":114,"refTime":"2023-08-07T12:00:00:Z","depth":0,"parameterNumber":3,"parameterNumberName":"V-component_of_WINDS"},"data":[0.0,0.0,0.0,0.0,0.0,0.0,0.0,0.0,0.0,0.0,0.0,0.0,0.0,0.0,0.0,0.0,0.0,0.0,0.0,0.0,0.0,0.0,0.0,0.0,0.0,0.0,0.0,0.0,0.0,0.0,0.0,0.0,0.0,0.0,0.0,0.0,0.0,0.0,0.0,0.0,0.0,0.0,0.0,0.0,0.0,0.0,0.0,0.0,0.0,0.0,0.0,0.0,0.0,0.0,0.0,0.0,0.0,0.0,0.0,0.0,0.0,0.0,0.0,0.0,0.0,0.0,0.0,0.0,0.0,0.0,0.0,0.0,0.0,0.0,0.0,0.0,0.0,0.0,0.0,0.0,0.0,0.0,0.0,0.0,0.0,0.0,0.0,0.0,0.0,0.0,0.0,0.0,0.0,0.0,0.0,0.0,0.0,0.0,0.0,0.0,0.0,0.0,0.0,0.0,0.0,0.0,0.0,0.0,0.0,0.0,0.0,0.0,0.0,0.0,0.0,0.0,0.0,0.0,0.0,0.0,0.0,0.0,0.0,0.0,0.0,0.0,0.0,0.0,0.0,0.0,0.0,0.0,0.0,0.0,0.0,0.0,0.0,0.0,0.0,0.0,0.0,0.0,0.0,0.0,0.0,0.0,0.0,0.0,0.0,0.0,0.0,0.0,0.0,0.0,0.0,0.0,0.0,0.0,0.0,0.0,0.0,0.0,0.0,0.0,0.0,0.0,0.0,0.0,0.0,0.0,0.0,0.0,0.0,0.0,0.0,0.0,0.0,0.0,0.0,0.0,0.0,0.0,0.0,0.0,0.0,0.0,0.0,0.0,0.0,0.0,0.0,0.0,0.0,0.0,0.0,0.0,0.0,0.0,0.0,0.0,0.0,0.0,0.0,0.0,0.0,0.0,0.0,0.0,0.0,0.0,0.0,0.0,0.0,0.0,0.0,0.0,0.0,0.0,0.0,0.0,0.0,0.0,0.0,0.0,0.0,0.0,0.0,0.0,0.0,0.0,0.0,0.0,0.0,0.0,0.0,0.0,0.0,0.0,0.0,0.0,0.0,0.0,0.0,0.0,0.0,0.0,0.0,0.0,0.0,0.0,0.0,0.0,0.0,0.0,0.0,0.0,0.0,0.0,0.0,0.0,0.0,0.0,0.0,0.0,0.0,0.0,0.0,0.0,0.0,0.0,0.0,0.0,0.0,0.0,0.0,0.0,0.0,0.0,0.0,0.0,0.0,0.0,0.0,0.0,0.0,0.0,0.0,0.0,0.0,0.0,0.0,0.0,0.0,0.0,0.0,0.0,0.0,0.0,0.0,0.0,0.0,0.0,0.0,0.0,0.0,0.0,0.0,0.0,0.0,0.0,0.0,0.0,0.0,0.0,0.0,0.0,0.0,0.0,0.0,0.0,0.0,0.0,0.0,0.0,0.0,0.0,0.0,0.0,0.0,0.0,0.0,0.0,0.0,0.0,0.0,0.0,0.0,0.0,0.0,0.0,0.0,0.0,0.0,0.0,0.0,0.0,0.0,0.0,0.0,0.0,0.0,0.0,0.0,0.0,0.0,0.0,0.0,0.0,0.0,0.0,0.0,0.0,0.0,0.0,0.0,0.0,0.0,0.0,0.0,0.0,0.0,0.0,0.0,0.0,0.0,0.0,0.0,0.0,0.0,0.0,0.0,0.0,0.0,0.0,0.0,0.0,0.0,0.0,0.0,0.0,0.0,0.0,0.0,0.0,0.0,0.0,0.0,0.0,0.0,0.0,0.0,0.0,0.0,0.0,0.0,0.0,0.0,0.0,0.0,0.0,0.0,0.0,0.0,0.0,0.0,0.0,0.0,0.0,0.0,0.0,0.0,0.0,0.0,0.0,0.0,0.0,0.0,0.0,0.0,0.0,0.0,0.0,0.0,0.0,0.0,0.0,0.0,0.0,0.0,0.0,0.0,0.0,0.0,0.0,0.0,0.0,0.0,0.0,0.0,0.0,0.0,0.0,0.0,0.0,0.0,0.0,0.0,0.0,0.0,0.0,0.0,0.0,0.0,0.0,0.0,0.0,0.0,0.0,0.0,0.0,0.0,0.0,0.0,0.0,0.0,0.0,0.0,0.0,0.0,0.0,0.0,0.0,0.0,0.0,0.0,0.0,0.0,0.0,0.0,0.0,0.0,0.0,0.0,0.0,0.0,0.0,0.0,0.0,0.0,0.0,0.0,0.0,0.0,0.0,0.0,0.0,0.0,0.0,0.0,0.0,0.0,0.0,0.0,0.0,0.0,0.0,0.0,0.0,0.0,0.0,0.0,0.0,0.0,0.0,0.0,0.0,0.0,0.0,0.0,0.0,0.0,0.0,0.0,0.0,0.0,0.0,0.0,0.0,0.0,0.0,0.0,0.0,0.0,0.0,0.0,0.0,0.0,0.0,0.0,0.0,0.0,0.0,0.0,0.0,0.0,0.0,0.0,0.0,0.0,0.0,0.0,0.0,0.0,0.0,0.0,0.0,0.0,0.0,0.0,0.0,0.0,0.0,0.0,0.0,0.0,0.0,0.0,0.0,0.0,0.0,0.0,0.0,0.0,0.0,0.0,0.0,0.0,0.0,0.0,0.0,0.0,0.0,0.0,0.0,0.0,0.0,0.0,0.0,0.0,0.0,0.0,0.0,0.0,0.0,0.0,0.0,0.0,0.0,0.0,0.0,0.0,0.0,0.0,0.0,0.0,0.0,0.0,0.0,0.0,0.0,0.0,0.0,0.0,0.0,0.0,0.0,0.0,0.0,0.0,0.0,0.0,0.0,0.0,0.0,0.0,0.0,0.0,0.0,0.0,0.0,0.0,0.0,0.0,0.0,0.0,0.0,0.0,0.0,0.0,0.0,0.0,0.0,0.0,0.0,0.0,0.0,0.0,0.0,0.0,0.0,0.0,0.0,0.0,0.0,0.0,0.0,0.0,0.0,0.0,0.0,0.0,0.0,0.0,0.0,0.0,0.0,0.0,0.0,0.0,0.0,0.0,0.0,0.0,0.0,0.0,0.0,0.0,0.0,0.0,0.0,0.0,0.0,0.0,0.0,0.0,0.0,0.0,0.0,0.0,0.0,0.0,0.0,0.0,0.0,0.0,0.0,0.0,0.0,0.0,0.0,0.0,0.0,0.0,0.0,0.0,0.0,0.0,0.0,0.0,0.0,0.0,0.0,0.0,0.0,0.0,0.0,0.0,0.0,0.0,0.0,0.0,0.0,0.0,0.0,0.0,0.0,0.0,0.0,0.0,0.0,0.0,0.0,0.0,0.0,0.0,0.0,0.0,0.0,0.0,0.0,0.0,0.0,0.0,0.0,0.0,0.0,0.0,0.0,0.0,0.0,0.0,0.0,0.0,0.0,0.0,0.0,0.0,0.0,0.0,0.0,0.0,0.0,0.0,0.0,0.0,0.0,0.0,0.0,0.0,0.0,0.0,0.0,0.0,0.0,0.0,0.0,0.0,0.0,0.0,0.0,0.0,0.0,0.0,0.0,0.0,0.0,0.0,0.0,0.0,0.0,0.0,0.0,0.0,0.0,0.0,0.0,0.0,0.0,0.0,0.0,0.0,0.0,0.0,0.0,0.0,0.0,0.0,0.0,0.0,0.0,0.0,0.0,0.0,0.0,0.0,0.0,0.0,0.0,0.0,0.0,0.0,0.0,0.0,0.0,0.0,0.0,0.0,0.0,0.0,0.0,0.0,0.0,0.0,0.0,0.0,0.0,0.0,0.0,0.0,0.0,0.0,0.0,0.0,0.0,0.0,0.0,0.0,0.0,0.0,0.0,0.0,0.0,0.0,0.0,0.0,0.0,0.0,0.0,0.0,0.0,0.0,0.0,0.0,0.0,0.0,0.0,0.0,0.0,0.0,0.0,0.0,0.0,0.0,0.0,0.0,0.0,0.0,0.0,0.0,0.0,0.0,0.0,0.0,0.0,0.0,0.0,0.0,0.0,0.0,0.0,0.0,0.0,0.0,0.0,0.0,0.0,0.0,0.0,0.0,0.0,0.0,0.0,0.0,0.0,0.0,0.0,0.0,0.0,0.0,0.0,0.0,0.0,0.0,0.0,0.0,0.0,0.0,0.0,0.0,0.0,0.0,0.0,0.0,0.0,0.0,0.0,0.0,0.0,0.0,0.0,0.0,0.0,0.0,0.0,0.0,0.0,0.0,0.0,0.0,0.0,0.0,0.0,0.0,0.0,0.0,0.0,0.0,0.0,0.0,0.0,0.0,0.0,0.0,0.0,0.0,0.0,0.0,0.0,0.0,0.0,0.0,0.0,0.0,0.0,0.0,0.0,0.0,0.0,0.0,0.0,0.0,0.0,0.0,0.0,0.0,0.0,0.0,0.0,0.0,0.0,0.0,0.0,0.0,0.0,0.0,0.0,0.0,0.0,0.0,0.0,0.0,0.0,0.0,0.0,0.0,0.0,0.0,0.0,0.0,0.0,0.0,0.0,0.0,0.0,0.0,0.0,0.0,0.0,0.0,0.0,0.0,0.0,0.0,0.0,0.0,0.0,0.0,0.0,0.0,0.0,0.0,0.0,0.0,0.0,0.0,0.0,0.0,0.0,0.0,0.0,0.0,0.0,0.0,0.0,0.0,0.0,0.0,0.0,0.0,0.0,0.0,0.0,0.0,0.0,0.0,0.0,0.0,0.0,0.0,0.0,0.0,0.0,0.0,0.0,0.0,0.0,0.0,0.0,0.0,0.0,0.0,0.0,0.0,0.0,0.0,0.0,0.0,0.0,0.0,0.0,0.0,0.0,0.0,0.0,0.0,0.0,0.0,0.0,0.0,0.0,0.0,0.0,0.0,0.0,0.0,0.0,0.0,0.0,0.0,0.0,0.0,0.0,0.0,0.0,0.0,0.0,0.0,0.0,0.0,0.0,0.0,0.0,0.0,0.0,0.0,0.0,0.0,0.0,0.0,0.0,0.0,0.0,0.0,0.0,0.0,0.0,0.0,0.0,0.0,0.0,0.0,0.0,0.0,0.0,0.0,0.0,0.0,0.0,0.0,0.0,0.0,0.0,0.0,0.0,0.0,0.0,0.0,0.0,0.0,0.0,0.0,0.0,0.0,0.0,0.0,0.0,0.0,0.0,0.0,0.0,0.0,0.0,0.0,0.0,0.0,0.0,0.0,0.0,0.0,0.0,0.0,0.0,0.0,0.0,0.0,0.0,0.0,0.0,0.0,0.0,0.0,0.0,0.0,0.0,0.0,0.0,0.0,0.0,0.0,0.0,0.0,0.0,0.0,0.0,0.0,0.0,0.0,0.0,0.0,0.0,0.0,0.0,0.0,0.0,0.0,0.0,0.0,0.0,0.0,0.0,0.0,0.0,0.0,0.0,0.0,0.0,0.0,0.0,0.0,0.0,0.0,0.0,0.0,0.0,0.0,0.0,0.0,0.0,0.0,0.0,0.0,0.0,0.0,0.0,0.0,0.0,0.0,0.0,0.0,0.0,0.0,0.0,0.0,0.0,0.0,0.0,0.0,0.0,0.0,0.0,0.0,0.0,0.0,0.0,0.0,0.0,0.0,0.0,0.0,0.0,0.0,0.0,0.0,0.0,0.0,0.0,0.0,0.0,0.0,0.0,0.0,0.0,0.0,0.0,0.0,0.0,0.0,0.0,0.0,0.0,0.0,0.0,0.0,0.0,0.0,0.0,0.0,0.0,0.0,0.0,0.0,0.0,0.0,0.0,0.0,0.0,0.0,0.0,0.0,0.0,0.0,0.0,0.0,0.0,0.0,0.0,0.0,0.0,0.0,0.0,0.0,0.0,0.0,0.0,0.0,0.0,0.0,0.0,0.0,0.0,0.0,0.0,0.0,0.0,0.0,0.0,0.0,0.0,0.0,0.0,0.0,0.0,0.0,0.0,0.0,0.0,0.0,0.0,0.0,0.0,0.0,0.0,0.0,0.0,0.0,0.0,0.0,0.0,0.0,0.0,0.0,0.0,0.0,0.0,0.0,0.0,0.0,0.0,0.0,0.0,0.0,0.0,0.0,0.0,0.0,0.0,0.0,0.0,0.0,0.0,0.0,0.0,0.0,0.0,0.0,0.0,0.0,0.0,0.0,0.0,-2.2896,0.0,0.0,0.0,0.0,0.0,0.0,0.0,0.0,0.0,0.0,0.0,0.0,0.0,0.0,0.0,0.0,0.0,0.0,0.0,0.0,0.0,0.0,0.0,0.0,0.0,0.0,0.0,0.0,0.0,0.0,0.0,0.0,0.0,0.0,0.0,0.0,0.0,0.0,0.0,0.0,0.0,0.0,0.0,0.0,0.0,0.0,0.0,0.0,0.0,0.0,0.0,0.0,0.0,0.0,0.0,0.0,0.0,0.0,0.0,0.0,0.0,0.0,0.0,0.0,0.0,0.0,0.0,0.0,0.0,0.0,0.0,0.0,0.0,0.0,0.0,0.0,0.0,0.0,0.0,0.0,0.0,0.0,0.0,0.0,0.0,0.0,0.0,0.0,0.0,0.0,0.0,0.0,0.0,0.0,0.0,0.0,0.0,0.0,0.0,0.0,0.0,0.0,0.0,0.0,0.0,0.0,0.0,0.0,0.0,0.0,0.0,0.0,0.0,0.0,0.0,0.0,-2.3147,0.0,0.0,0.0,0.0,0.0,0.0,0.0,0.0,0.0,0.0,0.0,0.0,0.0,0.0,0.0,0.0,0.0,0.0,0.0,0.0,0.0,0.0,0.0,0.0,0.0,0.0,0.0,0.0,0.0,0.0,0.0,0.0,0.0,0.0,0.0,0.0,0.0,0.0,0.0,0.0,0.0,0.0,0.0,0.0,0.0,0.0,0.0,0.0,0.0,0.0,0.0,0.0,0.0,0.0,0.0,0.0,0.0,0.0,0.0,0.0,0.0,0.0,0.0,0.0,0.0,0.0,0.0,0.0,0.0,0.0,0.0,0.0,0.0,0.0,0.0,0.0,0.0,0.0,0.0,0.0,0.0,0.0,0.0,0.0,0.0,0.0,0.0,0.0,0.0,0.0,0.0,0.0,0.0,0.0,0.0,0.0,0.0,0.0,0.0,0.0,0.0,0.0,0.0,0.0,0.0,0.0,0.0,0.0,-2.2594,-2.2594,-2.2594,-2.2594,-2.2594,-2.2594,-2.2846,-2.2946,-2.3046,-2.3555,0.0,0.0,0.0,0.0,0.0,0.0,0.0,0.0,0.0,0.0,0.0,0.0,0.0,0.0,0.0,0.0,0.0,0.0,0.0,0.0,0.0,0.0,0.0,0.0,0.0,0.0,0.0,0.0,0.0,0.0,0.0,0.0,0.0,0.0,0.0,0.0,0.0,0.0,-2.8282,-2.8344,-2.8128,-2.7608,-2.6691,0.0,0.0,0.0,0.0,0.0,0.0,0.0,0.0,0.0,0.0,0.0,0.0,0.0,0.0,0.0,0.0,0.0,0.0,0.0,0.0,0.0,0.0,0.0,0.0,0.0,0.0,0.0,0.0,0.0,0.0,0.0,0.0,0.0,0.0,0.0,0.0,0.0,0.0,0.0,0.0,0.0,0.0,0.0,-2.2594,-2.2594,0.0,0.0,0.0,0.0,0.0,0.0,0.0,0.0,0.0,0.0,0.0,0.0,0.0,-2.2594,-2.2594,-2.2594,-2.2594,-2.2594,-2.2594,-2.2594,-2.2594,-2.2594,-2.2594,-2.2594,-2.2644,0.0,-2.2996,-2.3347,0.0,0.0,0.0,0.0,0.0,0.0,0.0,0.0,0.0,0.0,0.0,0.0,0.0,0.0,0.0,0.0,0.0,0.0,0.0,0.0,0.0,0.0,0.0,0.0,0.0,0.0,0.0,0.0,0.0,0.0,0.0,0.0,0.0,0.0,0.0,0.0,-2.8497,-2.8223,-2.8224,-2.8224,-2.8121,-2.7896,-2.7693,-2.7312,-2.6804,-2.5493,0.0,0.0,0.0,0.0,0.0,0.0,0.0,0.0,0.0,0.0,0.0,0.0,0.0,0.0,0.0,0.0,0.0,0.0,0.0,0.0,0.0,0.0,0.0,0.0,0.0,0.0,0.0,0.0,0.0,0.0,0.0,0.0,0.0,0.0,0.0,0.0,0.0,0.0,0.0,-2.2594,-2.2594,-2.2594,-2.2896,-2.2946,0.0,0.0,0.0,0.0,0.0,0.0,0.0,0.0,0.0,-2.2594,-2.2594,-2.2594,-2.2594,-2.2594,-2.2594,-2.2594,-2.2594,-2.2594,-2.2594,-2.2594,-2.2594,-2.2594,-2.2594,-2.2644,-2.2795,-2.3046,-2.3247,-2.3397,0.0,0.0,0.0,0.0,-2.4202,-2.4202,0.0,0.0,0.0,0.0,0.0,0.0,0.0,0.0,0.0,0.0,0.0,0.0,0.0,0.0,0.0,-3.0034,0.0,0.0,0.0,0.0,0.0,0.0,0.0,0.0,0.0,0.0,0.0,0.0,-2.8348,-2.81,-2.81,-2.81,-2.7891,-2.7641,-2.799,-2.7934,-2.7507,-2.5917,-2.5216,0.0,0.0,0.0,0.0,0.0,0.0,0.0,0.0,0.0,0.0,0.0,0.0,0.0,0.0,0.0,0.0,0.0,0.0,0.0,0.0,0.0,0.0,0.0,0.0,0.0,0.0,0.0,0.0,0.0,0.0,0.0,0.0,0.0,0.0,0.0,0.0,0.0,0.0,-2.2594,-2.2594,-2.2594,-2.2745,-2.2795,0.0,0.0,0.0,0.0,0.0,0.0,-2.2594,-2.2594,-2.2594,-2.2594,-2.2594,-2.2594,-2.2594,-2.2594,-2.2594,-2.2594,-2.2594,-2.2594,-2.2594,-2.2594,-2.2594,-2.2594,-2.2594,-2.2594,-2.2653,-2.2946,-2.3097,-2.3147,-2.3696,-2.3904,-2.3954,-2.4152,-2.4202,-2.4202,0.0,0.0,0.0,0.0,0.0,0.0,0.0,0.0,0.0,0.0,0.0,0.0,0.0,0.0,-2.9531,-2.9531,-2.9059,-2.8956,0.0,0.0,0.0,0.0,0.0,0.0,0.0,0.0,0.0,-2.9279,-2.8794,-2.8576,-2.8576,-2.8576,-2.7952,-2.6864,-2.6874,-2.7491,-2.8445,-2.6822,-2.6106,-2.6003,0.0,0.0,0.0,0.0,0.0,0.0,0.0,0.0,0.0,0.0,0.0,0.0,0.0,0.0,0.0,0.0,0.0,0.0,0.0,0.0,0.0,0.0,0.0,0.0,0.0,0.0,0.0,0.0,0.0,0.0,0.0,0.0,0.0,0.0,0.0,0.0,0.0,0.0,0.0,-2.2594,-2.3238,0.0,0.0,0.0,0.0,-2.2644,-2.2594,-2.2594,-2.2594,-2.2594,-2.2594,-2.2594,-2.2594,-2.2594,-2.2594,-2.2594,-2.2594,-2.2594,-2.2594,-2.2594,-2.2594,-2.2594,-2.2594,-2.2594,-2.2594,-2.2594,-2.2644,-2.3147,-2.3397,-2.3447,-2.3954,-2.4202,-2.4202,-2.4202,-2.4202,-2.4202,0.0,0.0,0.0,0.0,0.0,0.0,0.0,0.0,0.0,0.0,0.0,0.0,0.0,-3.0034,-2.9943,-2.9943,-2.952,-2.9428,-2.9943,0.0,0.0,0.0,0.0,0.0,0.0,0.0,-2.9735,-2.8856,-2.839,-2.8173,-2.8162,-2.7872,-2.751,-2.7115,-2.6582,-2.6564,-2.69,-2.5258,-2.4606,-2.4505,-2.3602,-2.3226,0.0,0.0,0.0,0.0,0.0,0.0,0.0,0.0,0.0,0.0,0.0,0.0,0.0,0.0,0.0,0.0,0.0,0.0,0.0,0.0,0.0,0.0,0.0,0.0,0.0,0.0,0.0,0.0,0.0,0.0,0.0,0.0,0.0,0.0,0.0,0.0,0.0,-2.2594,-2.2846,0.0,-2.2653,-2.2846,-2.2896,-2.2594,-2.2594,-2.2594,-2.2594,-2.2594,-2.2594,-2.2594,-2.2594,-2.2594,-2.2594,-2.2594,-2.2594,-2.2594,-2.2594,-2.2695,-2.2846,-2.2846,-2.2946,-2.3097,-2.3097,-2.3097,-2.3147,-2.3506,-2.3447,-2.3197,-2.3746,-2.3954,-2.3954,-2.4152,-2.4202,-2.4202,0.0,0.0,0.0,0.0,0.0,0.0,0.0,0.0,0.0,0.0,0.0,-3.0216,-3.0216,-3.008,-2.9943,-2.9943,-2.952,-2.9439,-2.9943,0.0,0.0,0.0,0.0,0.0,0.0,-3.0049,-2.9524,-2.838,-2.8069,-2.7841,-2.7696,-2.7157,-2.6774,-2.6466,-2.5645,-2.5157,-2.4864,-2.3777,-2.3479,-2.3628,-2.3097,-2.2896,-2.2996,0.0,0.0,0.0,0.0,0.0,0.0,0.0,0.0,0.0,0.0,0.0,0.0,0.0,0.0,0.0,0.0,0.0,0.0,0.0,0.0,0.0,0.0,0.0,0.0,0.0,0.0,0.0,0.0,0.0,0.0,0.0,0.0,0.0,0.0,0.0,-2.2594,-2.2594,-2.2594,-2.2594,-2.2594,-2.2594,-2.2594,-2.2594,-2.2594,-2.2594,-2.2594,-2.2594,-2.2594,-2.2594,-2.2594,-2.2594,-2.2594,-2.2594,-2.2594,-2.2594,-2.2594,-2.2695,-2.2846,-2.2846,-2.2996,-2.3247,-2.3247,-2.3297,-2.3397,-2.3705,-2.3596,-2.3297,-2.3755,-2.3954,-2.3954,-2.4152,-2.4202,-2.4202,0.0,0.0,0.0,0.0,0.0,0.0,0.0,0.0,0.0,0.0,-3.0216,-3.0216,-3.0216,-2.9806,-2.9531,-2.9531,-2.9059,-2.8956,-2.9485,-2.9531,0.0,0.0,0.0,0.0,-2.9423,-2.9838,-2.9355,-2.7924,-2.7914,-2.7686,-2.7262,-2.6486,-2.5693,-2.4894,-2.4115,-2.3338,-2.2644,-2.2594,-2.2996,-2.3578,-2.2896,-2.2745,-2.2996,0.0,0.0,0.0,0.0,0.0,0.0,0.0,0.0,0.0,0.0,0.0,0.0,0.0,0.0,0.0,0.0,0.0,0.0,0.0,0.0,0.0,0.0,0.0,0.0,0.0,0.0,0.0,0.0,0.0,0.0,0.0,0.0,0.0,-2.2644,-2.2594,-2.2594,-2.2594,-2.2594,-2.2594,-2.2594,-2.2594,-2.2594,-2.2594,-2.2594,-2.2594,-2.2594,-2.2594,-2.2594,-2.2594,-2.2603,-2.262,-2.262,-2.2628,-2.2628,-2.2637,-2.2637,-2.2679,-2.2679,-2.2679,-2.283,-2.3081,-2.3081,-2.3232,-2.3464,-2.3714,-2.3814,-2.3854,-2.4102,-2.4202,-2.4202,-2.4202,-2.4202,-2.4202,0.0,0.0,0.0,0.0,0.0,0.0,0.0,0.0,0.0,0.0,-3.0216,-3.0216,-3.0216,-3.008,-2.9988,-2.9988,-2.9886,-2.9852,-2.9988,0.0,0.0,0.0,0.0,0.0,-2.9413,-2.9132,-2.8653,-2.7924,-2.7603,-2.7423,-2.7309,-2.7061,-2.6524,-2.5742,-2.4943,-2.4115,-2.3379,-2.2846,-2.2695,-2.2887,-2.2695,-2.2644,-2.2745,0.0,0.0,0.0,0.0,0.0,0.0,0.0,0.0,0.0,0.0,0.0,0.0,0.0,0.0,0.0,0.0,0.0,0.0,0.0,0.0,0.0,0.0,0.0,0.0,0.0,0.0,0.0,0.0,0.0,0.0,0.0,0.0,-2.3347,-2.2695,-2.2594,-2.2594,-2.2594,-2.2594,-2.2594,-2.2594,-2.2594,-2.2594,-2.2594,-2.2594,-2.2594,-2.2594,-2.2594,-2.2594,-2.2594,-2.2818,-2.2954,-2.2954,-2.3246,-2.3479,-2.367,-2.367,-2.393,-2.4362,-2.4362,-2.4466,-2.4724,-2.4724,-2.4612,-2.4408,-2.4509,-2.4327,-2.4102,-2.4152,-2.4202,-2.4202,-2.4202,-2.4202,-2.4202,0.0,0.0,0.0,0.0,0.0,0.0,0.0,0.0,0.0,0.0,-3.0216,-3.0216,-3.0216,-3.0216,-3.0216,-3.0216,-3.0216,-3.0216,-3.0216,0.0,0.0,0.0,0.0,-2.9324,-2.8547,-2.857,-2.8297,-2.7645,-2.7434,-2.7309,-2.7309,-2.6965,-2.638,-2.5548,-2.4756,-2.3967,-2.3188,-2.2795,-2.2594,-2.2594,-2.2594,-2.2594,-2.2594,-2.2745,-2.2896,-2.2996,-2.3197,-2.3297,-2.3397,-2.3596,0.0,0.0,0.0,0.0,0.0,0.0,0.0,0.0,0.0,0.0,0.0,0.0,0.0,0.0,0.0,0.0,0.0,0.0,0.0,0.0,0.0,0.0,0.0,0.0,-2.3696,-2.3596,-2.2996,-2.2846,-2.2745,-2.2594,-2.2594,-2.2594,-2.2594,-2.2594,-2.2594,-2.2594,-2.2594,-2.2671,-2.2826,-2.2834,-2.2911,-2.3074,-2.3237,-2.3348,-2.3348,-2.3571,-2.3788,-2.3929,-2.3938,-2.4149,-2.4622,-2.4622,-2.4841,-2.5206,-2.5206,-2.514,-2.5032,-2.5032,-2.4886,0.0,0.0,0.0,0.0,0.0,-2.4202,-2.4202,0.0,0.0,0.0,0.0,0.0,0.0,0.0,0.0,0.0,0.0,0.0,-3.0216,-3.0216,-3.0216,-3.0216,-3.0216,-3.0216,-3.017,0.0,0.0,0.0,-2.8055,-2.9236,-2.9133,-2.734,-2.8152,-2.8173,-2.7309,-2.7309,-2.7309,-2.7262,-2.6582,-2.5742,-2.4894,-2.4165,-2.3379,-2.2594,-2.2594,-2.2594,-2.2594,-2.2594,-2.2594,-2.2594,-2.2594,-2.2745,-2.2946,-2.2946,-2.3097,-2.3297,-2.3347,0.0,0.0,0.0,0.0,0.0,0.0,0.0,0.0,0.0,0.0,0.0,0.0,0.0,0.0,0.0,0.0,0.0,0.0,0.0,0.0,0.0,0.0,0.0,0.0,-2.3854,-2.3746,-2.3497,-2.3247,-2.2996,-2.2695,-2.2644,-2.2644,-2.2644,-2.2594,-2.262,-2.2654,-2.2663,-2.2826,-2.316,0.0,0.0,0.0,0.0,-2.3787,-2.3787,-2.3776,-2.3847,-2.3847,-2.3864,-2.4023,-2.4324,-2.4324,-2.465,-2.5195,-2.5195,-2.5272,-2.5488,-2.5488,-2.546,-2.535,-2.4624,-2.4312,-2.4275,-2.4275,-2.4248,-2.4202,0.0,0.0,0.0,0.0,0.0,0.0,0.0,0.0,0.0,-3.0216,-3.0216,-3.0216,-3.0216,-3.0216,-3.0216,-3.0216,-3.0216,-3.0034,0.0,0.0,-2.8329,-2.7998,-2.8547,-2.8375,-2.733,-2.8152,-2.8173,-2.7309,-2.7309,-2.7309,-2.7309,-2.7156,-2.6274,-2.4884,-2.4747,-2.3917,-2.2594,-2.2594,-2.2594,-2.2594,-2.2594,-2.2594,-2.2594,-2.2594,-2.2644,-2.2695,-2.2695,-2.2695,-2.2795,-2.2996,-2.3097,-2.3097,-2.3347,0.0,0.0,0.0,0.0,0.0,0.0,0.0,0.0,0.0,0.0,0.0,0.0,0.0,0.0,0.0,0.0,0.0,0.0,0.0,0.0,-2.4152,-2.4102,-2.4053,-2.3755,-2.3696,-2.3555,-2.3297,-2.3046,-2.2896,-2.2896,-2.2745,-2.2723,-2.298,-2.3006,-2.3169,-2.3537,-2.358,-2.3614,-2.3727,-2.3965,-2.4119,-2.4119,-2.4436,-2.4691,-2.4893,0.0,0.0,-2.5729,-2.5729,-2.5901,-2.6299,-2.6299,-2.616,-2.5901,-2.5901,-2.5708,-2.5405,-2.5249,-2.4992,-2.4656,-2.4656,-2.4496,-2.4202,0.0,0.0,0.0,0.0,0.0,0.0,0.0,0.0,0.0,0.0,-3.0216,-3.0216,-3.0216,-3.0216,-3.0216,-3.0216,-2.9988,0.0,0.0,-2.8222,-2.7704,-2.7088,-2.8072,-2.7986,-2.6747,-2.755,-2.757,-2.6678,-2.6678,-2.6918,-2.7309,-2.687,-2.6081,-2.4894,-2.4461,-2.3678,-2.2594,-2.2594,-2.2594,-2.2594,-2.2594,-2.2594,-2.2594,-2.2594,-2.2594,-2.2594,-2.2594,-2.2594,-2.2594,-2.2745,-2.2795,-2.2795,-2.2946,-2.3097,-2.3247,0.0,0.0,0.0,0.0,0.0,0.0,0.0,0.0,0.0,0.0,0.0,0.0,0.0,0.0,-2.4202,0.0,0.0,-2.4202,-2.4202,-2.4202,-2.4152,-2.4003,-2.4003,-2.3845,-2.3456,-2.3297,-2.3226,-2.3267,-2.3132,-2.3143,-2.3365,-2.3391,-2.3554,-2.3931,-2.3956,-2.405,-2.4239,-2.4427,-2.453,-2.453,-2.4727,-2.4868,-2.5026,-2.5026,-2.5238,-2.5679,-2.5844,-2.6072,-2.6364,-2.6527,-2.6472,-2.627,-2.627,-2.616,-2.5977,-2.5977,-2.561,-2.5078,-2.5078,-2.4992,-2.4808,0.0,0.0,0.0,0.0,0.0,0.0,0.0,0.0,0.0,0.0,0.0,-3.0216,-3.0216,-3.0216,-3.0216,0.0,0.0,0.0,0.0,-2.76,-2.7183,-2.6139,-2.7498,-2.7647,-2.6352,-2.6963,-2.6884,-2.61,-2.5945,-2.6187,-2.6812,-2.6187,-2.545,-2.4648,-2.3967,-2.3288,-2.2594,-2.2594,-2.2594,-2.2594,-2.2594,-2.2594,-2.2594,-2.2594,-2.2594,-2.2594,-2.2594,-2.2594,-2.2594,-2.2594,-2.2594,-2.2603,-2.2644,-2.2795,-2.2996,-2.3356,-2.3596,0.0,0.0,0.0,0.0,0.0,0.0,0.0,0.0,0.0,-2.4202,-2.4202,-2.4202,-2.4202,-2.4202,-2.4202,-2.4202,-2.4202,-2.4202,-2.4202,-2.4202,-2.4202,-2.408,-2.3713,-2.3622,-2.3646,-2.3658,-2.3703,-2.38,-2.3963,-2.3936,-2.4046,-2.437,-2.4342,-2.4496,-2.4812,-2.4889,-2.4924,-2.4924,-2.5001,-2.5001,-2.4924,-2.4924,-2.5039,-2.5221,-2.5569,-2.5852,-2.6127,-2.6473,-2.6591,-2.6591,-2.6591,-2.6591,-2.6591,-2.6591,-2.6188,-2.5601,-2.5571,-2.5488,-2.5424,0.0,0.0,0.0,0.0,0.0,0.0,0.0,0.0,0.0,0.0,0.0,0.0,0.0,0.0,0.0,0.0,0.0,0.0,0.0,-2.6802,-2.6235,-2.61,-2.6665,-2.7038,-2.7167,-2.6969,-2.6635,-2.61,-2.5392,-2.5089,-2.5187,-2.5089,-2.4599,-2.3827,-2.3728,-2.3288,-2.2594,-2.2594,-2.2594,-2.2594,-2.2594,-2.2594,-2.2594,-2.2594,-2.2594,-2.2594,-2.2594,-2.2594,-2.2594,-2.2594,-2.2594,-2.2644,-2.2896,-2.2795,-2.2795,-2.3546,0.0,-2.3546,-2.4053,-2.4202,-2.4202,-2.4202,-2.4202,-2.4202,0.0,0.0,-2.4202,-2.4202,-2.4202,-2.4202,-2.4202,-2.4202,-2.4202,-2.4202,-2.4202,-2.4202,-2.4202,-2.4202,-2.429,-2.4615,-2.4407,-2.4263,-2.4308,-2.4416,-2.4624,-2.4907,-2.4727,-2.4722,-2.5087,-2.4855,-2.4778,-2.4821,-2.5138,-2.5309,-2.5309,-2.5643,-2.5643,-2.5309,-2.5309,-2.5289,-2.5221,-2.5569,-2.5852,-2.6127,-2.6473,-2.6591,-2.6591,-2.6591,-2.6591,-2.6591,-2.6591,-2.6536,-2.6408,-2.6085,-2.5727,-2.5424,0.0,0.0,0.0,0.0,0.0,0.0,0.0,0.0,0.0,0.0,0.0,0.0,0.0,0.0,0.0,0.0,0.0,0.0,-2.7636,-2.6205,-2.5392,-2.5392,-2.5856,-2.5836,-2.5206,-2.5329,-2.5189,-2.4716,-2.4372,-2.4461,-2.4894,-2.4402,-2.4016,-2.3678,-2.3238,-2.2896,-2.2594,-2.2594,-2.2594,-2.2594,-2.2594,-2.2594,-2.2594,-2.2594,-2.2594,-2.2594,-2.2795,-2.2846,0.0,0.0,-2.2946,-2.2846,-2.2946,-2.2896,-2.2946,-2.3397,-2.3596,0.0,-2.4102,-2.4202,0.0,0.0,-2.4202,-2.4202,-2.4202,-2.4202,-2.4202,-2.4202,-2.4202,-2.4202,-2.4202,-2.4202,-2.4202,0.0,-2.4202,-2.4202,-2.4202,-2.4413,-2.4633,-2.4757,-2.5137,-2.5254,-2.5053,-2.5092,-2.5192,-2.5422,-2.5167,-2.5168,-2.5552,-2.5298,-2.5241,-2.5406,-2.5617,-2.5703,-2.5703,-2.5857,-2.5857,-2.5703,-2.5703,-2.5554,-2.5345,-2.5634,-2.59,-2.6127,-2.6473,-2.6591,-2.6591,-2.6591,-2.6591,-2.6591,-2.6591,-2.6591,-2.6564,-2.6389,-2.6215,-2.6078,0.0,0.0,0.0,0.0,0.0,0.0,0.0,0.0,0.0,0.0,0.0,0.0,0.0,0.0,0.0,0.0,0.0,0.0,0.0,-2.5761,-2.4933,-2.4599,-2.4889,0.0,-2.4075,-2.4167,-2.4016,-2.3678,-2.3488,-2.3678,-2.4254,-2.3678,-2.3388,-2.3388,-2.2846,-2.2594,-2.2594,-2.2594,-2.2594,-2.2594,-2.2594,-2.2594,-2.2594,-2.2594,-2.2644,-2.2745,-2.2946,-2.2996,0.0,0.0,-2.3247,-2.3097,-2.3197,-2.3147,-2.3197,-2.3497,-2.3755,-2.3954,-2.4152,0.0,0.0,-2.4202,-2.4202,-2.4202,-2.4202,-2.4202,-2.4202,-2.4202,-2.4202,-2.4202,-2.4202,-2.4202,0.0,-2.4202,-2.4202,-2.4202,-2.4202,-2.4569,-2.4821,-2.4931,-2.5598,-2.5951,-2.581,-2.5819,-2.5829,-2.5944,-2.5721,-2.5731,-2.6021,-2.5804,-2.5766,-2.6041,-2.6037,-2.6088,-2.6088,-2.6199,-2.6199,-2.6088,-2.6088,-2.5949,-2.5686,-2.5922,-2.6116,-2.6245,-2.6473,-2.6591,-2.6591,-2.6591,-2.6591,-2.6591,-2.6591,-2.6591,-2.6591,-2.6591,-2.6591,-2.6591,0.0,0.0,0.0,0.0,0.0,0.0,0.0,0.0,0.0,0.0,0.0,0.0,0.0,0.0,0.0,0.0,0.0,0.0,0.0,-2.5412,-2.5119,-2.3777,-2.3737,-2.4084,-2.4845,-2.4125,-2.3687,-2.3678,-2.2987,-2.2644,-2.2695,-2.2644,-2.2644,-2.2644,-2.2594,-2.2594,-2.2594,-2.2594,-2.2594,-2.2594,-2.2594,-2.2594,-2.2594,-2.2594,-2.2745,-2.2996,-2.2996,0.0,0.0,0.0,-2.3397,-2.3447,-2.3696,-2.3596,0.0,-2.4003,-2.4202,0.0,0.0,0.0,-2.4202,-2.4202,-2.4202,-2.4202,-2.4202,-2.4202,-2.4202,-2.4202,-2.4202,-2.4202,-2.4202,-2.4202,-2.4202,-2.4202,-2.4202,-2.4202,-2.4202,-2.4569,-2.4922,-2.5359,-2.5764,-2.6177,0.0,-2.6573,-2.6573,-2.6582,-2.6589,-2.6639,-2.6648,-2.6505,-2.6362,-2.638,-2.6453,-2.6473,-2.6473,-2.685,-2.685,-2.6473,-2.6473,-2.6444,-2.6353,-2.6593,-2.6616,-2.6591,-2.6591,-2.6591,-2.6591,-2.6591,-2.6591,-2.6591,-2.6591,-2.6591,-2.6591,-2.6591,-2.6591,-2.6591,0.0,0.0,0.0,0.0,0.0,0.0,0.0,0.0,0.0,0.0,0.0,0.0,0.0,0.0,0.0,0.0,0.0,0.0,0.0,-2.4648,-2.3917,-2.3985,-2.3338,-2.3088,-2.3379,-2.3088,-2.2996,-2.2996,-2.2745,-2.2594,-2.2594,-2.2594,-2.2594,-2.2594,-2.2594,-2.2594,-2.2594,-2.2594,-2.2594,-2.2594,-2.2594,-2.2594,-2.2594,-2.2795,-2.2896,-2.3046,0.0,0.0,0.0,0.0,0.0,0.0,-2.3746,-2.3755,0.0,-2.4102,-2.4202,-2.4202,0.0,0.0,-2.4202,-2.4202,-2.4202,-2.4202,-2.4202,-2.4202,-2.4202,-2.4202,-2.4202,-2.4202,-2.4202,-2.4202,-2.4202,-2.4202,-2.4202,-2.4202,-2.4202,-2.479,-2.5277,-2.5405,-2.5968,0.0,0.0,0.0,0.0,-2.6591,-2.6663,-2.6821,-2.7101,-2.7142,-2.7237,-2.7434,-2.7753,-2.7895,-2.7895,-2.8026,-2.8026,-2.7886,-2.7123,-2.6751,-2.6717,-2.6455,-2.6308,-2.63,-2.6473,-2.6591,-2.6591,-2.6591,-2.6591,-2.6591,-2.6591,-2.6591,-2.6591,-2.6591,-2.6591,-2.6591,0.0,0.0,0.0,0.0,0.0,0.0,0.0,0.0,0.0,0.0,0.0,0.0,0.0,0.0,0.0,0.0,0.0,0.0,0.0,0.0,-2.3836,-2.3836,-2.3147,-2.2745,-2.2745,-2.2644,-2.2594,-2.2594,-2.2594,-2.2594,-2.2594,-2.2594,-2.2594,-2.2594,-2.2594,-2.2594,-2.2594,-2.2594,-2.273,-2.2961,-2.2961,-2.309,-2.3313,-2.3518,-2.3531,0.0,0.0,0.0,0.0,0.0,0.0,0.0,0.0,-2.3954,-2.4003,-2.4152,-2.4202,-2.4202,0.0,-2.4202,-2.4202,-2.4202,-2.4202,-2.4202,-2.4202,-2.4202,-2.4202,-2.4202,-2.4202,-2.4202,-2.4202,-2.4202,-2.4202,-2.4202,-2.4202,-2.4202,-2.4202,-2.4909,-2.5424,-2.5424,-2.6087,0.0,0.0,0.0,0.0,-2.6784,-2.6992,-2.7271,-2.7688,-2.7795,-2.8012,-2.8396,-2.8524,-2.8587,-2.8587,-2.8587,-2.8516,-2.8374,-2.7605,-2.7164,-2.7013,-2.6641,-2.6427,-2.63,-2.6527,-2.6591,-2.6591,-2.6591,-2.6591,-2.6591,-2.6591,-2.6591,-2.6591,-2.6591,-2.6591,-2.6591,0.0,0.0,0.0,0.0,0.0,0.0,0.0,0.0,0.0,0.0,0.0,0.0,0.0,0.0,0.0,0.0,0.0,0.0,0.0,0.0,0.0,-2.3447,-2.3147,-2.2996,-2.2996,-2.2745,-2.2594,-2.2594,-2.2603,-2.2603,-2.2594,-2.2603,-2.2594,-2.2594,-2.2594,-2.2594,-2.2594,-2.2644,-2.302,-2.3564,-2.3564,-2.3998,-2.4552,-2.4604,0.0,0.0,0.0,0.0,0.0,0.0,0.0,0.0,0.0,0.0,-2.4202,-2.4202,-2.4202,-2.4202,-2.4202,-2.4202,-2.4202,-2.4202,-2.4202,-2.4202,-2.4202,-2.4202,-2.4202,-2.4202,-2.4202,-2.4202,0.0,0.0,-2.4202,-2.4202,-2.4202,-2.4202,-2.4202,-2.4909,-2.5424,0.0,0.0,0.0,0.0,0.0,0.0,-2.7178,0.0,-2.8005,-2.837,-2.8478,-2.8688,-2.9058,-2.8832,-2.8648,-2.8648,-2.8648,-2.8453,-2.8044,-2.7948,-2.7669,-2.7281,-2.7222,-2.694,-2.6591,-2.6591,-2.6591,-2.6591,-2.6591,-2.6591,-2.6591,-2.6591,-2.6591,-2.6591,-2.6591,-2.6591,-2.6591,0.0,0.0,0.0,0.0,0.0,0.0,0.0,0.0,0.0,0.0,0.0,0.0,0.0,0.0,0.0,0.0,0.0,0.0,0.0,0.0,0.0,0.0,0.0,0.0,0.0,0.0,0.0,0.0,0.0,-2.2695,-2.2896,-2.2695,-2.2594,-2.2603,-2.2795,-2.2896,-2.2896,-2.3097,-2.3309,-2.3456,0.0,-2.3746,-2.4152,0.0,0.0,0.0,0.0,0.0,0.0,0.0,0.0,0.0,0.0,0.0,-2.4202,-2.4202,0.0,-2.4202,-2.4202,-2.4202,-2.4202,-2.4202,-2.4202,-2.4202,-2.4202,-2.4202,-2.4202,-2.4202,-2.4202,-2.4202,0.0,0.0,0.0,-2.4202,-2.4202,0.0,-2.4202,-2.4909,0.0,0.0,0.0,-2.6591,-2.6591,-2.6591,0.0,0.0,-2.7767,-2.8005,-2.837,-2.8714,-2.8911,-2.9011,-2.9234,-2.9328,-2.9328,-2.9328,-2.8983,-2.8301,-2.8007,-2.7596,-2.7203,-2.6921,-2.6683,-2.6591,-2.6591,-2.6591,-2.6591,-2.6591,-2.6591,-2.6591,-2.6591,-2.6591,-2.6591,-2.6591,-2.6591,-2.6591,0.0,0.0,0.0,0.0,0.0,0.0,0.0,0.0,0.0,0.0,0.0,0.0,0.0,0.0,0.0,0.0,0.0,0.0,0.0,0.0,0.0,0.0,0.0,0.0,0.0,0.0,0.0,0.0,0.0,0.0,0.0,-2.2946,-2.2946,-2.2946,-2.3097,-2.3197,-2.3197,0.0,0.0,0.0,0.0,0.0,0.0,0.0,0.0,0.0,0.0,0.0,0.0,0.0,0.0,-2.4202,-2.4202,-2.4202,-2.4202,-2.4202,0.0,-2.4202,-2.4202,-2.4202,-2.4202,-2.4202,-2.4202,-2.4202,-2.4202,-2.4202,-2.4202,-2.4202,-2.4202,0.0,0.0,0.0,0.0,0.0,0.0,0.0,-2.4202,-2.4909,-2.5424,0.0,-2.6087,0.0,-2.6591,-2.6591,-2.6848,0.0,-2.7721,-2.8022,-2.8618,-2.8865,-2.9067,-2.9232,-2.9452,-2.9571,-2.9571,-2.9232,-2.8838,-2.8388,-2.7792,-2.7445,-2.716,-2.6765,-2.6591,-2.6591,0.0,-2.6591,-2.6591,-2.6591,-2.6591,-2.6591,-2.6591,-2.6591,-2.6591,-2.6591,-2.6591,-2.6591,0.0,0.0,0.0,0.0,0.0,0.0,0.0,0.0,0.0,0.0,0.0,0.0,0.0,0.0,0.0,0.0,0.0,0.0,0.0,0.0,0.0,0.0,0.0,0.0,0.0,0.0,0.0,0.0,0.0,0.0,0.0,0.0,0.0,0.0,0.0,0.0,0.0,0.0,0.0,0.0,0.0,0.0,0.0,0.0,0.0,0.0,0.0,0.0,0.0,0.0,-2.4202,-2.4202,-2.4202,-2.4202,-2.4202,-2.4202,-2.4202,-2.4202,-2.4202,-2.4202,-2.4202,-2.4202,-2.4202,-2.4202,-2.4202,-2.4202,-2.4202,-2.4202,0.0,0.0,-2.4202,0.0,-2.4202,-2.4202,0.0,-2.4202,-2.4202,-2.4909,-2.5424,-2.5424,-2.6087,-2.6591,-2.6591,-2.6591,-2.6756,-2.7141,-2.749,-2.804,-2.8865,-2.8957,-2.914,-2.9479,-2.9489,-2.947,-2.9415,-2.8737,-2.8342,-2.8223,-2.7517,-2.715,-2.7086,-2.6747,-2.6591,-2.6591,-2.6591,0.0,-2.6591,-2.6591,-2.6591,-2.6591,-2.6591,-2.6591,-2.6591,-2.6591,-2.6591,-2.6591,0.0,0.0,0.0,0.0,0.0,0.0,0.0,0.0,0.0,0.0,-2.2071,-2.2327,0.0,0.0,0.0,0.0,0.0,0.0,0.0,0.0,0.0,0.0,0.0,0.0,0.0,0.0,0.0,0.0,0.0,0.0,0.0,0.0,0.0,0.0,0.0,0.0,0.0,0.0,0.0,0.0,0.0,0.0,0.0,0.0,0.0,0.0,0.0,0.0,0.0,0.0,-2.4202,-2.4202,-2.4202,-2.4202,-2.4202,-2.4202,-2.4202,-2.4202,-2.4202,-2.4202,-2.4202,-2.4202,-2.4202,-2.4202,-2.4202,-2.4202,0.0,0.0,0.0,-2.4202,-2.4202,-2.4202,0.0,-2.4202,0.0,0.0,0.0,0.0,-2.5424,0.0,0.0,0.0,0.0,0.0,0.0,0.0,0.0,-2.7636,-2.8452,-2.881,-2.9012,-2.9085,-2.9085,-2.8929,-2.8599,-2.8462,-2.8058,-2.7389,-2.7242,-2.7004,-2.6692,-2.6619,-2.6591,-2.6591,-2.6591,0.0,-2.6591,-2.6591,-2.6591,-2.6591,-2.6591,-2.6591,-2.6591,-2.6591,-2.6591,-2.6591,0.0,0.0,0.0,0.0,0.0,0.0,0.0,-2.1696,-2.1696,-2.1696,-2.1861,-2.2053,-2.2254,-2.2455,0.0,0.0,0.0,0.0,0.0,0.0,0.0,0.0,0.0,0.0,0.0,0.0,0.0,0.0,0.0,0.0,0.0,0.0,0.0,0.0,0.0,0.0,0.0,0.0,0.0,0.0,0.0,0.0,0.0,0.0,0.0,0.0,0.0,0.0,0.0,0.0,-2.4202,-2.4202,-2.4202,-2.4202,-2.4202,-2.4202,-2.4202,-2.4202,-2.4202,-2.4202,-2.4202,-2.4202,-2.4202,-2.4202,-2.4202,0.0,0.0,0.0,0.0,-2.4202,-2.4202,0.0,0.0,0.0,0.0,0.0,0.0,0.0,0.0,0.0,0.0,0.0,0.0,0.0,0.0,0.0,0.0,-2.7536,-2.8352,-2.8764,-2.8984,-2.8984,-2.8783,-2.859,-2.8397,-2.7967,-2.7563,-2.7178,-2.6967,-2.6774,-2.6591,-2.6591,-2.6591,-2.6591,-2.6591,0.0,-2.6591,-2.6591,-2.6591,-2.6537,-2.5907,-2.5688,-2.5569,-2.4953,-2.4723,-2.4723,0.0,0.0,0.0,0.0,0.0,0.0,0.0,-2.1696,-2.1696,-2.1696,-2.1696,-2.1806,-2.2117,-2.2153,-2.2318,0.0,0.0,0.0,0.0,0.0,0.0,0.0,0.0,0.0,0.0,0.0,0.0,0.0,0.0,0.0,0.0,0.0,0.0,0.0,0.0,0.0,0.0,0.0,0.0,0.0,0.0,0.0,0.0,0.0,0.0,0.0,0.0,0.0,0.0,0.0,-2.4202,-2.4202,-2.4202,-2.4202,-2.4202,-2.4202,-2.4202,-2.4202,-2.4202,-2.4202,-2.4202,-2.4202,-2.4202,-2.4202,-2.4202,-2.4202,0.0,0.0,-2.4202,-2.4202,-2.4202,0.0,0.0,0.0,0.0,0.0,0.0,0.0,0.0,0.0,0.0,0.0,0.0,0.0,0.0,0.0,0.0,0.0,-2.8223,-2.8553,-2.8718,-2.8718,-2.8425,-2.8223,-2.8132,-2.7499,-2.7132,-2.705,-2.6738,-2.6591,-2.6582,-2.6309,-2.619,-2.619,-2.5962,0.0,0.0,-2.5852,-2.5852,-2.5734,-2.4778,-2.4381,-2.427,-2.3368,-2.2974,-2.2974,0.0,0.0,0.0,0.0,0.0,0.0,0.0,-2.1696,-2.1696,-2.1696,-2.1696,-2.1705,-2.1742,-2.1751,-2.1906,0.0,0.0,0.0,0.0,0.0,0.0,0.0,0.0,0.0,0.0,0.0,0.0,0.0,0.0,0.0,0.0,0.0,0.0,0.0,0.0,0.0,0.0,0.0,0.0,0.0,0.0,0.0,0.0,0.0,0.0,0.0,0.0,0.0,0.0,0.0,0.0,-2.4202,-2.4202,-2.4202,-2.4202,-2.4202,0.0,0.0,-2.4202,-2.4202,-2.4202,-2.4202,-2.4202,-2.4202,-2.4202,0.0,0.0,0.0,-2.4202,-2.4202,-2.4202,-2.4202,-2.4202,0.0,0.0,0.0,0.0,0.0,0.0,0.0,0.0,0.0,0.0,0.0,0.0,0.0,0.0,0.0,-2.7792,-2.7914,-2.7932,-2.7932,-2.7838,-2.7711,-2.7288,-2.7215,-2.6995,-2.6637,-2.6609,-2.6591,-2.6537,-2.5459,-2.4953,-2.4889,-2.3824,0.0,0.0,-2.3311,-2.3311,-2.332,-2.3207,-2.3151,-2.3143,-2.303,-2.2974,-2.2974,0.0,0.0,0.0,0.0,0.0,0.0,-2.165,-2.1696,-2.1696,-2.1696,-2.1696,-2.1696,-2.1696,-2.1696,-2.1751,0.0,0.0,0.0,0.0,0.0,0.0,0.0,0.0,0.0,0.0,0.0,0.0,0.0,0.0,0.0,0.0,0.0,0.0,0.0,0.0,0.0,0.0,0.0,0.0,0.0,0.0,0.0,0.0,0.0,0.0,0.0,0.0,0.0,0.0,0.0,0.0,0.0,-2.4202,-2.4202,0.0,0.0,-2.4202,-2.4202,-2.4202,-2.4202,-2.4202,-2.4202,-2.4202,-2.4202,-2.4202,0.0,0.0,-2.4202,-2.4202,-2.4202,-2.4202,-2.4202,-2.4202,0.0,0.0,0.0,0.0,0.0,0.0,0.0,0.0,0.0,0.0,0.0,0.0,0.0,0.0,0.0,-2.4924,-2.5347,-2.5642,-2.5642,-2.543,-2.5186,-2.5043,-2.4766,-2.458,-2.4437,-2.4437,-2.4437,-2.4445,-2.3935,-2.3712,-2.3656,-2.3015,0.0,0.0,-2.2789,-2.2797,-2.2918,-2.2191,-2.1907,-2.1851,-2.1117,-2.0838,-2.078,0.0,0.0,0.0,0.0,0.0,-2.1209,-2.1458,-2.1614,-2.1696,-2.1696,-2.1696,-2.1696,-2.1696,-2.1696,-2.1696,-2.1696,0.0,0.0,0.0,0.0,0.0,0.0,0.0,0.0,0.0,0.0,-2.3041,-2.3316,0.0,0.0,0.0,0.0,0.0,0.0,0.0,0.0,0.0,0.0,0.0,0.0,0.0,0.0,0.0,0.0,0.0,0.0,0.0,0.0,0.0,0.0,0.0,0.0,0.0,0.0,0.0,0.0,-2.4202,-2.4202,-2.4202,-2.4202,-2.4202,-2.4202,-2.4202,-2.4202,0.0,0.0,-2.4202,-2.4202,-2.4202,-2.4202,-2.4202,-2.4202,-2.4202,0.0,0.0,0.0,0.0,0.0,0.0,0.0,0.0,0.0,0.0,0.0,0.0,0.0,0.0,0.0,0.0,-2.2455,-2.3115,-2.3813,-2.3574,-2.3446,-2.3446,-2.3158,-2.2974,-2.2974,-2.2974,-2.2974,-2.2982,-2.2515,-2.2353,-2.241,-2.1764,0.0,0.0,-2.1658,-2.1722,-2.1851,-2.101,-2.0608,-2.0429,-1.9584,-1.9185,-1.9068,0.0,0.0,0.0,0.0,0.0,0.0,-2.1117,-2.1421,-2.1696,-2.1696,-2.1696,-2.1696,-2.1696,-2.1696,-2.1696,-2.1696,0.0,0.0,0.0,0.0,0.0,0.0,0.0,0.0,0.0,0.0,-2.2904,-2.2913,-2.2913,-2.3114,0.0,0.0,0.0,0.0,0.0,0.0,0.0,0.0,0.0,0.0,0.0,0.0,0.0,0.0,0.0,0.0,0.0,0.0,0.0,0.0,0.0,0.0,0.0,0.0,0.0,0.0,-2.4202,-2.4202,-2.4202,-2.4202,-2.4202,-2.4202,-2.4202,-2.4202,0.0,0.0,-2.4202,-2.4202,-2.4202,-2.4202,-2.4202,-2.4202,-2.4202,-2.4202,0.0,0.0,0.0,0.0,0.0,0.0,0.0,0.0,0.0,0.0,0.0,0.0,0.0,0.0,0.0,-1.943,-2.0565,-2.2934,-2.299,-2.2982,-2.2982,-2.2974,-2.2974,-2.2974,-2.2974,-2.2974,-2.2974,-2.143,-2.0923,0.0,0.0,0.0,0.0,-1.9424,-1.9424,-1.9424,-1.9424,-1.9243,-1.8933,-1.8939,-1.8706,-1.8421,0.0,0.0,0.0,0.0,0.0,0.0,0.0,-2.1044,-2.131,-2.131,-2.1513,-2.1696,-2.1696,-2.1696,-2.1696,-2.1696,0.0,0.0,0.0,0.0,0.0,0.0,0.0,0.0,0.0,0.0,-2.2208,-2.2474,-2.2474,-2.2693,-2.3096,-2.2745,-2.2606,0.0,0.0,0.0,0.0,0.0,0.0,0.0,0.0,0.0,0.0,0.0,0.0,0.0,0.0,0.0,0.0,0.0,0.0,0.0,0.0,0.0,0.0,0.0,0.0,0.0,-2.4202,-2.4202,-2.4202,-2.4202,-2.4202,-2.4202,-2.4202,-2.4202,-2.4202,-2.4202,-2.4202,-2.4202,-2.4202,-2.4202,-2.4202,-2.4202,0.0,0.0,0.0,0.0,0.0,0.0,0.0,0.0,0.0,0.0,0.0,0.0,0.0,0.0,0.0,-1.9424,-1.9764,-2.05,-2.0551,-2.0551,-2.0551,-2.0551,-2.0551,-2.0551,-2.0551,-2.0551,-2.05,-2.004,0.0,0.0,0.0,0.0,0.0,-1.8894,-1.8829,-1.9062,-1.8829,-1.8655,-1.8532,-1.8532,-1.8473,-1.8363,0.0,0.0,0.0,0.0,0.0,0.0,0.0,-2.0631,-2.0934,-2.1089,-2.1337,-2.1513,-2.1678,-2.1696,-2.1696,-2.1696,0.0,0.0,0.0,0.0,0.0,0.0,0.0,0.0,-2.1696,-2.1696,-2.1806,-2.2053,-2.2053,-2.2263,-2.2666,-2.2283,-2.215,-2.2232,-2.1582,0.0,0.0,0.0,0.0,0.0,0.0,0.0,-2.3596,0.0,0.0,0.0,0.0,0.0,0.0,0.0,0.0,0.0,0.0,0.0,0.0,0.0,-2.4202,0.0,0.0,-2.4202,-2.4202,-2.4202,-2.4202,0.0,0.0,-2.3845,-2.3696,-2.4102,-2.3845,-2.3696,-2.4102,-2.4202,-2.4202,-2.4202,0.0,0.0,0.0,0.0,0.0,0.0,0.0,0.0,0.0,0.0,0.0,0.0,0.0,0.0,0.0,-1.9424,-1.9424,-1.9424,-1.9424,-1.9424,-1.9424,-1.9424,-1.9424,-1.9424,-1.9424,-1.9424,-1.9424,-1.9243,0.0,0.0,0.0,0.0,0.0,-1.8765,-1.8648,-1.8706,-1.848,-1.8363,-1.8252,-1.8252,-1.8188,-1.8012,0.0,0.0,0.0,0.0,0.0,0.0,0.0,-2.0218,-2.0613,-2.097,-2.1071,-2.1255,-2.1604,-2.1678,-2.1696,-2.1696,0.0,0.0,0.0,0.0,0.0,0.0,0.0,0.0,-2.1696,-2.1696,-2.1696,-2.1696,-2.1696,-2.1879,-2.2236,-2.1243,-2.15,-2.2679,-2.1088,-2.1534,-2.3466,-2.3996,-2.3596,-2.2728,-2.3795,-2.3596,0.0,0.0,0.0,0.0,0.0,0.0,0.0,0.0,0.0,0.0,0.0,0.0,0.0,0.0,0.0,0.0,0.0,0.0,0.0,0.0,0.0,0.0,0.0,-2.3338,0.0,-2.3845,-2.3188,-2.2728,-2.3795,-2.3954,-2.4003,-2.4053,0.0,0.0,0.0,0.0,0.0,0.0,0.0,0.0,0.0,0.0,0.0,0.0,0.0,0.0,0.0,-1.9424,-1.9424,-1.9424,-1.9424,-1.9424,-1.9424,-1.9424,-1.9424,-1.9424,-1.9424,-1.9424,-1.9366,-1.9062,0.0,0.0,0.0,0.0,0.0,-1.8816,-1.8648,-1.8363,-1.8363,-1.8194,-1.7972,-1.7972,-1.7784,-1.7485,0.0,0.0,0.0,0.0,0.0,0.0,0.0,0.0,0.0,0.0,-2.0732,-2.1145,-2.1245,-2.1504,-2.1696,0.0,0.0,0.0,0.0,0.0,0.0,0.0,0.0,0.0,-2.1696,-2.1696,-2.1696,-2.1696,-2.1696,-2.1742,-2.1833,-2.159,-2.1389,-2.1194,-2.1106,-2.1695,-2.2807,-2.3759,-2.4053,-2.3795,-2.4102,-2.4053,0.0,0.0,0.0,0.0,-2.3238,-2.3438,0.0,0.0,0.0,0.0,0.0,0.0,0.0,0.0,-2.4202,-2.4202,-2.4202,0.0,-2.4202,-2.4202,-2.4202,-2.4202,0.0,-2.3338,-2.2577,0.0,0.0,0.0,-2.165,0.0,0.0,0.0,0.0,0.0,0.0,0.0,0.0,0.0,0.0,0.0,0.0,0.0,0.0,0.0,0.0,0.0,0.0,-1.9424,-1.9424,-1.9424,-1.9424,-1.9424,-1.9424,-1.9424,-1.9424,-1.9424,-1.9424,-1.9424,-1.9424,-1.9307,0.0,0.0,0.0,0.0,-1.8473,-1.8311,-1.82,-1.8083,-1.7837,-1.7661,-1.7608,-1.7608,-1.7543,-1.7485,0.0,0.0,0.0,0.0,0.0,0.0,0.0,0.0,0.0,0.0,0.0,0.0,0.0,0.0,0.0,0.0,0.0,0.0,0.0,0.0,0.0,0.0,0.0,-2.1696,-2.1696,-2.1696,-2.1508,-2.1042,-2.1042,-2.1042,-2.1042,-2.1042,-2.1103,-2.1142,-2.1234,-2.1364,-2.1561,-2.285,-2.3438,-2.3497,-2.4003,0.0,0.0,0.0,0.0,0.0,-2.3488,-2.3696,0.0,-2.3596,-2.3795,-2.4102,0.0,0.0,0.0,0.0,-2.4202,-2.4202,-2.4202,-2.3795,-2.3438,-2.3438,-2.3029,-2.282,-2.3288,0.0,0.0,0.0,0.0,0.0,0.0,0.0,0.0,0.0,0.0,0.0,0.0,0.0,0.0,0.0,0.0,0.0,0.0,0.0,0.0,0.0,0.0,0.0,0.0,-1.9424,-1.9424,-1.9424,-1.9424,-1.9424,-1.9424,-1.9424,-1.9424,-1.9424,-1.9424,-1.9424,-1.9366,-1.9243,-1.9062,0.0,0.0,0.0,-1.8194,-1.8083,-1.7908,-1.7726,-1.7543,-1.7485,-1.7485,-1.7485,-1.7485,-1.7485,0.0,0.0,0.0,0.0,0.0,0.0,0.0,0.0,0.0,0.0,0.0,0.0,0.0,0.0,0.0,0.0,0.0,0.0,0.0,0.0,0.0,0.0,0.0,-2.1696,-2.1696,-2.1553,-2.1087,-2.0294,-2.0158,-2.0068,-2.0068,-2.0249,-2.0744,-2.1581,-2.1362,-2.1052,-2.0668,-2.1954,-2.2577,-2.2828,-2.3795,0.0,0.0,0.0,0.0,0.0,0.0,0.0,0.0,-2.3088,-2.3388,-2.4053,-2.3079,0.0,0.0,0.0,0.0,0.0,-2.3895,-2.2979,-2.2064,-2.2426,-2.17,-2.114,-2.2064,0.0,0.0,0.0,0.0,0.0,0.0,0.0,0.0,0.0,0.0,0.0,0.0,0.0,0.0,0.0,0.0,0.0,0.0,0.0,0.0,0.0,0.0,0.0,0.0,-1.9424,-1.9424,-1.9424,-1.9424,-1.9424,-1.9424,-1.9424,-1.9424,-1.9424,-1.9366,-1.9307,-1.9307,-1.9004,-1.8823,-1.8765,0.0,0.0,-1.7908,-1.7908,-1.7784,-1.7485,-1.7485,-1.7485,-1.7485,-1.7485,-1.7485,-1.7485,0.0,0.0,0.0,0.0,0.0,0.0,0.0,0.0,0.0,0.0,0.0,0.0,0.0,0.0,0.0,0.0,0.0,0.0,0.0,0.0,0.0,-1.9301,-2.0817,-2.1696,-2.1696,-2.0898,-2.0439,-2.0294,-1.943,-1.9018,-1.9063,-1.9886,-2.0566,-2.1003,-2.1199,-2.1497,-2.1855,-2.2314,-2.3038,-2.3954,-2.4152,0.0,0.0,0.0,0.0,0.0,0.0,0.0,0.0,-2.4003,-2.4053,-2.4152,-2.4003,0.0,0.0,0.0,0.0,0.0,-2.2526,-2.1285,-2.0151,-2.2013,-2.17,-2.0936,-2.1089,0.0,0.0,0.0,0.0,0.0,0.0,0.0,0.0,0.0,0.0,0.0,0.0,0.0,0.0,0.0,0.0,0.0,0.0,0.0,0.0,0.0,0.0,0.0,0.0,-1.9424,-1.9424,-1.9424,-1.9424,-1.9424,-1.9424,-1.9424,-1.9424,-1.9424,-1.912,-1.8997,-1.8997,-1.8648,-1.8363,-1.8142,0.0,-1.7901,-1.7602,-1.7602,-1.7543,-1.7485,-1.7485,-1.7485,-1.7485,-1.7485,-1.7485,-1.7485,0.0,0.0,0.0,0.0,0.0,0.0,0.0,0.0,0.0,0.0,0.0,0.0,0.0,0.0,0.0,0.0,0.0,0.0,0.0,0.0,0.0,-1.8788,-2.0167,-2.0673,-2.0121,-2.0257,-1.9704,-1.8449,-1.8002,-1.777,-1.7816,-1.9521,-2.0115,-1.9756,-2.022,-2.0597,-2.0875,-2.1411,-2.2266,-2.3288,0.0,0.0,0.0,0.0,0.0,0.0,0.0,0.0,0.0,0.0,-2.282,-2.3188,-2.2619,0.0,0.0,0.0,0.0,0.0,-2.1497,-2.0416,-1.9435,-2.0459,-1.9901,-1.9287,-1.9849,0.0,0.0,0.0,0.0,0.0,0.0,0.0,0.0,0.0,0.0,0.0,0.0,0.0,0.0,0.0,0.0,0.0,0.0,0.0,0.0,0.0,0.0,0.0,0.0,0.0,-1.8836,-1.8836,-1.8836,-1.8836,-1.8836,-1.8744,-1.8802,-1.912,-1.8765,-1.8648,-1.8648,-1.8311,-1.8142,-1.7972,0.0,-1.7661,-1.7485,-1.7485,-1.7485,-1.7485,-1.7485,-1.7485,-1.7485,-1.7485,-1.7485,-1.7485,0.0,0.0,0.0,0.0,0.0,0.0,0.0,0.0,0.0,0.0,0.0,0.0,0.0,0.0,0.0,0.0,0.0,0.0,0.0,0.0,-1.7552,-1.8048,-1.9293,-1.9613,-1.8834,-1.9567,-1.8964,-1.6983,-1.6749,-1.6749,-1.703,-1.878,-1.925,-1.8575,-1.9126,-1.9437,-1.9587,-2.0261,-2.114,-2.2114,0.0,0.0,0.0,0.0,0.0,0.0,0.0,0.0,0.0,0.0,0.0,0.0,0.0,0.0,0.0,-2.2426,-2.1344,-2.0158,-2.0416,-1.9694,-1.8819,-1.8819,0.0,-1.7845,-1.8662,0.0,0.0,0.0,0.0,0.0,0.0,0.0,0.0,0.0,0.0,0.0,0.0,0.0,0.0,0.0,0.0,0.0,0.0,0.0,0.0,0.0,0.0,0.0,0.0,0.0,-1.8389,-1.8326,-1.8326,-1.8294,-1.8224,-1.7957,-1.8103,-1.8661,-1.8307,-1.8109,-1.8109,-1.7832,-1.7722,-1.7658,-1.742,-1.7298,-1.7298,-1.7298,-1.7298,-1.7298,-1.7298,-1.7298,-1.7298,-1.7298,-1.7298,-1.7298,0.0,0.0,0.0,0.0,0.0,0.0,0.0,0.0,0.0,0.0,0.0,0.0,0.0,0.0,0.0,0.0,0.0,0.0,0.0,0.0,-1.6904,-1.6062,-1.7863,-1.888,-1.8788,-1.888,-1.838,-1.7279,-1.6346,-1.6339,-1.7279,-1.7419,-1.7628,-1.789,-1.8179,-1.8495,-1.8889,-1.9184,-2.0004,-2.1038,-2.1038,0.0,0.0,0.0,0.0,0.0,0.0,0.0,0.0,0.0,0.0,0.0,0.0,0.0,-2.1191,-2.2224,-2.0313,-1.8042,-1.9072,-1.8558,-1.774,-1.774,-1.7635,0.0,-1.7687,-1.7856,0.0,-1.8063,0.0,0.0,0.0,0.0,0.0,0.0,0.0,0.0,0.0,0.0,0.0,0.0,0.0,0.0,0.0,0.0,0.0,0.0,0.0,0.0,0.0,0.0,0.0,-1.8046,-1.804,-1.7913,-1.7658,-1.7403,-1.7535,-1.8033,-1.7547,-1.731,-1.7254,-1.6923,-1.6817,-1.6817,-1.6754,-1.6754,-1.6754,-1.6754,-1.6754,-1.6754,-1.6754,-1.6754,-1.6754,-1.6754,-1.6754,-1.6754,0.0,0.0,0.0,0.0,0.0,0.0,0.0,0.0,0.0,0.0,0.0,0.0,0.0,0.0,0.0,0.0,0.0,0.0,0.0,-1.6393,-1.6204,-1.5825,-1.7131,-1.7544,-1.6936,-1.7552,-1.7225,-1.5927,-1.5553,-1.5553,-1.5974,-1.6864,-1.717,-1.6912,-1.7802,-1.841,-1.8825,-1.9096,-1.9849,-2.0834,-2.0107,-2.0107,0.0,0.0,0.0,0.0,0.0,0.0,0.0,0.0,-2.057,-2.1505,0.0,-2.1242,-2.0987,-2.1395,-1.965,-1.7687,-1.8094,-1.8034,-1.7869,-1.7869,-1.8009,0.0,0.0,-1.8103,-1.8323,-1.8323,0.0,0.0,0.0,0.0,0.0,0.0,0.0,0.0,0.0,0.0,0.0,0.0,0.0,0.0,0.0,0.0,0.0,0.0,0.0,0.0,0.0,0.0,0.0,-1.719,-1.7184,-1.7135,-1.7036,-1.6747,-1.6765,-1.6925,-1.6888,-1.6862,-1.6868,-1.6756,-1.67,-1.67,-1.67,-1.67,-1.67,-1.67,-1.67,-1.67,-1.67,-1.67,-1.67,-1.67,-1.67,-1.67,0.0,0.0,0.0,0.0,0.0,0.0,0.0,0.0,0.0,0.0,0.0,0.0,0.0,0.0,0.0,0.0,0.0,0.0,-1.5825,-1.5784,-1.5784,-1.5784,-1.644,-1.6487,-1.5825,-1.6487,-1.6346,-1.5315,-1.5315,-1.5315,-1.5315,-1.6346,-1.6703,-1.6469,-1.7358,-1.7967,-1.8416,-1.8622,-1.9131,-1.9797,-1.9027,-1.8916,0.0,0.0,0.0,0.0,0.0,0.0,0.0,0.0,0.0,0.0,0.0,0.0,0.0,0.0,-1.9027,-1.7602,-1.7702,-1.7883,-1.8015,0.0,0.0,0.0,-1.8315,0.0,0.0,0.0,0.0,0.0,0.0,0.0,0.0,0.0,0.0,0.0,0.0,0.0,0.0,0.0,0.0,0.0,0.0,0.0,0.0,0.0,0.0,0.0,0.0,0.0,0.0,0.0,-1.6573,-1.6531,-1.6447,-1.6254,-1.6157,-1.6163,-1.6356,-1.6447,-1.6447,-1.6447,-1.6447,-1.6447,-1.6447,-1.6447,-1.6447,-1.6447,-1.6447,-1.6447,-1.6447,-1.6447,-1.6447,-1.6447,-1.6447,-1.6447,0.0,0.0,0.0,0.0,0.0,0.0,0.0,0.0,0.0,0.0,0.0,0.0,0.0,0.0,0.0,0.0,0.0,0.0,-1.5784,-1.5784,-1.5784,-1.5784,-1.5784,-1.5784,-1.5784,-1.5784,-1.5784,-1.5784,-1.5784,-1.5784,-1.5784,-1.5784,-1.6146,-1.6707,-1.6707,-1.7034,-1.7582,-1.7582,-1.7582,-1.7582,-1.7582,-1.8251,-1.9072,0.0,0.0,0.0,0.0,0.0,0.0,0.0,-1.8304,0.0,0.0,0.0,0.0,0.0,-1.8454,-1.7649,-1.7902,-1.7989,0.0,0.0,0.0,0.0,0.0,0.0,0.0,0.0,0.0,0.0,0.0,0.0,0.0,0.0,0.0,0.0,0.0,0.0,0.0,0.0,0.0,0.0,0.0,0.0,0.0,0.0,0.0,0.0,0.0,0.0,0.0,0.0,-1.6284,-1.6151,-1.5891,-1.5891,-1.5891,-1.5891,-1.5891,-1.5891,-1.5891,-1.5891,-1.5891,-1.5891,-1.5891,-1.5891,-1.5891,-1.5891,-1.5891,-1.5891,-1.5891,-1.5891,-1.5891,-1.5891,-1.5891,-1.5891,0.0,0.0,0.0,0.0,0.0,0.0,0.0,0.0,0.0,0.0,0.0,0.0,0.0,0.0,0.0,0.0,0.0,0.0,-1.5784,-1.5784,-1.5784,-1.5784,-1.5784,-1.5784,-1.5784,-1.5642,-1.5588,-1.5588,-1.5588,-1.5588,-1.5594,-1.5997,-1.6346,-1.6714,-1.6978,-1.728,-1.7582,-1.7582,-1.7582,-1.7582,-1.7582,-1.7793,-1.8094,0.0,0.0,0.0,0.0,0.0,0.0,0.0,0.0,0.0,0.0,0.0,0.0,-1.9176,-1.8454,-1.7602,-1.7695,-1.7883,0.0,0.0,0.0,0.0,0.0,0.0,0.0,0.0,0.0,0.0,0.0,0.0,0.0,0.0,0.0,0.0,0.0,0.0,0.0,0.0,0.0,0.0,0.0,0.0,0.0,0.0,0.0,0.0,0.0,0.0,0.0,0.0,-1.6012,-1.597,-1.5891,-1.5891,-1.5891,-1.5891,-1.5891,-1.5891,-1.5891,-1.5891,-1.5891,-1.5891,-1.5891,-1.5891,-1.5891,-1.5891,-1.5891,-1.5891,-1.5891,-1.5891,-1.5891,-1.5891,-1.5891,-1.5891,0.0,0.0,0.0,0.0,0.0,0.0,0.0,0.0,0.0,0.0,0.0,0.0,0.0,0.0,0.0,0.0,0.0,0.0,0.0,-1.5784,-1.5784,-1.5784,-1.5784,-1.5778,-1.5683,-1.5452,-1.5356,-1.5356,-1.5452,-1.5493,-1.5499,-1.6036,-1.6426,-1.672,-1.7065,-1.7367,-1.7582,-1.7582,-1.7582,-1.7582,-1.7582,-1.7582,-1.7687,0.0,0.0,0.0,0.0,0.0,0.0,0.0,0.0,0.0,0.0,0.0,0.0,-1.8558,-1.8101,-1.7609,-1.7736,0.0,0.0,0.0,0.0,0.0,0.0,0.0,0.0,0.0,0.0,0.0,0.0,0.0,0.0,0.0,0.0,0.0,0.0,0.0,0.0,0.0,0.0,0.0,0.0,0.0,0.0,0.0,0.0,0.0,0.0,0.0,0.0,0.0,-1.5891,-1.5891,-1.5891,-1.5891,-1.5891,-1.5891,-1.5891,-1.5891,-1.5891,-1.5891,-1.5891,-1.5891,-1.5891,-1.5891,-1.5891,-1.5891,-1.5891,-1.5891,-1.5891,-1.5891,-1.5891,-1.5891,-1.5891,-1.5891,0.0,0.0,0.0,0.0,0.0,0.0,0.0,0.0,0.0,0.0,0.0,0.0,0.0,0.0,0.0,0.0,0.0,0.0,0.0,0.0,-1.5784,-1.5784,-1.5784,-1.5642,-1.5445,-1.5172,-1.5035,-1.5035,-1.5356,-1.5506,-1.5538,-1.6075,-1.6466,-1.676,-1.7105,-1.7387,-1.7582,-1.7582,-1.7582,-1.7582,-1.7582,-1.7582,-1.7582,-1.7582,0.0,0.0,0.0,0.0,0.0,0.0,0.0,0.0,0.0,0.0,-1.7582,-1.7582,-1.7582,-1.7642,0.0,0.0,0.0,0.0,0.0,0.0,0.0,0.0,0.0,0.0,0.0,0.0,0.0,0.0,0.0,0.0,0.0,0.0,0.0,0.0,0.0,0.0,0.0,0.0,0.0,0.0,0.0,0.0,0.0,0.0,0.0,0.0,0.0,-1.5891,-1.5891,-1.5891,-1.5891,-1.5891,-1.5891,-1.5891,-1.5891,-1.5891,-1.5891,-1.5891,-1.5891,-1.5891,-1.5891,-1.5891,-1.5891,-1.5891,-1.5891,-1.5891,-1.5891,-1.5891,-1.5891,-1.5891,-1.5891,-1.5891,0.0,0.0,0.0,0.0,0.0,0.0,0.0,0.0,0.0,0.0,0.0,0.0,0.0,0.0,0.0,0.0,0.0,0.0,0.0,0.0,-1.5784,-1.5784,-1.5635,-1.5356,-1.4879,-1.4831,-1.4688,-1.4496,-1.5159,-1.561,-1.5833,-1.6374,-1.6774,-1.7119,-1.7414,-1.7522,-1.7582,-1.7582,-1.7582,-1.7582,-1.7582,-1.7582,-1.7582,-1.7582,-1.7582,0.0,0.0,0.0,0.0,0.0,0.0,0.0,-1.7582,-1.7582,-1.7582,-1.7582,-1.7582,-1.7595,0.0,0.0,0.0,0.0,0.0,0.0,0.0,0.0,0.0,0.0,0.0,0.0,0.0,0.0,0.0,0.0,0.0,0.0,0.0,0.0,0.0,0.0,0.0,0.0,0.0,0.0,0.0,0.0,0.0,0.0,0.0,0.0,0.0,-1.5891,-1.5891,-1.5891,-1.5891,-1.5891,-1.5891,0.0,-1.5891,-1.5891,-1.5891,-1.5891,-1.5891,-1.5891,-1.5891,-1.5891,-1.5891,-1.5891,-1.5891,-1.5891,-1.5891,-1.5891,-1.5891,-1.5891,-1.5891,-1.5891,0.0,0.0,0.0,0.0,0.0,0.0,0.0,0.0,0.0,0.0,0.0,0.0,0.0,0.0,0.0,0.0,0.0,0.0,0.0,0.0,-1.5778,-1.5642,-1.5452,-1.5118,-1.4694,-1.4592,-1.4442,-1.4298,-1.5107,-1.5586,-1.5735,-1.6275,-1.6766,-1.7213,-1.7507,-1.7582,-1.7582,-1.7582,-1.7582,-1.7582,-1.7582,-1.7582,-1.7582,-1.7582,-1.7582,-1.7582,-1.7582,0.0,0.0,0.0,0.0,0.0,0.0,0.0,-1.7582,-1.7582,-1.7582,-1.7582,0.0,0.0,0.0,0.0,0.0,0.0,0.0,0.0,0.0,0.0,0.0,0.0,0.0,0.0,0.0,0.0,0.0,0.0,0.0,0.0,0.0,0.0,0.0,0.0,0.0,0.0,0.0,0.0,0.0,0.0,0.0,-1.6072,-1.6018,-1.5891,-1.5891,-1.5891,-1.5891,-1.5351,-1.5083,-1.5083,-1.4482,-1.4207,-1.4261,-1.5399,-1.5891,-1.5891,-1.5891,-1.5891,-1.5891,-1.5891,-1.5891,-1.5891,-1.5891,-1.5891,-1.5891,-1.5891,-1.5891,-1.5891,0.0,0.0,0.0,0.0,0.0,0.0,0.0,0.0,0.0,0.0,0.0,0.0,0.0,0.0,0.0,0.0,0.0,0.0,0.0,0.0,0.0,-1.5452,-1.5172,-1.4885,-1.464,-1.4394,-1.4298,-1.4298,-1.4966,-1.5373,0.0,-1.616,-1.6744,-1.7286,-1.7475,-1.7582,-1.7582,-1.7582,-1.7582,-1.7582,-1.7582,-1.7582,-1.7582,-1.7582,-1.7582,-1.7582,-1.7582,-1.7582,-1.7582,-1.7582,0.0,0.0,0.0,0.0,-1.7582,-1.7582,-1.7582,-1.7582,0.0,0.0,0.0,0.0,0.0,0.0,0.0,0.0,0.0,0.0,0.0,0.0,0.0,0.0,0.0,0.0,0.0,0.0,0.0,0.0,0.0,0.0,0.0,0.0,0.0,0.0,0.0,0.0,0.0,0.0,-1.6362,-1.635,-1.6144,-1.5707,-1.5701,-1.5587,-1.5366,-1.4445,-1.394,-1.3898,-1.2871,-1.2417,-1.2467,-1.4422,-1.5292,-1.5292,-1.5292,-1.5292,-1.5292,-1.5292,-1.5292,-1.5292,-1.5292,-1.5292,-1.5292,-1.5292,-1.5292,-1.5292,0.0,0.0,0.0,0.0,0.0,0.0,0.0,0.0,0.0,0.0,0.0,0.0,0.0,0.0,0.0,0.0,0.0,0.0,0.0,0.0,0.0,-1.5178,-1.4885,-1.464,-1.4346,-1.4298,-1.4298,-1.4298,-1.443,0.0,0.0,0.0,0.0,-1.7522,-1.7562,-1.7582,-1.7582,-1.7582,-1.7582,-1.7582,-1.7582,-1.7582,-1.7582,-1.7582,-1.7582,-1.7582,-1.7582,-1.7582,-1.7582,-1.7582,-1.7582,0.0,0.0,0.0,-1.7582,-1.7582,-1.7582,0.0,0.0,0.0,0.0,0.0,0.0,0.0,0.0,0.0,0.0,0.0,0.0,0.0,0.0,0.0,0.0,0.0,0.0,0.0,0.0,0.0,0.0,0.0,0.0,0.0,0.0,0.0,0.0,0.0,0.0,0.0,-1.6646,-1.6646,-1.6119,-1.5008,-1.4952,-1.4435,-1.3286,-1.3178,-1.2974,-1.2798,-1.2502,-1.2417,-1.2417,-1.2743,-1.2852,-1.2852,-1.2852,-1.2852,-1.2852,-1.2852,-1.2852,-1.2852,-1.2852,-1.2852,-1.2852,-1.2852,-1.2852,-1.2852,0.0,0.0,0.0,0.0,0.0,0.0,0.0,0.0,0.0,0.0,0.0,0.0,0.0,0.0,0.0,-1.5784,0.0,0.0,0.0,0.0,0.0,-1.5131,-1.4987,-1.4736,-1.4298,-1.3709,-1.3709,-1.4298,0.0,0.0,0.0,-1.627,-1.6897,0.0,0.0,0.0,-1.7582,0.0,0.0,-1.7582,-1.7582,-1.7582,-1.7582,-1.7582,-1.7582,-1.7582,-1.7582,-1.7582,-1.7582,-1.7582,-1.7582,-1.7582,-1.7582,0.0,0.0,0.0,-1.7582,0.0,0.0,0.0,0.0,0.0,0.0,0.0,0.0,0.0,0.0,0.0,0.0,0.0,0.0,0.0,0.0,0.0,0.0,0.0,0.0,0.0,0.0,0.0,0.0,0.0,0.0,0.0,0.0,0.0,0.0,-1.6634,-1.6477,-1.585,-1.5171,-1.4482,-1.3809,-1.3191,-1.2631,-1.1964,-1.1363,-1.0663,-1.0639,-1.0655,-1.0698,-1.0698,-1.1308,-1.2417,-1.2417,-1.2417,-1.2417,-1.2417,-1.2417,-1.2417,-1.2417,-1.2417,-1.2417,-1.2417,-1.2417,-1.2417,0.0,0.0,0.0,0.0,0.0,0.0,0.0,0.0,0.0,0.0,0.0,0.0,0.0,0.0,0.0,0.0,-1.5784,0.0,0.0,0.0,0.0,-1.5131,-1.4981,-1.4694,-1.4298,-1.3264,-1.3221,-1.4298,0.0,0.0,-1.5398,-1.5563,-1.6221,0.0,-1.7141,-1.7312,0.0,0.0,0.0,0.0,-1.7582,-1.7582,-1.7582,-1.7536,-1.7483,-1.7483,-1.7483,-1.7483,-1.7536,-1.7582,-1.7582,-1.7582,-1.7582,-1.7582,0.0,0.0,0.0,0.0,0.0,0.0,0.0,0.0,0.0,0.0,0.0,0.0,0.0,0.0,0.0,0.0,0.0,0.0,0.0,0.0,0.0,0.0,0.0,0.0,0.0,0.0,0.0,0.0,0.0,0.0,0.0,0.0,0.0,-1.661,-1.6398,-1.5609,-1.4917,-1.4352,-1.3182,-1.2408,-1.2078,-1.0931,-0.9924,-0.921,-0.9173,-0.9161,-0.9269,-0.9269,-1.0096,-1.1496,-1.1544,-1.154,-1.1492,-1.1492,-1.1492,-1.1492,-1.1492,-1.1492,-1.1492,-1.1492,-1.1492,-1.1492,0.0,0.0,0.0,0.0,0.0,0.0,0.0,0.0,0.0,0.0,0.0,0.0,-1.5784,-1.5784,-1.5784,-1.5784,-1.5784,-1.5784,-1.5784,-1.5363,0.0,-1.5083,-1.4592,0.0,-1.4298,-1.3264,-1.3221,0.0,0.0,0.0,-1.514,-1.4875,-1.5332,-1.6377,-1.6709,-1.7127,-1.7582,0.0,0.0,0.0,0.0,-1.7582,-1.7582,-1.7331,-1.7232,-1.7232,-1.7232,-1.7232,-1.7279,-1.7529,-1.7582,-1.7582,-1.7582,-1.7582,-1.7582,0.0,0.0,0.0,0.0,0.0,0.0,0.0,0.0,0.0,0.0,0.0,0.0,0.0,0.0,0.0,0.0,0.0,0.0,0.0,0.0,0.0,0.0,0.0,0.0,0.0,0.0,0.0,0.0,0.0,0.0,0.0,0.0,-1.6694,-1.6676,-1.662,-1.6047,-1.4781,-1.3576,-1.2381,-1.1187,-0.9891,-0.9257,-0.9207,-0.9015,-0.8898,-0.8905,-0.8905,-0.9009,-0.9109,-0.9304,-0.923,-0.9103,-0.9103,-0.9103,-0.9103,-0.9103,-0.9103,-0.9103,-0.9103,-0.9103,-0.9103,0.0,0.0,0.0,0.0,0.0,0.0,0.0,0.0,0.0,0.0,0.0,0.0,0.0,-1.5784,-1.5784,-1.5784,-1.5784,-1.5784,-1.5784,-1.486,0.0,-1.41,-1.3125,-1.249,-1.229,-1.1268,0.0,0.0,0.0,-1.1795,-1.3794,-1.2867,-1.3637,-1.5817,-1.6273,-1.6795,-1.7367,-1.7554,0.0,0.0,0.0,0.0,0.0,0.0,0.0,0.0,0.0,0.0,0.0,-1.7331,-1.7483,-1.7582,-1.7582,-1.7582,-1.7549,-1.7414,-1.7012,0.0,0.0,0.0,0.0,0.0,0.0,0.0,0.0,0.0,0.0,0.0,0.0,0.0,0.0,0.0,0.0,0.0,0.0,0.0,0.0,0.0,0.0,0.0,0.0,0.0,0.0,0.0,0.0,0.0,0.0,0.0,-1.3967,-1.3247,-1.2635,-1.2197,-1.0982,-1.0152,-0.9711,-0.921,-0.9062,-0.921,-0.91,-0.9127,-0.9222,-0.9222,-0.9171,-0.9079,-0.9187,-0.9069,-0.8885,-0.8885,-0.8991,-0.9066,-0.8974,-0.8994,-0.9066,-0.8974,-0.8885,-0.8885,0.0,0.0,0.0,0.0,0.0,0.0,0.0,0.0,0.0,-1.4372,0.0,0.0,0.0,0.0,-1.5642,-1.535,-1.5302,-1.5105,-1.4663,-1.3788,-1.3156,-1.2877,-1.195,-1.1365,-1.1219,0.0,0.0,0.0,0.0,0.0,0.0,-1.1609,-1.2471,-1.4722,-1.5268,-1.6087,0.0,0.0,0.0,-1.7582,0.0,0.0,-1.7279,0.0,0.0,0.0,0.0,0.0,0.0,0.0,-1.7101,-1.7193,-1.7397,-1.7469,-1.7414,-1.7018,-1.663,0.0,0.0,0.0,0.0,0.0,0.0,0.0,0.0,0.0,0.0,0.0,0.0,0.0,0.0,0.0,0.0,0.0,0.0,0.0,0.0,0.0,0.0,0.0,0.0,0.0,0.0,0.0,0.0,0.0,0.0,0.0,-1.2304,-1.1607,-1.1042,-1.0726,-0.9915,-0.932,-0.8885,-0.8885,-0.8988,-0.9083,-0.9083,-0.9133,-0.9232,-0.9232,-0.9178,-0.9083,-0.9083,-0.9025,-0.8885,-0.8885,-0.8994,-0.9069,-0.8977,-0.8998,-0.9069,-0.8974,-0.8885,-0.8885,0.0,0.0,0.0,0.0,0.0,0.0,0.0,0.0,-1.216,-1.3414,0.0,0.0,0.0,0.0,0.0,-1.4346,-1.4244,-1.3709,-1.2387,-1.2047,-1.1804,-1.156,0.0,0.0,0.0,0.0,0.0,0.0,0.0,0.0,0.0,0.0,-1.1804,-1.313,-1.3615,-1.4912,-1.6781,0.0,-1.7367,-1.7569,0.0,-1.7325,-1.7477,0.0,0.0,0.0,-1.6736,-1.667,0.0,-1.6664,0.0,0.0,0.0,0.0,-1.7065,-1.6489,0.0,0.0,0.0,0.0,0.0,0.0,0.0,0.0,0.0,0.0,0.0,0.0,0.0,0.0,0.0,0.0,0.0,0.0,0.0,0.0,0.0,0.0,0.0,0.0,0.0,0.0,0.0,0.0,0.0,0.0,0.0,-1.194,-1.2082,-1.2091,-1.1652,-1.0651,-1.066,-1.0069,-0.8933,-0.8881,-0.8885,-0.8885,-0.8885,-0.8885,-0.8885,-0.8885,-0.8885,-0.8885,-0.8885,-0.8885,-0.8885,-0.8885,-0.8885,-0.8888,-0.8885,-0.8885,-0.8888,-0.8885,-0.8885,-0.8885,0.0,0.0,0.0,0.0,0.0,0.0,-1.0289,-1.0386,-1.0908,0.0,0.0,0.0,-1.3555,-1.3553,-1.336,-1.2877,-1.2829,-1.263,-1.2042,-1.1121,-1.0538,-1.044,-0.946,-0.8874,0.0,0.0,0.0,0.0,0.0,0.0,0.0,0.0,0.0,0.0,-1.2407,-1.3594,-1.5907,-1.6815,0.0,0.0,-1.697,-1.6411,0.0,0.0,0.0,0.0,0.0,-1.5447,-1.6137,0.0,-1.6179,-1.6336,0.0,0.0,0.0,0.0,0.0,0.0,-1.5852,0.0,0.0,0.0,0.0,0.0,0.0,0.0,0.0,0.0,0.0,0.0,0.0,0.0,0.0,0.0,0.0,0.0,0.0,0.0,0.0,0.0,0.0,0.0,0.0,0.0,0.0,0.0,-0.9935,-0.9489,-0.9534,-0.9534,-0.9399,-0.9129,-0.919,-0.9092,-0.8774,-0.8828,-0.8885,-0.8885,-0.8885,-0.8885,-0.8885,-0.8885,-0.8885,-0.8885,-0.8885,-0.8885,-0.8885,-0.8885,-0.8998,-0.9083,-0.8981,-0.9001,-0.9083,-0.8977,-0.8885,-0.8885,0.0,0.0,0.0,0.0,0.0,0.0,-0.9074,-0.9074,-0.9606,0.0,0.0,0.0,-1.2528,-1.2533,-1.2242,-1.156,-1.1512,-1.1214,-1.0485,-0.9752,-0.9266,-0.9167,-0.8432,-0.7988,-0.7988,0.0,0.0,0.0,0.0,0.0,0.0,0.0,0.0,0.0,0.0,0.0,0.0,0.0,0.0,0.0,-1.6052,0.0,0.0,-1.3799,-1.3541,0.0,0.0,0.0,-1.4526,-1.432,-1.4797,0.0,0.0,0.0,0.0,0.0,0.0,0.0,0.0,0.0,0.0,0.0,0.0,0.0,0.0,-1.2974,0.0,0.0,0.0,0.0,0.0,0.0,0.0,0.0,0.0,0.0,0.0,0.0,0.0,0.0,0.0,0.0,0.0,0.0,0.0,-0.9261,-0.8651,-0.8326,-0.8391,-0.8452,-0.8482,-0.8482,-0.8567,-0.8615,-0.8615,-0.8767,-0.8845,-0.8845,-0.8854,-0.8885,-0.8885,-0.8885,-0.8885,-0.8885,-0.8885,-0.8885,-0.8885,-0.8885,-0.8988,-0.9055,-0.8971,-0.8991,-0.9052,-0.8967,-0.8885,-0.8885,0.0,0.0,0.0,0.0,0.0,0.0,-0.794,-0.79,-0.8451,0.0,-1.0144,-1.0646,-1.1953,-1.1994,-1.1458,-1.0293,-1.0194,-0.9657,-0.8432,-0.8333,-0.8237,-0.7988,-0.7988,-0.7988,-0.7988,-0.7906,0.0,0.0,0.0,0.0,0.0,0.0,0.0,0.0,0.0,0.0,0.0,0.0,0.0,-1.6052,-1.4788,-1.44,0.0,0.0,-1.2299,0.0,-1.2248,-1.2304,-1.2421,-1.2085,-1.2874,0.0,0.0,0.0,0.0,0.0,-1.5784,0.0,0.0,0.0,0.0,0.0,0.0,0.0,-1.2823,-1.2339,-1.1702,0.0,0.0,0.0,0.0,0.0,0.0,0.0,0.0,0.0,0.0,0.0,0.0,0.0,0.0,0.0,0.0,-0.7988,-0.7988,-0.7988,-0.7988,-0.8099,-0.8238,-0.8364,-0.8431,-0.8431,-0.8448,-0.8459,-0.8459,-0.8608,-0.8686,-0.8686,-0.8842,-0.8858,-0.8858,-0.8875,-0.8885,-0.8885,-0.8885,-0.8885,-0.8885,-0.8885,-0.8885,-0.8885,-0.8885,-0.8885,-0.8885,-0.8885,-0.8885,-0.8885,-0.7503,0.0,0.0,0.0,0.0,0.0,0.0,-0.79,-0.8149,-0.8758,-0.9078,-0.9617,-1.0658,-0.9998,-0.9312,-0.8825,-0.8775,-0.8577,-0.8088,-0.8088,-0.8038,-0.7988,-0.7988,-0.7988,-0.7988,-0.7961,-0.7961,0.0,0.0,0.0,0.0,0.0,0.0,0.0,0.0,0.0,0.0,0.0,0.0,-1.2943,-1.3886,0.0,-1.2561,-1.1173,-1.0655,-1.0707,-1.0655,-1.1144,-1.1798,0.0,-1.1879,-1.2294,0.0,0.0,0.0,0.0,0.0,0.0,0.0,0.0,0.0,0.0,0.0,0.0,-1.2727,-1.263,-1.2193,0.0,0.0,0.0,0.0,0.0,0.0,0.0,0.0,0.0,0.0,0.0,0.0,0.0,0.0,0.0,0.0,-0.7988,-0.7988,-0.7988,-0.7988,-0.8002,-0.8032,-0.8059,-0.8076,-0.8076,-0.8248,-0.8364,-0.8364,-0.8455,-0.8526,-0.8526,-0.8682,-0.8754,-0.876,-0.8828,-0.8885,-0.8885,-0.8885,-0.8885,-0.8885,-0.8885,-0.8885,-0.8885,-0.8885,-0.8885,-0.8885,-0.8885,-0.8885,-0.8885,-0.7459,0.0,0.0,0.0,0.0,0.0,0.0,-0.7496,-0.7642,-0.8076,-0.8526,-0.8941,-0.9345,-0.892,-0.8482,-0.8233,-0.8187,-0.8137,-0.7988,-0.7988,-0.7988,-0.7988,-0.7988,-0.7988,-0.7988,-0.7988,-0.7988,0.0,0.0,0.0,0.0,0.0,0.0,0.0,0.0,0.0,0.0,0.0,-1.0779,-1.0846,-1.179,0.0,-1.0983,-0.9626,-0.9122,-0.9122,-0.9122,-0.9415,-0.9804,-0.9894,-1.0354,0.0,0.0,-1.2188,-1.2872,0.0,-1.389,-1.3842,0.0,0.0,0.0,-1.2829,0.0,0.0,0.0,-1.1755,0.0,0.0,0.0,0.0,0.0,0.0,0.0,0.0,0.0,0.0,0.0,0.0,0.0,0.0,0.0,0.0,0.0,-0.7988,-0.7988,-0.7988,-0.7988,-0.7988,-0.7988,-0.7988,-0.7988,-0.7988,-0.8113,-0.8153,-0.8153,-0.8303,-0.8377,-0.8377,-0.8526,-0.8598,-0.8601,-0.8754,-0.8825,-0.8828,-0.8851,-0.8885,-0.8885,-0.8885,-0.8885,-0.8885,-0.8885,-0.8885,-0.8885,-0.8885,-0.8885,-0.8885,-0.737,0.0,0.0,0.0,0.0,0.0,0.0,0.0,-0.7248,-0.7706,-0.819,-0.8423,-0.8315,-0.8333,-0.8233,-0.8041,-0.7988,-0.7988,-0.7988,-0.7988,-0.7988,-0.7988,-0.7988,-0.7988,-0.7988,-0.7988,-0.7988,-0.7988,0.0,0.0,0.0,0.0,0.0,0.0,0.0,0.0,0.0,0.0,0.0,-0.9312,0.0,-0.9756,-0.9801,-0.8482,-0.7988,-0.7988,-0.7988,-0.7988,-0.8008,-0.8184,0.0,-0.9706,-0.985,-1.0681,0.0,0.0,0.0,0.0,0.0,0.0,0.0,0.0,0.0,-1.1804,0.0,0.0,0.0,0.0,0.0,0.0,0.0,0.0,0.0,0.0,0.0,0.0,0.0,0.0,0.0,0.0,0.0,0.0,0.0,-0.7988,-0.7988,-0.7988,-0.7988,-0.7988,-0.7988,-0.7988,-0.7988,-0.7988,-0.7988,-0.7988,-0.7988,-0.8163,-0.8225,-0.8228,-0.8374,-0.8442,-0.8445,-0.8598,-0.8682,-0.8716,-0.8842,-0.8854,-0.8881,-0.8826,-0.8826,-0.8826,-0.8881,-0.8885,-0.8885,-0.8885,-0.8885,-0.8885,-0.7143,-0.7143,0.0,0.0,0.0,0.0,0.0,0.0,-0.7244,-0.7583,-0.7835,-0.8013,-0.8057,-0.8038,-0.8038,-0.7988,-0.7988,0.0,-0.7988,0.0,-0.7988,-0.7988,-0.7988,-0.7988,-0.7988,-0.7988,-0.7988,-0.7988,0.0,0.0,0.0,0.0,0.0,0.0,-0.7988,0.0,0.0,0.0,-0.8187,0.0,-0.8237,-0.8775,0.0,-0.8432,-0.7988,-0.7988,-0.7988,-0.7988,-0.7992,0.0,-0.83,-0.8726,0.0,-0.9899,0.0,0.0,0.0,0.0,0.0,0.0,0.0,0.0,-0.9969,0.0,0.0,0.0,0.0,0.0,0.0,0.0,0.0,0.0,0.0,0.0,0.0,0.0,0.0,0.0,0.0,0.0,0.0,0.0,0.0,0.0,-0.7988,-0.7988,-0.7988,-0.7988,-0.7988,-0.7988,-0.7988,-0.7988,-0.7988,-0.7988,-0.7988,-0.8008,-0.8015,-0.8019,-0.8221,-0.8347,-0.835,-0.8442,-0.8581,-0.8713,-0.8726,-0.8815,-0.8881,-0.8654,-0.854,-0.8543,-0.8826,-0.8885,-0.8885,-0.8885,-0.8885,-0.8885,-0.7095,-0.7095,0.0,0.0,0.0,0.0,0.0,0.0,-0.7353,-0.757,-0.7763,-0.7897,0.0,0.0,0.0,0.0,0.0,-0.7988,0.0,0.0,-0.7988,-0.7988,0.0,0.0,-0.7988,-0.7988,-0.7988,-0.7988,-0.7988,0.0,0.0,0.0,0.0,0.0,-0.7988,0.0,-0.7988,0.0,0.0,0.0,0.0,0.0,0.0,-0.8187,-0.7988,-0.7988,-0.7988,-0.7988,-0.7988,0.0,-0.8088,0.0,0.0,0.0,0.0,0.0,0.0,0.0,0.0,0.0,0.0,0.0,0.0,0.0,-0.9381,0.0,-0.9579,0.0,0.0,0.0,0.0,0.0,0.0,0.0,0.0,0.0,0.0,0.0,0.0,0.0,0.0,0.0,0.0,0.0,0.0,0.0,0.0,-0.7988,-0.7988,-0.7988,-0.7988,-0.7988,-0.7988,-0.7988,-0.7988,-0.7988,-0.7988,-0.7988,-0.8106,-0.8136,-0.814,-0.8292,-0.8339,-0.8249,-0.8421,-0.8422,-0.8317,-0.8232,-0.8211,-0.8211,-0.8325,-0.838,-0.838,-0.838,-0.838,-0.838,-0.7095,0.0,0.0,0.0,0.0,0.0,0.0,0.0,0.0,0.0,0.0,0.0,-0.7978,-0.8062,0.0,0.0,-0.8029,-0.8085,0.0,0.0,-0.7988,0.0,0.0,0.0,0.0,0.0,-0.7988,-0.7988,0.0,0.0,0.0,0.0,0.0,0.0,0.0,-0.7988,-0.7988,0.0,0.0,-0.7988,-0.7988,-0.7988,-0.7988,-0.7988,-0.7988,-0.7988,-0.7988,-0.7988,-0.7988,-0.7988,-0.8038,0.0,-0.8038,0.0,0.0,0.0,0.0,0.0,-0.8627,0.0,0.0,0.0,0.0,0.0,0.0,0.0,0.0,0.0,0.0,0.0,0.0,0.0,0.0,0.0,0.0,0.0,0.0,0.0,0.0,0.0,0.0,0.0,0.0,0.0,0.0,-0.7924,-0.7928,-0.7944,-0.7988,-0.7988,-0.7988,-0.7988,-0.7988,-0.7988,-0.7988,-0.7988,-0.7988,-0.7988,-0.7988,-0.7942,-0.7895,-0.8056,-0.7973,-0.7811,-0.797,-0.7993,-0.7903,-0.7837,-0.7846,-0.7881,-0.7823,-0.7768,-0.7823,-0.7934,-0.7989,-0.7989,-0.7095,-0.7095,0.0,0.0,0.0,0.0,0.0,0.0,0.0,0.0,0.0,0.0,0.0,0.0,0.0,0.0,0.0,-0.8201,-0.8002,0.0,-0.7988,0.0,0.0,-0.7988,0.0,0.0,0.0,0.0,0.0,0.0,0.0,0.0,0.0,0.0,0.0,-0.7988,-0.7988,-0.7988,-0.7988,-0.7988,-0.7988,-0.7988,-0.7988,0.0,-0.7988,-0.7988,-0.7988,0.0,0.0,-0.7988,-0.8187,0.0,0.0,0.0,0.0,0.0,0.0,0.0,0.0,0.0,0.0,-0.9133,0.0,0.0,0.0,0.0,-0.9579,0.0,0.0,0.0,0.0,0.0,-0.8283,-0.789,-0.7943,0.0,0.0,0.0,0.0,0.0,0.0,0.0,0.0,0.0,0.0,-0.7807,-0.7818,-0.7882,-0.7982,-0.7988,-0.7988,-0.7988,-0.7988,-0.7988,-0.7988,-0.7988,-0.7988,-0.7988,-0.7988,-0.7842,-0.7596,-0.7603,-0.7576,-0.7497,-0.7506,-0.7657,-0.7897,-0.7579,-0.7494,-0.7607,-0.7324,-0.721,-0.7265,-0.7823,-0.7989,-0.7989,0.0,0.0,0.0,0.0,0.0,0.0,0.0,-0.7536,0.0,0.0,0.0,0.0,0.0,0.0,-0.8099,0.0,0.0,-0.8096,-0.7992,-0.7988,0.0,0.0,0.0,-0.7942,0.0,0.0,0.0,0.0,0.0,0.0,0.0,0.0,0.0,0.0,0.0,-0.7988,0.0,0.0,0.0,0.0,0.0,-0.7988,-0.7988,0.0,0.0,-0.7988,-0.7988,-0.7988,0.0,-0.7988,-0.8038,-0.8137,-0.8038,-0.8038,-0.8137,-0.8038,-0.8088,0.0,0.0,0.0,-0.8283,-0.8386,0.0,0.0,0.0,0.0,0.0,0.0,0.0,0.0,0.0,0.0,-0.8315,-0.797,-0.7919,-0.7851,0.0,0.0,0.0,0.0,0.0,0.0,0.0,0.0,0.0,-0.7668,-0.7756,-0.7834,0.0,-0.7934,-0.7988,-0.7988,-0.7988,-0.7988,-0.7988,-0.7842,-0.7746,-0.7746,-0.754,-0.7437,-0.7341,-0.7341,-0.7219,-0.7065,-0.7154,-0.7136,-0.7066,-0.713,-0.7171,-0.7218,-0.718,-0.721,-0.721,-0.7376,-0.7487,-0.7487,-0.6115,0.0,0.0,0.0,0.0,0.0,0.0,0.0,0.0,0.0,-0.8024,0.0,-0.7995,0.0,-0.8153,0.0,-0.8089,-0.8099,-0.7992,-0.7892,0.0,-0.7596,-0.7693,0.0,0.0,0.0,0.0,0.0,0.0,-0.7988,0.0,0.0,0.0,0.0,0.0,0.0,0.0,0.0,-0.7988,0.0,0.0,-0.7988,0.0,0.0,-0.7988,-0.7988,0.0,-0.7988,-0.7988,-0.7988,-0.7988,-0.7988,-0.7988,-0.7988,-0.7988,-0.7988,-0.7988,-0.7988,-0.7988,-0.7988,0.0,-0.8137,-0.8283,0.0,-0.8531,0.0,0.0,0.0,0.0,0.0,0.0,0.0,-0.8187,-0.7892,-0.7815,-0.7773,0.0,-0.7444,0.0,0.0,0.0,0.0,0.0,0.0,-0.7458,-0.7512,-0.7604,-0.7699,0.0,0.0,-0.7934,-0.7988,-0.7988,-0.7939,-0.7842,-0.7696,-0.7547,-0.7444,-0.7288,-0.6936,-0.6484,-0.6484,-0.6134,-0.5539,-0.5606,-0.5553,-0.5491,-0.5658,-0.5748,-0.5791,-0.5886,-0.5924,-0.6035,-0.6874,-0.721,-0.721,0.0,0.0,0.0,0.0,-0.5745,0.0,0.0,0.0,-0.7875,0.0,-0.8167,-0.8204,-0.8005,-0.8241,-0.8295,-0.7962,-0.8123,0.0,-0.7949,-0.7743,0.0,0.0,-0.7341,-0.7188,-0.7188,0.0,0.0,0.0,0.0,0.0,0.0,0.0,0.0,0.0,-0.7988,0.0,-0.7988,-0.7988,-0.7988,-0.7988,-0.7988,-0.7939,-0.7939,-0.7939,-0.7939,-0.7988,-0.7988,-0.7988,-0.7988,-0.7988,-0.7988,-0.7988,-0.7988,-0.7988,-0.7988,-0.7988,-0.7988,-0.7939,-0.7939,-0.7939,-0.8038,-0.8283,0.0,0.0,0.0,0.0,-0.8627,0.0,0.0,0.0,0.0,0.0,0.0,-0.7646,-0.7713,-0.7699,-0.7456,0.0,0.0,0.0,0.0,0.0,0.0,-0.7095,-0.72,-0.7395,-0.7412,0.0,0.0,0.0,-0.783,-0.7975,-0.7985,-0.7793,-0.7494,-0.7497,-0.7341,-0.7036,-0.6986,-0.6334,-0.5079,-0.5079,-0.4427,-0.3224,-0.3224,-0.3253,-0.3411,-0.3422,-0.3484,-0.3601,-0.3607,-0.3578,-0.386,-0.6149,-0.7041,-0.7041,-0.4023,-0.3676,-0.3457,0.0,-0.5086,-0.6229,0.0,0.0,0.0,0.0,-0.7729,-0.7685,-0.7444,-0.75,-0.7513,-0.7394,-0.7472,0.0,0.0,0.0,0.0,-0.6995,-0.7141,-0.7089,-0.6892,-0.7141,0.0,-0.7596,0.0,0.0,-0.7988,0.0,0.0,0.0,0.0,0.0,-0.7988,-0.7988,-0.7892,-0.7693,-0.749,-0.7388,0.0,0.0,-0.7388,-0.7437,-0.7839,-0.7988,-0.7992,-0.7793,-0.7842,-0.7942,-0.7743,-0.7693,-0.7693,-0.7693,-0.754,-0.7388,-0.7388,-0.7388,-0.7437,-0.7487,-0.7487,-0.7534,0.0,0.0,0.0,0.0,0.0,0.0,0.0,0.0,0.0,-0.7892,-0.7776,-0.7587,0.0,0.0,0.0,-0.7095,0.0,0.0,0.0,-0.7095,-0.7112,-0.7152,-0.7305,0.0,0.0,0.0,0.0,-0.7531,-0.7437,-0.6986,-0.6126,-0.5929,-0.5379,-0.4522,-0.4325,-0.4026,-0.3725,-0.3725,-0.3525,-0.3224,-0.3224,-0.3232,-0.3249,-0.3358,-0.3419,-0.3481,-0.3544,-0.3596,-0.3692,-0.4306,-0.4529,-0.4529,-0.2524,0.0,0.0,-0.2126,0.0,0.0,-0.6036,0.0,0.0,-0.7646,-0.7596,0.0,-0.7391,-0.7288,-0.7188,-0.7188,-0.7188,0.0,0.0,0.0,0.0,-0.6795,-0.6839,-0.6786,-0.6639,-0.6889,0.0,-0.7244,0.0,0.0,-0.7842,0.0,0.0,0.0,0.0,-0.7988,0.0,-0.7892,-0.7746,-0.7596,-0.7291,0.0,0.0,-0.7188,-0.7188,-0.7238,-0.7537,-0.7637,-0.764,-0.749,-0.754,-0.764,-0.749,-0.7444,-0.7444,-0.7444,-0.7341,-0.7188,-0.7188,-0.7188,-0.7188,-0.7188,-0.7188,-0.7188,-0.7188,-0.7188,-0.7188,0.0,0.0,0.0,0.0,0.0,0.0,0.0,0.0,0.0,0.0,0.0,0.0,0.0,0.0,0.0,0.0,0.0,0.0,0.0,0.0,0.0,0.0,0.0,0.0,-0.6549,-0.6517,-0.5927,-0.4722,-0.5027,-0.4626,-0.3422,-0.3272,-0.2972,-0.2519,-0.2519,-0.2267,-0.1815,-0.1815,-0.1815,-0.1817,-0.1902,-0.1936,-0.1919,-0.2022,-0.1998,-0.2015,-0.2015,-0.2686,-0.358,0.0,0.0,0.0,0.0,0.0,0.0,0.0,-0.6833,0.0,-0.7543,0.0,-0.7522,-0.7472,-0.7284,-0.7139,-0.7139,0.0,-0.7139,-0.7139,-0.6941,-0.6785,-0.677,-0.6561,-0.6403,-0.6387,-0.6639,0.0,0.0,0.0,0.0,0.0,0.0,0.0,0.0,0.0,0.0,0.0,-0.7643,-0.7547,0.0,-0.7188,-0.7086,-0.7086,-0.7086,-0.7086,-0.7086,-0.7086,-0.7138,-0.7188,-0.7138,-0.7188,-0.7188,-0.7138,-0.7138,-0.7138,-0.7138,-0.7138,-0.7086,-0.7086,-0.7086,-0.7086,-0.7086,-0.7086,-0.7086,-0.7086,-0.7086,-0.7039,-0.6792,-0.6939,-0.6986,0.0,0.0,0.0,0.0,0.0,0.0,0.0,0.0,0.0,0.0,0.0,0.0,0.0,0.0,0.0,0.0,0.0,0.0,0.0,0.0,0.0,-0.5211,-0.5268,-0.4724,-0.3571,0.0,-0.4126,-0.2972,-0.2871,-0.2318,-0.1412,-0.1412,-0.0858,0.0,0.0,0.0,0.0,0.0,0.0,0.0,0.0,0.0,0.0,0.0,-0.1344,-0.3134,0.0,0.0,0.0,0.0,0.0,-0.2668,-0.272,-0.5329,-0.7241,-0.6992,-0.7038,-0.7004,-0.6793,-0.6834,-0.6895,-0.6895,-0.6895,0.0,0.0,0.0,0.0,-0.6643,-0.6586,-0.6489,-0.6389,-0.6437,-0.6589,0.0,0.0,0.0,0.0,0.0,0.0,0.0,0.0,0.0,-0.7643,-0.7391,0.0,-0.6895,-0.6639,-0.6537,-0.6537,-0.6537,-0.6537,-0.6537,-0.6537,-0.6836,-0.7188,-0.6942,-0.7042,-0.7138,-0.6942,-0.6892,-0.6892,-0.6892,-0.6689,-0.6537,-0.6537,-0.6537,-0.6537,-0.6537,-0.6537,-0.6537,-0.6537,-0.6537,-0.6537,-0.6487,-0.6487,-0.6589,-0.6692,0.0,0.0,0.0,0.0,0.0,0.0,0.0,0.0,0.0,0.0,0.0,0.0,0.0,0.0,0.0,0.0,0.0,0.0,0.0,0.0,0.0,-0.3658,0.0,0.0,0.0,-0.2116,-0.1865,-0.0958,-0.0454,-0.0303,-0.0303,-0.0202,0.0,0.0,0.0,0.0,0.0,0.0,0.0,0.0,0.0,0.0,0.0,-0.028,-0.0616,0.0,0.0,0.0,0.0,0.0,0.0,0.0,-0.4243,0.0,-0.608,-0.6689,-0.7079,-0.692,-0.6871,-0.6801,-0.6801,-0.6801,-0.6801,-0.6801,-0.6801,-0.6777,-0.6717,-0.6714,0.0,-0.6481,-0.6478,-0.6552,-0.6589,0.0,0.0,-0.6992,0.0,0.0,0.0,0.0,-0.7391,0.0,0.0,0.0,-0.6792,-0.6489,-0.6387,-0.6387,-0.6387,-0.6387,-0.6387,-0.6387,-0.6587,-0.6786,-0.6639,-0.6689,-0.6786,-0.6639,-0.6589,-0.6589,-0.6589,-0.6487,-0.6387,-0.6387,-0.6387,-0.6387,-0.6387,-0.6387,-0.6387,-0.6387,-0.6387,-0.6387,-0.6387,-0.6387,-0.6487,-0.6742,-0.7042,0.0,0.0,0.0,0.0,0.0,0.0,0.0,0.0,0.0,0.0,0.0,0.0,0.0,0.0,0.0,0.0,0.0,0.0,0.0,0.0,0.0,0.0,0.0,0.0,0.0,-0.0757,-0.0252,0.0,0.0,0.0,0.0,0.0,0.0,0.0,0.0,0.0,0.0,0.0,0.0,0.0,0.0,0.0,0.0,0.0,0.0,0.0,0.0,0.0,-0.0686,0.0,-0.1278,-0.2986,-0.4563,-0.5212,-0.639,-0.7155,-0.7155,-0.6967,-0.6877,-0.6877,-0.6877,-0.6877,-0.6877,-0.6877,-0.6866,-0.6842,-0.6842,-0.6677,-0.6243,-0.6269,-0.6057,0.0,0.0,0.0,0.0,0.0,0.0,0.0,0.0,0.0,0.0,0.0,-0.6742,-0.6692,-0.6487,-0.6387,-0.6387,-0.6387,-0.6387,-0.6387,-0.6387,-0.6387,-0.6387,-0.6387,-0.6387,-0.6387,-0.6387,-0.6387,-0.6387,-0.6387,-0.6387,-0.6387,-0.6387,-0.6387,-0.6387,-0.6387,-0.6387,-0.6387,-0.6387,-0.6387,-0.6387,-0.6387,-0.6387,-0.6487,-0.6742,-0.6942,0.0,0.0,0.0,0.0,0.0,0.0,0.0,0.0,0.0,0.0,0.0,0.0,0.0,0.0,0.0,0.0,0.0,0.0,0.0,0.0,0.0,-0.1256,-0.0707,0.0,-0.0958,-0.0353,-0.0101,0.0,0.0,0.0,0.0,0.0,0.0,0.0,0.0,0.0,0.0,0.0,0.0,0.0,0.0,0.0,0.0,0.0,0.0,0.0,0.0,0.0,0.0,0.0,-0.016,-0.1241,-0.281,-0.4778,-0.6187,-0.7021,-0.7021,-0.7114,-0.7177,-0.7177,-0.7177,-0.7177,-0.7177,-0.7177,-0.713,-0.6972,-0.697,-0.6422,-0.5193,-0.516,-0.4599,0.0,0.0,0.0,0.0,0.0,0.0,0.0,0.0,0.0,0.0,-0.6389,-0.6642,-0.6437,-0.6387,-0.6387,-0.6387,-0.6387,-0.6387,-0.6387,-0.6387,-0.6387,-0.6387,-0.6387,-0.6387,-0.6387,-0.6387,-0.6387,-0.6387,-0.6387,-0.6387,-0.6387,-0.6387,-0.6387,-0.6387,-0.6387,-0.6387,-0.6387,-0.6387,-0.6387,-0.6387,-0.6387,-0.6387,-0.6487,-0.6742,-0.6639,-0.6637,0.0,0.0,0.0,0.0,0.0,0.0,0.0,0.0,0.0,0.0,0.0,0.0,0.0,0.0,0.0,0.0,0.0,0.0,-0.1616,0.0,-0.1882,-0.287,-0.1059,-0.0606,-0.1462,-0.0454,0.0,0.0,0.0,0.0,0.0,0.0,0.0,0.0,0.0,0.0,0.0,0.0,0.0,0.0,0.0,0.0,0.0,0.0,0.0,0.0,0.0,0.0,0.0,0.0,-0.1049,-0.21,-0.2962,-0.4191,-0.4983,-0.4983,-0.5012,-0.5031,-0.5031,-0.5031,-0.5031,-0.5031,-0.5031,-0.5018,-0.4985,-0.4983,-0.4667,-0.4048,-0.4017,-0.377,0.0,0.0,0.0,0.0,0.0,0.0,0.0,0.0,-0.4124,-0.4026,-0.4479,-0.458,-0.4477,-0.4477,-0.4477,-0.4477,-0.4477,-0.4477,-0.4477,-0.4477,-0.4477,-0.4578,-0.5233,-0.5887,-0.6387,-0.6387,-0.6387,-0.6387,-0.6387,-0.6387,-0.6387,-0.6387,-0.6387,-0.6387,-0.6387,-0.6387,-0.6387,-0.6387,-0.6387,-0.6387,-0.6387,-0.6387,-0.6437,-0.6539,-0.6084,-0.5682,0.0,0.0,0.0,0.0,0.0,0.0,0.0,0.0,0.0,0.0,0.0,0.0,0.0,0.0,0.0,0.0,0.0,0.0,-0.1522,0.0,-0.0801,-0.1261,-0.0404,-0.0202,-0.0656,-0.0202,0.0,0.0,0.0,0.0,0.0,0.0,0.0,0.0,0.0,0.0,0.0,0.0,0.0,0.0,0.0,0.0,0.0,0.0,0.0,0.0,0.0,0.0,0.0,0.0,-0.0728,-0.1288,-0.1288,-0.2015,-0.2797,-0.3525,-0.358,-0.358,-0.358,-0.358,-0.358,-0.358,-0.358,-0.358,-0.358,-0.358,0.0,-0.2913,-0.2952,-0.2711,-0.225,-0.2265,0.0,0.0,0.0,0.0,0.0,-0.2569,-0.272,-0.2771,-0.3073,-0.3224,-0.3224,-0.3224,-0.3224,-0.3224,-0.3224,-0.3224,-0.3224,-0.3224,-0.3224,-0.3324,-0.4079,-0.4832,-0.5532,-0.5834,-0.5937,-0.5937,-0.5937,-0.5937,-0.5937,-0.5937,-0.5684,-0.5482,-0.5482,-0.5482,-0.5482,-0.5482,-0.5482,-0.5482,-0.5482,-0.5482,-0.5482,-0.5482,-0.4979,-0.4578,-0.4479,0.0,0.0,0.0,0.0,0.0,0.0,0.0,-0.0332,-0.1167,0.0,0.0,0.0,0.0,0.0,0.0,0.0,0.0,0.0,0.0,0.0,0.0,-0.0151,0.0,0.0,0.0,0.0,0.0,0.0,0.0,0.0,0.0,0.0,0.0,0.0,0.0,0.0,0.0,0.0,0.0,0.0,0.0,0.0,0.0,0.0,0.0,0.0,0.0,0.0,0.0,0.0,0.0,0.0,-0.0056,-0.0953,-0.3357,-0.358,-0.358,-0.358,-0.358,-0.358,-0.358,-0.358,-0.358,0.0,0.0,-0.3022,-0.1847,-0.1816,-0.1256,-0.0055,0.0,0.0,-0.1399,0.0,-0.0908,-0.0101,-0.116,-0.1613,-0.1714,-0.2771,-0.3224,-0.3224,-0.3224,-0.3224,-0.3224,-0.3224,-0.3224,-0.3224,-0.3224,-0.3224,-0.3224,-0.3224,-0.3224,-0.3425,-0.4481,-0.4834,-0.4834,-0.4834,-0.4834,-0.4834,-0.4834,-0.4029,-0.3224,-0.3224,-0.3224,-0.3224,-0.3224,-0.3224,-0.3224,-0.3224,-0.3224,-0.3224,-0.3224,-0.3224,-0.3323,-0.3571,0.0,0.0,0.0,0.0,0.0,0.0,0.0,0.0,0.0,0.0,0.0,0.0,0.0,0.0,0.0,0.0,0.0,-0.1615,-0.147,0.0,-0.1562,-0.0505,0.0,0.0,0.0,0.0,0.0,0.0,0.0,0.0,0.0,0.0,0.0,0.0,0.0,0.0,0.0,0.0,0.0,0.0,0.0,0.0,0.0,0.0,0.0,0.0,0.0,0.0,0.0,0.0,0.0,0.0,0.0,-0.028,-0.1064,-0.112,-0.112,0.0,-0.112,-0.112,0.0,-0.112,-0.112,-0.112,-0.112,-0.0953,-0.056,-0.0557,-0.0389,0.0,0.0,0.0,0.0,-0.042,-0.0262,0.0,-0.0367,-0.0524,-0.0524,-0.0891,-0.0995,-0.0995,-0.0995,-0.0995,-0.0995,-0.0995,-0.0995,-0.0995,-0.0995,-0.0995,-0.115,-0.1857,-0.1644,-0.1231,-0.2276,-0.3123,-0.3726,-0.3726,-0.3726,-0.3726,-0.3726,-0.3475,-0.3224,-0.3224,-0.3224,-0.3224,-0.3224,-0.3224,-0.3224,-0.3224,-0.3224,-0.3224,-0.3224,-0.262,-0.2116,-0.2216,-0.1261,0.0,0.0,0.0,0.0,0.0,0.0,0.0,0.0,-0.0923,0.0,0.0,0.0,0.0,0.0,0.0,0.0,0.0,-0.0795,0.0,-0.0505,-0.0151,0.0,0.0,0.0,0.0,0.0,0.0,0.0,0.0,0.0,0.0,0.0,0.0,0.0,0.0,0.0,0.0,0.0,0.0224,0.028,0.028,0.0,0.0,0.0,0.0,0.0,0.0,0.0,0.0,0.0,0.0,0.0,0.0,0.0,0.0,0.0,0.0,0.0,0.0,0.0,0.0,0.0,0.0,0.0,0.0,0.0,0.0,0.0,0.0,0.0,0.0,0.0,0.0,0.0,0.0,0.0,0.0,0.0,0.0,0.0,0.0,0.0,0.0,0.0,0.0,0.0,0.0,0.0,0.0,-0.0106,-0.0789,-0.0577,-0.0105,-0.0776,-0.1435,-0.2085,-0.2474,-0.262,-0.262,-0.262,-0.2318,-0.2017,-0.2017,-0.2017,-0.2017,-0.2017,-0.2017,-0.2017,-0.2017,-0.2017,-0.2017,-0.2017,-0.1462,-0.1009,-0.1009,-0.0454,0.0,0.0,0.0,0.0,0.0,0.0,0.0,0.0,-0.0545,-0.0888,0.0,0.0,0.0,0.0,0.0,0.0,-0.0892,-0.0301,0.0,0.0,0.0,0.0,0.0,0.0,0.0,0.0,0.0,0.0,0.0,0.0,0.0,0.0,0.0109,0.0166,0.0168,0.028,0.0336,0.0336,0.0505,0.0561,0.0617,0.0,0.0,0.0,0.0,0.0,0.0,0.0,0.0,0.0,0.0,0.0,0.0,0.0,0.0,0.0,0.0,0.0,0.0,0.0,0.0,0.0,0.0,0.0,0.0,0.0,0.0,0.0,0.0,0.0,0.0,0.0,0.0,0.0,0.0,0.0,0.0,0.0,0.0,0.0,0.0,0.0,0.0,0.0,0.0,0.0,0.0,0.0,0.0,0.0,0.0,0.0,0.0,0.0,0.0,-0.0207,-0.1219,-0.1514,-0.1513,-0.1513,-0.0757,0.0,0.0,0.0,0.0,0.0,0.0,0.0,0.0,0.0,0.0,0.0,0.0,0.0,0.0,0.0,0.0,0.0,0.0,0.0,0.0,0.0,0.0,0.0,0.0,0.0,0.0,0.0,0.0,0.0,0.0,-0.0892,-0.005,0.0,0.0,0.0,0.0,0.0,0.0,0.0,0.0,0.0,0.0,0.0,0.0052,0.0052,0.0053,0.0055,0.0329,0.0443,0.0449,0.0785,0.0897,0.0897,0.0897,0.0953,0.0953,0.0,0.0,0.0,0.0,0.0,0.0,0.0,0.0,0.0,0.0,0.0,0.0,0.0,0.0,0.0,0.0,0.0,0.0,0.0,0.0,0.0,0.0,0.0,0.0,0.0,0.0,0.0,0.0,0.0,0.0,0.0,0.0,0.0,0.0,0.0,0.0,0.0,0.0,0.0,0.0,0.0,0.0,0.0,0.0,0.0,0.0,0.0,0.0,0.0,0.0,0.0,0.0,0.0,0.0,-0.0053,-0.0311,-0.0357,-0.0404,-0.0404,-0.0202,0.0,0.0,0.0,0.0,0.0,0.0,0.0,0.0,0.0,0.0,0.0,0.0,0.0,0.0,0.0,0.0,0.0,0.0,0.0,0.0,0.0,0.0,0.0,0.0,0.0,0.0,0.0,0.0,0.0,-0.0101,-0.0251,0.0,0.0,0.0,0.0,0.0,0.0,0.0,0.0,0.0,0.0,0.0,0.0102,0.0312,0.0316,0.0429,0.0712,0.0776,0.0782,0.0785,0.0841,0.0897,0.0897,0.1121,0.1177,0.1234,0.0,0.0,0.0,0.0,0.0,0.0,0.0,0.0,0.0,0.0,0.0,0.0,0.0,0.0,0.0,0.0,0.0,0.0,0.0,0.0,0.0,0.0,0.0,0.0,0.0,0.0,0.0,0.0,0.0,0.0,0.0,0.0,0.0,0.0,0.0,0.0,0.0,0.0,0.0,0.0,0.0,0.0,0.0,0.0,0.0,0.0,0.0,0.0,0.0,0.0,0.0,0.0,0.0,0.0,0.0,0.0,0.0,0.0,0.0,0.0,0.0,0.0,0.0,0.0,0.0,0.0,0.0,0.0,0.0,0.0,0.0,0.0,0.0,0.0,0.0,0.0,0.0,0.0,0.0,0.0,0.0,0.0051,0.0152,0.0202,0.0253,0.0354,0.0354,0.0,0.0556,0.0354,0.0253,0.0354,0.0152,0.0051,0.0202,0.0202,0.0253,0.0354,0.0354,0.0354,0.0354,0.0408,0.0465,0.0631,0.0642,0.0708,0.0886,0.1005,0.1065,0.1121,0.1234,0.129,0.1346,0.1458,0.1514,0.157,0.0,0.0,0.0,0.0,0.0,0.0,0.0,0.0,0.0,0.0,0.0,0.0,0.0,0.0,0.0,0.0,0.0,0.0,0.0,0.0,0.0,0.0,0.0,0.0,0.0,0.0,0.0,0.0,0.0,0.0,0.0,0.0,0.0,0.0,0.0,0.0,0.0,0.0,0.0,0.0,0.0,0.0,0.0,0.0,0.0,0.0,0.0,0.0,0.0,0.0,0.0,0.0,0.0056,0.0056,0.0,0.0055,0.0054,0.0,0.0,0.0,0.0,0.0,0.0,0.0,0.0,0.0,0.0,0.0,0.0,0.0,0.0,0.0,0.0,0.0,0.0,0.0,0.0,0.0,0.0,0.0,0.0,0.0101,0.0303,0.0354,0.0455,0.0657,0.0707,0.0758,0.0808,0.0606,0.0606,0.0909,0.0354,0.0202,0.0455,0.0455,0.0556,0.0808,0.0808,0.081,0.0812,0.0876,0.0945,0.0964,0.0978,0.0994,0.1065,0.129,0.1402,0.1402,0.1683,0.1795,0.1795,0.1795,0.1795,0.1851,0.0,0.0,0.0,0.0,0.0,0.0,0.0,0.0,0.0,0.0,0.0,0.0,0.0,0.0,0.0,0.0,0.0,0.0,0.0,0.0,0.0,0.0,0.0,0.0,0.0,0.0,0.0,0.0,0.0,0.0,0.0,0.0,0.0,0.0,0.0,0.0,0.0,0.0,0.0,0.0,0.0,0.0,0.0,0.0,0.0,0.0,0.0,0.0,0.0,0.0,0.0,0.0056,0.028,0.0168,0.0056,0.0279,0.0165,0.0,0.0,0.0,0.0,0.0,0.0,0.0,0.0,0.0,0.0,0.0,0.0,0.0,0.0,0.0,0.0,0.0,0.0,0.0,0.0,0.0,0.0,0.0,0.0,0.0,0.0051,0.0051,0.0101,0.0101,0.0354,0.0556,0.0808,0.0758,0.096,0.1465,0.0758,0.0455,0.0758,0.0758,0.0758,0.0808,0.0808,0.0815,0.0879,0.0882,0.1004,0.1253,0.1256,0.138,0.1683,0.1683,0.1739,0.1739,0.1795,0.1795,0.1795,0.1795,0.1795,0.1963,0.0505,0.0505,0.0505,0.0505,0.0505,0.0505,0.0505,0.0505,0.0505,0.0505,0.0505,0.0505,0.0505,0.0505,0.0505,0.0505,0.0505,0.0505,0.0505,0.0336,0.0224,0.0224,0.0224,0.0168,0.0,0.0168,0.0224,0.0224,0.0393,0.0505,0.0505,0.0505,0.0505,0.0505,0.0505,0.0505,0.0505,0.0505,0.0505,0.0505,0.0505,0.0505,0.0449,0.028,0.0336,0.0449,0.028,0.0336,0.0505,0.0505,0.0505,0.0505,0.0617,0.0561,0.0505,0.0617,0.0333,0.0,0.0,0.0,0.0,0.0,0.0,0.0,0.0,0.0,0.0,0.0,0.0,0.0,0.0,0.0101,0.0202,0.0202,0.0354,0.0,0.0,0.0455,0.0455,0.0455,0.0455,0.0505,0.0657,0.0657,0.0707,0.0859,0.096,0.1111,0.1212,0.1111,0.1212,0.1566,0.1111,0.0909,0.101,0.101,0.1111,0.1213,0.1276,0.1288,0.1351,0.1377,0.1455,0.1586,0.1546,0.167,0.1795,0.1795,0.2186,0.2744,0.2744,0.3191,0.3747,0.3747,0.3747,0.3804,0.0897,0.0897,0.0897,0.0897,0.0897,0.0897,0.0897,0.0897,0.0897,0.0897,0.0897,0.0897,0.0897,0.0897,0.0897,0.0897,0.0897,0.0897,0.0897,0.0729,0.0561,0.0505,0.0505,0.0393,0.0224,0.0393,0.0505,0.0505,0.0785,0.0897,0.0897,0.0897,0.0897,0.0897,0.0897,0.0897,0.0897,0.0897,0.0897,0.0897,0.0897,0.0897,0.0897,0.0617,0.0673,0.0841,0.0617,0.0673,0.0897,0.0897,0.0897,0.0897,0.0953,0.0953,0.0897,0.0953,0.0611,0.0219,0.0211,0.0208,0.0207,0.0203,0.0202,0.0202,0.0202,0.0202,0.0202,0.0202,0.0202,0.0202,0.0202,0.0354,0.0505,0.0505,0.0,0.0,0.0,0.0808,0.0808,0.0808,0.0808,0.0859,0.1111,0.1111,0.1212,0.1415,0.1465,0.1516,0.1516,0.1364,0.1364,0.1617,0.1415,0.1313,0.1313,0.1313,0.1415,0.1617,0.1647,0.1718,0.1726,0.178,0.1808,0.1816,0.1785,0.1795,0.1795,0.213,0.2744,0.3636,0.3916,0.4582,0.5417,0.5417,0.5417,0.5417,0.0897,0.0897,0.0897,0.0897,0.0897,0.0897,0.0897,0.0897,0.0897,0.0897,0.0897,0.0897,0.0897,0.0897,0.0897,0.0897,0.0897,0.0897,0.0897,0.1121,0.1121,0.0897,0.0841,0.0841,0.0841,0.0841,0.0841,0.0841,0.0897,0.0897,0.0897,0.0897,0.0897,0.0897,0.0897,0.0897,0.0897,0.0897,0.0897,0.0897,0.0897,0.0897,0.0897,0.0897,0.0897,0.0897,0.0897,0.0897,0.0897,0.0897,0.0897,0.0953,0.1177,0.1121,0.0953,0.1177,0.1065,0.0833,0.086,0.0842,0.0827,0.0761,0.0758,0.0758,0.0758,0.0758,0.0758,0.0758,0.0758,0.0758,0.0758,0.0758,0.0758,0.0758,0.0,0.0,0.0808,0.0808,0.0808,0.0808,0.0808,0.0808,0.0808,0.0808,0.0859,0.0859,0.1111,0.1212,0.1212,0.1465,0.1566,0.1617,0.1566,0.1566,0.1566,0.1566,0.1566,0.1617,0.1647,0.1676,0.1702,0.1789,0.182,0.1792,0.1794,0.1795,0.1907,0.3024,0.3525,0.3692,0.4804,0.5306,0.5417,0.5417,0.5417,0.5528,0.1458,0.1458,0.1458,0.1458,0.1458,0.1458,0.1458,0.1458,0.1458,0.1458,0.1458,0.1458,0.1458,0.1458,0.1458,0.1458,0.1458,0.1458,0.1458,0.157,0.1458,0.1177,0.1121,0.1065,0.0897,0.1065,0.1121,0.1121,0.1346,0.1458,0.1458,0.1458,0.1458,0.1458,0.1458,0.1458,0.1458,0.1458,0.1458,0.1458,0.1458,0.1458,0.1458,0.1234,0.129,0.1458,0.1234,0.129,0.1458,0.1458,0.1458,0.1458,0.157,0.1514,0.1458,0.157,0.1514,0.1451,0.1472,0.1177,0.0894,0.0878,0.0815,0.0808,0.0808,0.0808,0.0808,0.0808,0.0808,0.0808,0.0808,0.096,0.1061,0.1061,0.0,0.1313,0.1313,0.1313,0.1313,0.1313,0.1313,0.1313,0.1313,0.1313,0.1313,0.1313,0.1415,0.1465,0.1465,0.1566,0.1617,0.1617,0.1617,0.1617,0.1617,0.1617,0.1626,0.1645,0.1675,0.2075,0.2811,0.2861,0.3338,0.4026,0.4026,0.4026,0.4081,0.4528,0.514,0.5813,0.6258,0.6924,0.7593,0.7593,0.7593,0.7651,0.1795,0.1795,0.1795,0.1795,0.1795,0.1795,0.1795,0.1795,0.1795,0.1795,0.1795,0.1795,0.1795,0.1795,0.1795,0.1795,0.1795,0.1795,0.1795,0.1795,0.1683,0.1458,0.1458,0.1346,0.1177,0.1346,0.1458,0.1458,0.1683,0.1795,0.1795,0.1795,0.1795,0.1795,0.1795,0.1795,0.1795,0.1795,0.1795,0.1795,0.1795,0.1795,0.1795,0.157,0.1627,0.1795,0.1514,0.1627,0.1795,0.1795,0.1795,0.1795,0.1795,0.1795,0.1795,0.1795,0.1795,0.1791,0.1825,0.1525,0.1176,0.1149,0.1075,0.1061,0.1061,0.1061,0.1061,0.1061,0.1061,0.1061,0.1061,0.1212,0.1314,0.1314,0.1465,0.1617,0.1617,0.1617,0.1617,0.1617,0.1617,0.1617,0.1617,0.1617,0.1617,0.1617,0.1617,0.1617,0.1617,0.1919,0.212,0.212,0.2486,0.2696,0.2696,0.2341,0.221,0.2251,0.2661,0.3291,0.4091,0.4161,0.4637,0.5417,0.5417,0.5417,0.5417,0.5808,0.6369,0.7154,0.7543,0.8156,0.8885,0.8885,0.8885,0.8885,0.1795,0.1795,0.1795,0.1795,0.1795,0.1795,0.1795,0.1795,0.1795,0.1795,0.1795,0.1795,0.1795,0.1795,0.1795,0.1795,0.1795,0.1795,0.1795,0.1795,0.1795,0.1795,0.1795,0.1795,0.1795,0.1795,0.1795,0.1795,0.1795,0.1795,0.1795,0.1795,0.1795,0.1795,0.1795,0.1795,0.1851,0.1851,0.1851,0.1851,0.1851,0.1851,0.1851,0.1851,0.1851,0.1851,0.1851,0.1851,0.1851,0.1851,0.1851,0.1851,0.1851,0.1851,0.1851,0.1851,0.1851,0.1851,0.1851,0.1828,0.179,0.173,0.1639,0.1617,0.1617,0.1617,0.1617,0.1617,0.1617,0.1617,0.1617,0.1617,0.1617,0.1617,0.1617,0.1617,0.1617,0.1617,0.1617,0.1617,0.1617,0.1617,0.1617,0.1617,0.1617,0.1617,0.1617,0.1617,0.1617,0.2622,0.3225,0.3225,0.4457,0.5118,0.512,0.3987,0.3451,0.3514,0.4707,0.5289,0.5293,0.5378,0.5417,0.5417,0.5417,0.5417,0.5528,0.6649,0.7096,0.721,0.8436,0.8885,0.8885,0.8885,0.8885,0.8885,0.3246,0.3079,0.28,0.1963,0.1795,0.1795,0.1795,0.1795,0.1795,0.1795,0.1795,0.1795,0.1795,0.1795,0.1795,0.1795,0.1795,0.1795,0.1795,0.1795,0.1795,0.1795,0.1795,0.1795,0.1795,0.1795,0.1795,0.1795,0.1795,0.1795,0.1795,0.1795,0.2242,0.3079,0.3079,0.3525,0.4305,0.4305,0.4305,0.4305,0.4305,0.4305,0.4305,0.4305,0.4305,0.4305,0.4305,0.4305,0.4305,0.4305,0.4305,0.4305,0.4305,0.4305,0.4305,0.4305,0.4305,0.4305,0.4305,0.4309,0.3853,0.2126,0.167,0.1643,0.1622,0.1617,0.1617,0.1617,0.1617,0.1617,0.1617,0.1617,0.1617,0.1617,0.1617,0.1617,0.1617,0.1617,0.1617,0.1617,0.1617,0.1919,0.2672,0.2723,0.3022,0.3775,0.3823,0.3823,0.3823,0.4278,0.4513,0.4513,0.5012,0.5248,0.526,0.488,0.4735,0.4764,0.5114,0.5759,0.6546,0.6579,0.7038,0.7873,0.7873,0.7873,0.7875,0.8211,0.838,0.838,0.8771,0.8885,0.8885,0.8885,0.8885,0.8885,0.447,0.4305,0.4081,0.3358,0.3246,0.3246,0.3246,0.3246,0.3246,0.3246,0.3246,0.3246,0.3246,0.3246,0.3246,0.3246,0.3246,0.3246,0.3246,0.3246,0.3246,0.3246,0.3246,0.3024,0.2521,0.2967,0.3246,0.3246,0.3246,0.3246,0.3246,0.3246,0.3636,0.4305,0.4305,0.4693,0.5417,0.5417,0.5417,0.5417,0.5417,0.5417,0.5417,0.5417,0.5417,0.5417,0.5417,0.5417,0.5417,0.5417,0.5417,0.5417,0.5417,0.5417,0.5417,0.5417,0.5417,0.5417,0.5417,0.5378,0.499,0.3508,0.3061,0.3049,0.3015,0.2939,0.2873,0.2873,0.2873,0.2873,0.2873,0.2873,0.2873,0.2873,0.2873,0.2873,0.2873,0.2873,0.2873,0.2873,0.2873,0.3123,0.3775,0.3823,0.4124,0.4774,0.4859,0.493,0.493,0.548,0.5796,0.5796,0.6376,0.6628,0.6645,0.6675,0.6482,0.6001,0.6496,0.7081,0.7823,0.7823,0.8214,0.8885,0.8885,0.8992,0.9103,0.9103,0.9158,0.9268,0.9268,0.9268,0.9268,0.9268,0.9268,0.9268,0.5584,0.5528,0.5528,0.5417,0.5417,0.5417,0.5417,0.5417,0.5417,0.5417,0.5417,0.5417,0.5417,0.5417,0.5417,0.5417,0.5417,0.5417,0.5417,0.5417,0.5417,0.5417,0.5472,0.5027,0.3916,0.4916,0.5417,0.5417,0.5417,0.5417,0.5417,0.5417,0.5472,0.5528,0.5528,0.5639,0.5695,0.5695,0.5695,0.5695,0.5695,0.5695,0.5695,0.5695,0.5695,0.5695,0.5695,0.5695,0.5695,0.5695,0.5695,0.5695,0.5695,0.5695,0.5695,0.5695,0.5695,0.5695,0.5695,0.5695,0.5675,0.5648,0.5541,0.5343,0.5173,0.4942,0.4824,0.4824,0.4824,0.4824,0.4824,0.4824,0.4824,0.4824,0.4824,0.4824,0.4824,0.4824,0.4824,0.4824,0.4824,0.4824,0.4924,0.5033,0.5138,0.5138,0.528,0.5386,0.5386,0.6477,0.707,0.7123,0.8167,0.8784,0.8784,0.8924,0.838,0.7265,0.838,0.8885,0.8885,0.8937,0.8937,0.8937,0.8992,0.9158,0.9434,0.9434,0.9599,0.9816,0.9816,0.9816,0.9816,0.9816,0.9816,0.9816,0.6927,0.6705,0.6424,0.5528,0.5417,0.5417,0.5417,0.5417,0.5417,0.5417,0.5417,0.5417,0.5417,0.5417,0.5417,0.5417,0.5417,0.5417,0.5417,0.5417,0.5417,0.5417,0.6255,0.6594,0.6369,0.5697,0.5417,0.5417,0.5417,0.5417,0.5417,0.5417,0.5864,0.6705,0.6705,0.726,0.8156,0.8156,0.8156,0.8156,0.8156,0.8156,0.8156,0.8156,0.8156,0.8156,0.8156,0.8156,0.8156,0.8156,0.8156,0.8156,0.8156,0.8156,0.8156,0.8156,0.8156,0.8156,0.8156,0.8156,0.8146,0.8118,0.8039,0.7428,0.5512,0.4942,0.4824,0.4824,0.4824,0.4824,0.4824,0.4824,0.4824,0.4824,0.4824,0.4824,0.4824,0.4824,0.4824,0.4824,0.4824,0.5127,0.5982,0.6976,0.755,0.755,0.7675,0.7746,0.7746,0.8096,0.8444,0.8709,0.908,0.9325,0.9541,0.9578,0.921,0.8491,0.8771,0.8885,0.8885,0.9158,0.9268,0.9323,0.9489,0.9651,0.9706,0.9706,0.9761,0.9816,0.9816,0.9816,0.9816,0.9816,0.9816,0.9816,0.81,0.7934,0.7765,0.7146,0.7091,0.7091,0.7091,0.7091,0.7091,0.7091,0.7202,0.731,0.731,0.7421,0.7473,0.731,0.7421,0.7421,0.731,0.7421,0.7473,0.7473,0.8091,0.8318,0.8211,0.759,0.7254,0.7091,0.7091,0.7091,0.7091,0.7091,0.7371,0.7934,0.7934,0.8325,0.8885,0.8885,0.8885,0.8885,0.8885,0.8885,0.8885,0.8885,0.8885,0.8885,0.8885,0.8885,0.8885,0.8885,0.8885,0.8885,0.8885,0.8885,0.8885,0.8885,0.8885,0.8885,0.8885,0.8885,0.8885,0.8885,0.8821,0.8381,0.7,0.6603,0.6449,0.6339,0.6329,0.6329,0.6329,0.6329,0.6329,0.6329,0.6329,0.6329,0.6329,0.6329,0.6329,0.6329,0.6329,0.6606,0.7229,0.8074,0.8526,0.8422,0.8769,0.8959,0.8856,0.9057,0.9305,0.9468,0.9552,0.9651,0.9816,0.9816,0.9651,0.932,0.932,0.932,0.932,0.9489,0.9596,0.9596,0.9761,0.9871,1.0036,1.0036,1.0088,1.0253,1.0253,1.0253,1.0253,1.0253,1.0253,1.0253,0.8995,0.8992,0.8992,0.9047,0.9047,0.9047,0.9047,0.9047,0.9047,0.9047,0.9268,0.9489,0.9489,0.9651,0.9706,0.9489,0.9651,0.9706,0.9489,0.9651,0.9816,0.9816,0.9816,0.9706,0.9489,0.9489,0.9268,0.8885,0.8885,0.8937,0.8992,0.8992,0.8995,0.9047,0.9047,0.9047,0.9047,0.9047,0.9047,0.9047,0.9047,0.9047,0.9047,0.9047,0.9047,0.9047,0.9047,0.9047,0.9047,0.8992,0.8995,0.9047,0.9047,0.9047,0.9047,0.9047,0.9047,0.9047,0.9047,0.9047,0.9047,0.9047,0.8951,0.8871,0.8716,0.8567,0.8364,0.8159,0.8179,0.8168,0.8141,0.8137,0.8137,0.8137,0.8137,0.8137,0.8137,0.8158,0.8179,0.8179,0.8199,0.8318,0.845,0.88,0.8937,0.873,0.9301,0.9554,0.9341,0.9632,0.9816,0.9871,0.9871,0.9926,0.9926,0.9981,0.9981,0.9981,0.9981,0.9926,0.9816,0.9871,0.9871,0.9871,0.9926,1.0088,1.0366,1.0366,1.0472,1.0692,1.0692,1.0692,1.0692,1.0692,1.0692,1.0688,0.9268,0.9323,0.9379,0.9651,0.9651,0.9651,0.9651,0.9651,0.9651,0.9651,0.9706,0.9761,0.9761,0.9761,0.9761,0.9761,0.9761,0.9761,0.9761,0.9761,0.9816,0.9816,0.9816,0.9761,0.9761,0.9761,0.9485,0.8885,0.8885,0.9047,0.9323,0.9323,0.9434,0.9651,0.9651,0.9651,0.9651,0.9651,0.9651,0.9651,0.9651,0.9651,0.9651,0.9651,0.9651,0.9651,0.9651,0.9651,0.9651,0.9434,0.9485,0.9651,0.9651,0.9651,0.9651,0.9651,0.9651,0.9651,0.9651,0.9651,0.9651,0.9651,0.9691,0.9629,0.9463,0.9139,0.8772,0.8623,0.8791,0.8899,0.8706,0.8676,0.8676,0.8676,0.8676,0.8676,0.8676,0.8851,0.8943,0.8943,0.9124,0.922,0.9246,0.9387,0.9476,0.9479,0.9631,0.9783,0.9728,0.975,0.9926,1.0202,1.0257,1.0366,1.0582,1.0582,1.0582,1.0582,1.0582,1.0308,0.9816,1.0091,1.0257,1.0257,1.0472,1.0582,1.0637,1.0637,1.0692,1.0692,1.0692,1.0692,1.0692,1.0692,1.0692,1.0672,0.9596,0.9596,0.9651,0.9761,0.9816,0.9816,0.9816,0.9816,0.9816,0.9816,0.9981,1.0091,1.0091,1.0198,1.0253,1.0091,1.0202,1.0253,1.0091,1.0202,1.0308,1.0308,1.0308,1.0257,1.0091,1.0091,0.9871,0.9379,0.9379,0.9485,0.9596,0.9596,0.9706,0.9816,0.9816,0.9816,0.9816,0.9816,0.9816,0.9816,0.9816,0.9816,0.9816,0.9816,0.9816,0.9816,0.9816,0.9816,0.9761,0.9651,0.9706,0.9816,0.9816,0.9816,0.9816,0.9816,0.9816,0.9816,0.9816,0.9816,0.9816,0.9816,0.9816,0.9798,0.9719,0.9703,0.9575,0.9168,0.9172,0.9249,0.9174,0.9159,0.9159,0.9159,0.9159,0.9159,0.9159,0.9223,0.9272,0.9272,0.9414,0.9515,0.9515,0.9827,0.9922,0.9704,1.01,1.0253,1.0091,1.0202,1.0363,1.0531,1.0527,1.0582,1.0692,1.0692,1.0692,1.0692,1.0692,1.0582,1.0308,1.0472,1.0527,1.0527,1.0637,1.0692,1.0692,1.0692,1.0692,1.0692,1.0692,1.0692,1.0692,1.0692,1.0692,1.0668]}]]